ftp/pub/palmer/observations_modified/2017/November/AR171111_AWS2.txt

Download

Sample DateTime	Unit Id	WS Avg 2min	WD Avg 2min	WGS 10min	WGD 10min	Air Temp	Rel Humidity	Dew Point	Pyranometer	Quantum	Air Pressure	Snow Level	Rainfall	PW Current	Visibility	CBase 1	CBase 2	CBase 3	Vert Vis
2017/11/11 00:00:00	AWS2	10.25	206	13.53	202	M	M	M	NA	NA	984.3	NA	NA		M	NA	NA	NA	NA
2017/11/11 00:01:00	AWS2	9.87	208	13.53	202	M	M	M	NA	NA	985.4	NA	NA		M	NA	NA	NA	NA
2017/11/11 00:02:00	AWS2	10.10	210	12.91	200	M	M	M	NA	NA	985.0	NA	NA		M	NA	NA	NA	NA
2017/11/11 00:03:00	AWS2	10.61	209	12.45	218	M	M	M	NA	NA	984.4	NA	NA		M	NA	NA	NA	NA
2017/11/11 00:04:00	AWS2	10.73	206	12.45	218	M	M	M	NA	NA	984.4	NA	NA		M	NA	NA	NA	NA
2017/11/11 00:05:00	AWS2	11.18	204	12.60	209	M	M	M	NA	NA	984.6	NA	NA		M	NA	NA	NA	NA
2017/11/11 00:06:00	AWS2	11.66	206	12.71	211	M	M	M	NA	NA	985.0	NA	NA		M	NA	NA	NA	NA
2017/11/11 00:07:00	AWS2	12.23	205	13.17	203	M	M	M	NA	NA	984.3	NA	NA		M	NA	NA	NA	NA
2017/11/11 00:08:00	AWS2	12.75	203	14.51	206	M	M	M	NA	NA	984.4	NA	NA		M	NA	NA	NA	NA
2017/11/11 00:09:00	AWS2	11.94	204	14.51	206	M	M	M	NA	NA	984.7	NA	NA		M	NA	NA	NA	NA
2017/11/11 00:10:00	AWS2	10.93	204	14.51	206	M	M	M	NA	NA	984.8	NA	NA		M	NA	NA	NA	NA
2017/11/11 00:11:00	AWS2	10.75	206	14.51	206	M	M	M	NA	NA	985.3	NA	NA		M	NA	NA	NA	NA
2017/11/11 00:12:00	AWS2	11.49	207	14.51	206	M	M	M	NA	NA	985.4	NA	NA		M	NA	NA	NA	NA
2017/11/11 00:13:00	AWS2	11.61	205	14.51	206	M	M	M	NA	NA	985.0	NA	NA		M	NA	NA	NA	NA
2017/11/11 00:14:00	AWS2	11.34	203	14.51	206	M	M	M	NA	NA	984.6	NA	NA		M	NA	NA	NA	NA
2017/11/11 00:15:00	AWS2	11.40	202	14.51	206	M	M	M	NA	NA	985.1	NA	NA		M	NA	NA	NA	NA
2017/11/11 00:16:00	AWS2	10.30	204	14.51	206	M	M	M	NA	NA	985.2	NA	NA		M	NA	NA	NA	NA
2017/11/11 00:17:00	AWS2	10.79	204	14.51	206	M	M	M	NA	NA	984.8	NA	NA		M	NA	NA	NA	NA
2017/11/11 00:18:00	AWS2	11.89	203	13.84	202	M	M	M	NA	NA	984.9	NA	NA		M	NA	NA	NA	NA
2017/11/11 00:19:00	AWS2	12.29	206	14.15	208	M	M	M	NA	NA	984.6	NA	NA		M	NA	NA	NA	NA
2017/11/11 00:20:00	AWS2	12.52	206	14.15	208	M	M	M	NA	NA	985.2	NA	NA		M	NA	NA	NA	NA
2017/11/11 00:21:00	AWS2	11.67	205	14.15	208	M	M	M	NA	NA	985.4	NA	NA		M	NA	NA	NA	NA
2017/11/11 00:22:00	AWS2	11.01	205	14.15	208	M	M	M	NA	NA	984.8	NA	NA		M	NA	NA	NA	NA
2017/11/11 00:23:00	AWS2	11.06	206	14.15	208	M	M	M	NA	NA	985.3	NA	NA		M	NA	NA	NA	NA
2017/11/11 00:24:00	AWS2	11.20	206	14.15	208	M	M	M	NA	NA	985.2	NA	NA		M	NA	NA	NA	NA
2017/11/11 00:25:00	AWS2	10.97	205	14.15	208	M	M	M	NA	NA	985.2	NA	NA		M	NA	NA	NA	NA
2017/11/11 00:26:00	AWS2	11.24	209	14.15	208	M	M	M	NA	NA	985.0	NA	NA		M	NA	NA	NA	NA
2017/11/11 00:27:00	AWS2	11.83	212	14.15	208	M	M	M	NA	NA	984.9	NA	NA		M	NA	NA	NA	NA
2017/11/11 00:28:00	AWS2	11.68	208	14.15	208	M	M	M	NA	NA	985.8	NA	NA		M	NA	NA	NA	NA
2017/11/11 00:29:00	AWS2	11.89	206	13.17	206	M	M	M	NA	NA	984.5	NA	NA		M	NA	NA	NA	NA
2017/11/11 00:30:00	AWS2	12.01	207	13.32	207	M	M	M	NA	NA	984.5	NA	NA		M	NA	NA	NA	NA
2017/11/11 00:31:00	AWS2	11.42	207	13.32	207	M	M	M	NA	NA	985.0	NA	NA		M	NA	NA	NA	NA
2017/11/11 00:32:00	AWS2	11.33	207	13.32	207	M	M	M	NA	NA	984.2	NA	NA		M	NA	NA	NA	NA
2017/11/11 00:33:00	AWS2	11.38	205	13.32	207	M	M	M	NA	NA	985.3	NA	NA		M	NA	NA	NA	NA
2017/11/11 00:34:00	AWS2	10.77	206	13.32	207	M	M	M	NA	NA	985.6	NA	NA		M	NA	NA	NA	NA
2017/11/11 00:35:00	AWS2	10.92	209	13.32	207	M	M	M	NA	NA	984.9	NA	NA		M	NA	NA	NA	NA
2017/11/11 00:36:00	AWS2	11.24	207	13.32	207	M	M	M	NA	NA	984.9	NA	NA		M	NA	NA	NA	NA
2017/11/11 00:37:00	AWS2	11.26	201	13.32	207	M	M	M	NA	NA	984.9	NA	NA		M	NA	NA	NA	NA
2017/11/11 00:38:00	AWS2	11.48	203	13.32	207	M	M	M	NA	NA	985.2	NA	NA		M	NA	NA	NA	NA
2017/11/11 00:39:00	AWS2	12.13	207	13.68	212	M	M	M	NA	NA	985.0	NA	NA		M	NA	NA	NA	NA
2017/11/11 00:40:00	AWS2	12.86	205	13.89	200	M	M	M	NA	NA	985.1	NA	NA		M	NA	NA	NA	NA
2017/11/11 00:41:00	AWS2	11.97	203	13.89	200	M	M	M	NA	NA	985.0	NA	NA		M	NA	NA	NA	NA
2017/11/11 00:42:00	AWS2	11.02	203	13.89	200	M	M	M	NA	NA	984.9	NA	NA		M	NA	NA	NA	NA
2017/11/11 00:43:00	AWS2	10.90	205	13.89	200	M	M	M	NA	NA	985.3	NA	NA		M	NA	NA	NA	NA
2017/11/11 00:44:00	AWS2	11.30	206	13.89	200	M	M	M	NA	NA	985.1	NA	NA		M	NA	NA	NA	NA
2017/11/11 00:45:00	AWS2	11.82	204	13.89	200	M	M	M	NA	NA	984.3	NA	NA		M	NA	NA	NA	NA
2017/11/11 00:46:00	AWS2	11.13	206	13.89	200	M	M	M	NA	NA	985.0	NA	NA		M	NA	NA	NA	NA
2017/11/11 00:47:00	AWS2	9.95	207	13.89	200	M	M	M	NA	NA	985.3	NA	NA		M	NA	NA	NA	NA
2017/11/11 00:48:00	AWS2	9.61	208	13.89	200	M	M	M	NA	NA	984.9	NA	NA		M	NA	NA	NA	NA
2017/11/11 00:49:00	AWS2	10.42	208	13.89	200	M	M	M	NA	NA	985.0	NA	NA		M	NA	NA	NA	NA
2017/11/11 00:50:00	AWS2	10.92	207	13.43	205	M	M	M	NA	NA	984.8	NA	NA		M	NA	NA	NA	NA
2017/11/11 00:51:00	AWS2	11.06	209	13.43	205	M	M	M	NA	NA	985.0	NA	NA		M	NA	NA	NA	NA
2017/11/11 00:52:00	AWS2	10.79	210	13.43	205	M	M	M	NA	NA	984.8	NA	NA		M	NA	NA	NA	NA
2017/11/11 00:53:00	AWS2	10.27	210	13.43	205	M	M	M	NA	NA	984.2	NA	NA		M	NA	NA	NA	NA
2017/11/11 00:54:00	AWS2	10.52	210	13.43	205	M	M	M	NA	NA	984.8	NA	NA		M	NA	NA	NA	NA
2017/11/11 00:55:00	AWS2	10.61	210	13.43	205	M	M	M	NA	NA	984.8	NA	NA		M	NA	NA	NA	NA
2017/11/11 00:56:00	AWS2	10.84	207	13.43	205	M	M	M	NA	NA	984.5	NA	NA		M	NA	NA	NA	NA
2017/11/11 00:57:00	AWS2	11.02	206	13.43	205	M	M	M	NA	NA	985.0	NA	NA		M	NA	NA	NA	NA
2017/11/11 00:58:00	AWS2	11.16	208	13.43	205	M	M	M	NA	NA	984.6	NA	NA		M	NA	NA	NA	NA
2017/11/11 00:59:00	AWS2	11.14	208	13.43	205	M	M	M	NA	NA	984.3	NA	NA		M	NA	NA	NA	NA
2017/11/11 01:00:00	AWS2	10.79	211	12.86	210	M	M	M	NA	NA	984.9	NA	NA		M	NA	NA	NA	NA
2017/11/11 01:01:00	AWS2	11.15	214	12.91	210	M	M	M	NA	NA	983.6	NA	NA		M	NA	NA	NA	NA
2017/11/11 01:02:00	AWS2	11.53	212	12.91	210	M	M	M	NA	NA	983.3	NA	NA		M	NA	NA	NA	NA
2017/11/11 01:03:00	AWS2	11.51	212	12.91	210	M	M	M	NA	NA	984.3	NA	NA		M	NA	NA	NA	NA
2017/11/11 01:04:00	AWS2	11.72	212	13.07	206	M	M	M	NA	NA	984.3	NA	NA		M	NA	NA	NA	NA
2017/11/11 01:05:00	AWS2	11.65	209	13.07	206	M	M	M	NA	NA	984.3	NA	NA		M	NA	NA	NA	NA
2017/11/11 01:06:00	AWS2	11.66	208	13.07	206	M	M	M	NA	NA	983.2	NA	NA		M	NA	NA	NA	NA
2017/11/11 01:07:00	AWS2	11.99	208	13.07	206	M	M	M	NA	NA	983.8	NA	NA		M	NA	NA	NA	NA
2017/11/11 01:08:00	AWS2	11.02	208	13.07	206	M	M	M	NA	NA	983.0	NA	NA		M	NA	NA	NA	NA
2017/11/11 01:09:00	AWS2	9.86	210	13.07	206	M	M	M	NA	NA	984.2	NA	NA		M	NA	NA	NA	NA
2017/11/11 01:10:00	AWS2	9.19	210	13.07	206	M	M	M	NA	NA	984.4	NA	NA		M	NA	NA	NA	NA
2017/11/11 01:11:00	AWS2	10.13	208	13.07	206	M	M	M	NA	NA	983.6	NA	NA		M	NA	NA	NA	NA
2017/11/11 01:12:00	AWS2	11.49	205	13.07	206	M	M	M	NA	NA	984.9	NA	NA		M	NA	NA	NA	NA
2017/11/11 01:13:00	AWS2	11.19	205	13.07	206	M	M	M	NA	NA	983.8	NA	NA		M	NA	NA	NA	NA
2017/11/11 01:14:00	AWS2	10.96	207	13.02	204	M	M	M	NA	NA	985.3	NA	NA		M	NA	NA	NA	NA
2017/11/11 01:15:00	AWS2	11.02	207	13.12	211	M	M	M	NA	NA	984.0	NA	NA		M	NA	NA	NA	NA
2017/11/11 01:16:00	AWS2	11.21	208	13.12	211	M	M	M	NA	NA	984.0	NA	NA		M	NA	NA	NA	NA
2017/11/11 01:17:00	AWS2	11.31	207	13.12	211	M	M	M	NA	NA	983.6	NA	NA		M	NA	NA	NA	NA
2017/11/11 01:18:00	AWS2	11.37	207	13.12	211	M	M	M	NA	NA	984.3	NA	NA		M	NA	NA	NA	NA
2017/11/11 01:19:00	AWS2	11.26	208	13.12	211	M	M	M	NA	NA	984.1	NA	NA		M	NA	NA	NA	NA
2017/11/11 01:20:00	AWS2	11.06	206	13.12	211	M	M	M	NA	NA	984.0	NA	NA		M	NA	NA	NA	NA
2017/11/11 01:21:00	AWS2	11.23	209	13.12	211	M	M	M	NA	NA	984.1	NA	NA		M	NA	NA	NA	NA
2017/11/11 01:22:00	AWS2	11.35	211	13.12	211	M	M	M	NA	NA	984.7	NA	NA		M	NA	NA	NA	NA
2017/11/11 01:23:00	AWS2	11.13	211	13.12	211	M	M	M	NA	NA	983.5	NA	NA		M	NA	NA	NA	NA
2017/11/11 01:24:00	AWS2	11.08	210	13.12	211	M	M	M	NA	NA	984.6	NA	NA		M	NA	NA	NA	NA
2017/11/11 01:25:00	AWS2	10.65	207	12.96	212	M	M	M	NA	NA	984.8	NA	NA		M	NA	NA	NA	NA
2017/11/11 01:26:00	AWS2	10.07	209	12.96	212	M	M	M	NA	NA	984.5	NA	NA		M	NA	NA	NA	NA
2017/11/11 01:27:00	AWS2	10.07	206	12.96	212	M	M	M	NA	NA	984.3	NA	NA		M	NA	NA	NA	NA
2017/11/11 01:28:00	AWS2	10.34	207	12.96	212	M	M	M	NA	NA	984.7	NA	NA		M	NA	NA	NA	NA
2017/11/11 01:29:00	AWS2	10.50	208	12.96	212	M	M	M	NA	NA	982.7	NA	NA		M	NA	NA	NA	NA
2017/11/11 01:30:00	AWS2	10.70	207	12.96	212	M	M	M	NA	NA	984.8	NA	NA		M	NA	NA	NA	NA
2017/11/11 01:31:00	AWS2	10.87	207	12.55	208	M	M	M	NA	NA	984.2	NA	NA		M	NA	NA	NA	NA
2017/11/11 01:32:00	AWS2	11.35	208	12.81	210	M	M	M	NA	NA	984.6	NA	NA		M	NA	NA	NA	NA
2017/11/11 01:33:00	AWS2	11.94	209	12.86	208	M	M	M	NA	NA	983.1	NA	NA		M	NA	NA	NA	NA
2017/11/11 01:34:00	AWS2	11.45	207	12.86	208	M	M	M	NA	NA	982.5	NA	NA		M	NA	NA	NA	NA
2017/11/11 01:35:00	AWS2	11.03	209	12.86	208	M	M	M	NA	NA	984.5	NA	NA		M	NA	NA	NA	NA
2017/11/11 01:36:00	AWS2	11.33	210	12.86	208	M	M	M	NA	NA	984.9	NA	NA		M	NA	NA	NA	NA
2017/11/11 01:37:00	AWS2	11.01	213	12.86	208	M	M	M	NA	NA	985.7	NA	NA		M	NA	NA	NA	NA
2017/11/11 01:38:00	AWS2	10.78	214	12.86	208	M	M	M	NA	NA	985.1	NA	NA		M	NA	NA	NA	NA
2017/11/11 01:39:00	AWS2	11.08	212	12.86	208	M	M	M	NA	NA	985.0	NA	NA		M	NA	NA	NA	NA
2017/11/11 01:40:00	AWS2	11.24	212	12.86	208	M	M	M	NA	NA	984.4	NA	NA		M	NA	NA	NA	NA
2017/11/11 01:41:00	AWS2	11.59	212	12.86	208	M	M	M	NA	NA	984.9	NA	NA		M	NA	NA	NA	NA
2017/11/11 01:42:00	AWS2	11.71	210	12.86	208	M	M	M	NA	NA	985.3	NA	NA		M	NA	NA	NA	NA
2017/11/11 01:43:00	AWS2	11.43	211	12.86	208	M	M	M	NA	NA	984.6	NA	NA		M	NA	NA	NA	NA
2017/11/11 01:44:00	AWS2	10.90	214	12.76	213	M	M	M	NA	NA	984.6	NA	NA		M	NA	NA	NA	NA
2017/11/11 01:45:00	AWS2	10.77	214	12.76	213	M	M	M	NA	NA	984.9	NA	NA		M	NA	NA	NA	NA
2017/11/11 01:46:00	AWS2	10.67	214	12.76	213	M	M	M	NA	NA	985.8	NA	NA		M	NA	NA	NA	NA
2017/11/11 01:47:00	AWS2	10.48	216	12.76	213	M	M	M	NA	NA	985.6	NA	NA		M	NA	NA	NA	NA
2017/11/11 01:48:00	AWS2	10.87	217	12.76	213	M	M	M	NA	NA	985.6	NA	NA		M	NA	NA	NA	NA
2017/11/11 01:49:00	AWS2	10.86	215	12.76	213	M	M	M	NA	NA	984.8	NA	NA		M	NA	NA	NA	NA
2017/11/11 01:50:00	AWS2	10.93	214	12.76	230	M	M	M	NA	NA	985.1	NA	NA		M	NA	NA	NA	NA
2017/11/11 01:51:00	AWS2	10.75	213	12.76	230	M	M	M	NA	NA	985.2	NA	NA		M	NA	NA	NA	NA
2017/11/11 01:52:00	AWS2	9.91	214	12.76	230	M	M	M	NA	NA	985.9	NA	NA		M	NA	NA	NA	NA
2017/11/11 01:53:00	AWS2	9.80	215	12.76	230	M	M	M	NA	NA	985.9	NA	NA		M	NA	NA	NA	NA
2017/11/11 01:54:00	AWS2	9.98	214	12.76	230	M	M	M	NA	NA	985.2	NA	NA		M	NA	NA	NA	NA
2017/11/11 01:55:00	AWS2	10.26	214	12.91	212	M	M	M	NA	NA	985.0	NA	NA		M	NA	NA	NA	NA
2017/11/11 01:56:00	AWS2	10.74	217	12.91	212	M	M	M	NA	NA	984.8	NA	NA		M	NA	NA	NA	NA
2017/11/11 01:57:00	AWS2	11.16	216	12.91	212	M	M	M	NA	NA	984.7	NA	NA		M	NA	NA	NA	NA
2017/11/11 01:58:00	AWS2	11.09	216	12.91	212	M	M	M	NA	NA	984.6	NA	NA		M	NA	NA	NA	NA
2017/11/11 01:59:00	AWS2	10.28	217	12.91	212	M	M	M	NA	NA	984.9	NA	NA		M	NA	NA	NA	NA
2017/11/11 02:00:00	AWS2	9.90	218	12.91	212	M	M	M	NA	NA	985.2	NA	NA		M	NA	NA	NA	NA
2017/11/11 02:01:00	AWS2	10.21	219	12.91	212	M	M	M	NA	NA	984.9	NA	NA		M	NA	NA	NA	NA
2017/11/11 02:02:00	AWS2	10.43	217	12.91	212	M	M	M	NA	NA	984.8	NA	NA		M	NA	NA	NA	NA
2017/11/11 02:03:00	AWS2	10.37	215	12.91	212	M	M	M	NA	NA	985.0	NA	NA		M	NA	NA	NA	NA
2017/11/11 02:04:00	AWS2	10.30	214	12.91	212	M	M	M	NA	NA	985.6	NA	NA		M	NA	NA	NA	NA
2017/11/11 02:05:00	AWS2	10.16	212	12.55	214	M	M	M	NA	NA	984.7	NA	NA		M	NA	NA	NA	NA
2017/11/11 02:06:00	AWS2	9.85	213	12.24	210	M	M	M	NA	NA	985.8	NA	NA		M	NA	NA	NA	NA
2017/11/11 02:07:00	AWS2	9.92	213	12.04	211	M	M	M	NA	NA	984.8	NA	NA		M	NA	NA	NA	NA
2017/11/11 02:08:00	AWS2	10.40	213	12.04	211	M	M	M	NA	NA	985.0	NA	NA		M	NA	NA	NA	NA
2017/11/11 02:09:00	AWS2	10.52	214	12.04	211	M	M	M	NA	NA	984.7	NA	NA		M	NA	NA	NA	NA
2017/11/11 02:10:00	AWS2	10.07	214	12.04	211	M	M	M	NA	NA	985.4	NA	NA		M	NA	NA	NA	NA
2017/11/11 02:11:00	AWS2	9.83	215	12.09	223	M	M	M	NA	NA	985.3	NA	NA		M	NA	NA	NA	NA
2017/11/11 02:12:00	AWS2	10.13	213	12.09	223	M	M	M	NA	NA	985.3	NA	NA		M	NA	NA	NA	NA
2017/11/11 02:13:00	AWS2	9.63	211	12.09	223	M	M	M	NA	NA	985.8	NA	NA		M	NA	NA	NA	NA
2017/11/11 02:14:00	AWS2	9.34	213	12.09	223	M	M	M	NA	NA	985.3	NA	NA		M	NA	NA	NA	NA
2017/11/11 02:15:00	AWS2	10.00	213	12.09	223	M	M	M	NA	NA	985.6	NA	NA		M	NA	NA	NA	NA
2017/11/11 02:16:00	AWS2	9.90	210	12.09	223	M	M	M	NA	NA	985.3	NA	NA		M	NA	NA	NA	NA
2017/11/11 02:17:00	AWS2	9.87	207	12.09	223	M	M	M	NA	NA	985.3	NA	NA		M	NA	NA	NA	NA
2017/11/11 02:18:00	AWS2	9.51	208	12.09	223	M	M	M	NA	NA	985.5	NA	NA		M	NA	NA	NA	NA
2017/11/11 02:19:00	AWS2	9.05	211	12.09	223	M	M	M	NA	NA	985.5	NA	NA		M	NA	NA	NA	NA
2017/11/11 02:20:00	AWS2	9.33	211	12.09	223	M	M	M	NA	NA	985.3	NA	NA		M	NA	NA	NA	NA
2017/11/11 02:21:00	AWS2	9.67	210	11.63	209	M	M	M	NA	NA	985.8	NA	NA		M	NA	NA	NA	NA
2017/11/11 02:22:00	AWS2	10.30	208	11.63	209	M	M	M	NA	NA	984.9	NA	NA		M	NA	NA	NA	NA
2017/11/11 02:23:00	AWS2	9.84	207	11.63	209	M	M	M	NA	NA	985.4	NA	NA		M	NA	NA	NA	NA
2017/11/11 02:24:00	AWS2	9.80	209	11.63	209	M	M	M	NA	NA	984.9	NA	NA		M	NA	NA	NA	NA
2017/11/11 02:25:00	AWS2	10.32	209	11.63	209	M	M	M	NA	NA	985.5	NA	NA		M	NA	NA	NA	NA
2017/11/11 02:26:00	AWS2	9.92	210	11.63	209	M	M	M	NA	NA	984.9	NA	NA		M	NA	NA	NA	NA
2017/11/11 02:27:00	AWS2	9.70	212	11.63	209	M	M	M	NA	NA	985.4	NA	NA		M	NA	NA	NA	NA
2017/11/11 02:28:00	AWS2	9.42	214	11.63	209	M	M	M	NA	NA	984.9	NA	NA		M	NA	NA	NA	NA
2017/11/11 02:29:00	AWS2	9.04	213	11.63	209	M	M	M	NA	NA	985.4	NA	NA		M	NA	NA	NA	NA
2017/11/11 02:30:00	AWS2	9.32	212	11.63	209	M	M	M	NA	NA	984.9	NA	NA		M	NA	NA	NA	NA
2017/11/11 02:31:00	AWS2	9.53	211	11.57	203	M	M	M	NA	NA	986.2	NA	NA		M	NA	NA	NA	NA
2017/11/11 02:32:00	AWS2	9.94	213	12.14	212	M	M	M	NA	NA	985.5	NA	NA		M	NA	NA	NA	NA
2017/11/11 02:33:00	AWS2	10.43	214	12.14	212	M	M	M	NA	NA	985.4	NA	NA		M	NA	NA	NA	NA
2017/11/11 02:34:00	AWS2	9.76	213	12.14	212	M	M	M	NA	NA	984.9	NA	NA		M	NA	NA	NA	NA
2017/11/11 02:35:00	AWS2	9.40	213	12.14	212	M	M	M	NA	NA	984.2	NA	NA		M	NA	NA	NA	NA
2017/11/11 02:36:00	AWS2	8.92	211	12.14	212	M	M	M	NA	NA	984.1	NA	NA		M	NA	NA	NA	NA
2017/11/11 02:37:00	AWS2	8.34	210	12.14	212	M	M	M	NA	NA	984.4	NA	NA		M	NA	NA	NA	NA
2017/11/11 02:38:00	AWS2	9.30	210	12.14	212	M	M	M	NA	NA	984.3	NA	NA		M	NA	NA	NA	NA
2017/11/11 02:39:00	AWS2	9.98	210	12.14	212	M	M	M	NA	NA	984.1	NA	NA		M	NA	NA	NA	NA
2017/11/11 02:40:00	AWS2	9.73	210	12.14	212	M	M	M	NA	NA	984.5	NA	NA		M	NA	NA	NA	NA
2017/11/11 02:41:00	AWS2	9.62	211	12.14	212	M	M	M	NA	NA	983.5	NA	NA		M	NA	NA	NA	NA
2017/11/11 02:42:00	AWS2	9.52	206	11.63	209	M	M	M	NA	NA	984.3	NA	NA		M	NA	NA	NA	NA
2017/11/11 02:43:00	AWS2	9.04	206	11.63	209	M	M	M	NA	NA	984.2	NA	NA		M	NA	NA	NA	NA
2017/11/11 02:44:00	AWS2	9.45	210	11.63	209	M	M	M	NA	NA	984.6	NA	NA		M	NA	NA	NA	NA
2017/11/11 02:45:00	AWS2	10.20	210	11.57	210	M	M	M	NA	NA	984.5	NA	NA		M	NA	NA	NA	NA
2017/11/11 02:46:00	AWS2	10.35	209	12.24	205	M	M	M	NA	NA	984.4	NA	NA		M	NA	NA	NA	NA
2017/11/11 02:47:00	AWS2	10.53	208	12.24	205	M	M	M	NA	NA	984.5	NA	NA		M	NA	NA	NA	NA
2017/11/11 02:48:00	AWS2	10.36	207	12.24	205	M	M	M	NA	NA	984.2	NA	NA		M	NA	NA	NA	NA
2017/11/11 02:49:00	AWS2	10.49	207	12.24	205	M	M	M	NA	NA	983.9	NA	NA		M	NA	NA	NA	NA
2017/11/11 02:50:00	AWS2	10.06	206	12.24	205	M	M	M	NA	NA	984.1	NA	NA		M	NA	NA	NA	NA
2017/11/11 02:51:00	AWS2	9.83	207	12.24	205	M	M	M	NA	NA	984.7	NA	NA		M	NA	NA	NA	NA
2017/11/11 02:52:00	AWS2	10.26	208	12.24	205	M	M	M	NA	NA	984.4	NA	NA		M	NA	NA	NA	NA
2017/11/11 02:53:00	AWS2	10.48	208	12.24	205	M	M	M	NA	NA	984.5	NA	NA		M	NA	NA	NA	NA
2017/11/11 02:54:00	AWS2	10.53	206	12.24	205	M	M	M	NA	NA	984.6	NA	NA		M	NA	NA	NA	NA
2017/11/11 02:55:00	AWS2	10.09	207	12.24	205	M	M	M	NA	NA	984.4	NA	NA		M	NA	NA	NA	NA
2017/11/11 02:56:00	AWS2	9.91	208	12.09	204	M	M	M	NA	NA	984.3	NA	NA		M	NA	NA	NA	NA
2017/11/11 02:57:00	AWS2	9.29	207	12.09	204	M	M	M	NA	NA	984.4	NA	NA		M	NA	NA	NA	NA
2017/11/11 02:58:00	AWS2	9.05	204	12.09	204	M	M	M	NA	NA	984.1	NA	NA		M	NA	NA	NA	NA
2017/11/11 02:59:00	AWS2	9.20	203	12.09	204	M	M	M	NA	NA	983.9	NA	NA		M	NA	NA	NA	NA
2017/11/11 03:00:00	AWS2	9.46	205	12.09	204	M	M	M	NA	NA	984.7	NA	NA		M	NA	NA	NA	NA
2017/11/11 03:01:00	AWS2	9.25	207	12.09	204	M	M	M	NA	NA	984.7	NA	NA		M	NA	NA	NA	NA
2017/11/11 03:02:00	AWS2	8.21	208	11.42	206	M	M	M	NA	NA	985.0	NA	NA		M	NA	NA	NA	NA
2017/11/11 03:03:00	AWS2	9.13	208	11.37	209	M	M	M	NA	NA	984.6	NA	NA		M	NA	NA	NA	NA
2017/11/11 03:04:00	AWS2	10.27	207	11.37	209	M	M	M	NA	NA	984.6	NA	NA		M	NA	NA	NA	NA
2017/11/11 03:05:00	AWS2	10.23	208	11.57	209	M	M	M	NA	NA	983.7	NA	NA		M	NA	NA	NA	NA
2017/11/11 03:06:00	AWS2	10.19	208	11.57	209	M	M	M	NA	NA	983.9	NA	NA		M	NA	NA	NA	NA
2017/11/11 03:07:00	AWS2	9.78	209	11.57	209	M	M	M	NA	NA	983.9	NA	NA		M	NA	NA	NA	NA
2017/11/11 03:08:00	AWS2	8.99	210	11.57	209	M	M	M	NA	NA	984.3	NA	NA		M	NA	NA	NA	NA
2017/11/11 03:09:00	AWS2	8.40	210	11.57	209	M	M	M	NA	NA	984.0	NA	NA		M	NA	NA	NA	NA
2017/11/11 03:10:00	AWS2	8.69	211	11.57	209	M	M	M	NA	NA	983.9	NA	NA		M	NA	NA	NA	NA
2017/11/11 03:11:00	AWS2	9.43	209	11.57	209	M	M	M	NA	NA	984.6	NA	NA		M	NA	NA	NA	NA
2017/11/11 03:12:00	AWS2	9.70	207	11.57	209	M	M	M	NA	NA	984.3	NA	NA		M	NA	NA	NA	NA
2017/11/11 03:13:00	AWS2	9.39	208	11.57	209	M	M	M	NA	NA	984.3	NA	NA		M	NA	NA	NA	NA
2017/11/11 03:14:00	AWS2	9.02	210	11.57	209	M	M	M	NA	NA	984.5	NA	NA		M	NA	NA	NA	NA
2017/11/11 03:15:00	AWS2	8.88	210	11.01	202	M	M	M	NA	NA	984.3	NA	NA		M	NA	NA	NA	NA
2017/11/11 03:16:00	AWS2	9.51	210	11.57	214	M	M	M	NA	NA	984.6	NA	NA		M	NA	NA	NA	NA
2017/11/11 03:17:00	AWS2	9.53	210	11.57	214	M	M	M	NA	NA	984.8	NA	NA		M	NA	NA	NA	NA
2017/11/11 03:18:00	AWS2	9.01	210	11.57	214	M	M	M	NA	NA	984.4	NA	NA		M	NA	NA	NA	NA
2017/11/11 03:19:00	AWS2	9.12	210	11.57	214	M	M	M	NA	NA	984.4	NA	NA		M	NA	NA	NA	NA
2017/11/11 03:20:00	AWS2	9.14	209	11.57	214	M	M	M	NA	NA	984.0	NA	NA		M	NA	NA	NA	NA
2017/11/11 03:21:00	AWS2	9.41	207	11.57	214	M	M	M	NA	NA	983.7	NA	NA		M	NA	NA	NA	NA
2017/11/11 03:22:00	AWS2	8.78	205	11.57	214	M	M	M	NA	NA	984.4	NA	NA		M	NA	NA	NA	NA
2017/11/11 03:23:00	AWS2	8.03	204	11.57	214	M	M	M	NA	NA	984.4	NA	NA		M	NA	NA	NA	NA
2017/11/11 03:24:00	AWS2	9.03	206	11.57	214	M	M	M	NA	NA	983.8	NA	NA		M	NA	NA	NA	NA
2017/11/11 03:25:00	AWS2	9.58	207	11.57	214	M	M	M	NA	NA	984.3	NA	NA		M	NA	NA	NA	NA
2017/11/11 03:26:00	AWS2	8.93	206	10.65	210	M	M	M	NA	NA	984.2	NA	NA		M	NA	NA	NA	NA
2017/11/11 03:27:00	AWS2	7.91	206	10.65	210	M	M	M	NA	NA	984.4	NA	NA		M	NA	NA	NA	NA
2017/11/11 03:28:00	AWS2	7.09	206	10.65	210	M	M	M	NA	NA	984.0	NA	NA		M	NA	NA	NA	NA
2017/11/11 03:29:00	AWS2	8.01	208	10.65	210	M	M	M	NA	NA	984.4	NA	NA		M	NA	NA	NA	NA
2017/11/11 03:30:00	AWS2	9.85	213	11.32	217	M	M	M	NA	NA	984.1	NA	NA		M	NA	NA	NA	NA
2017/11/11 03:31:00	AWS2	10.57	210	11.47	202	M	M	M	NA	NA	984.0	NA	NA		M	NA	NA	NA	NA
2017/11/11 03:32:00	AWS2	10.24	206	11.47	202	M	M	M	NA	NA	983.9	NA	NA		M	NA	NA	NA	NA
2017/11/11 03:33:00	AWS2	9.04	206	11.47	202	M	M	M	NA	NA	983.9	NA	NA		M	NA	NA	NA	NA
2017/11/11 03:34:00	AWS2	8.73	207	11.47	202	M	M	M	NA	NA	984.0	NA	NA		M	NA	NA	NA	NA
2017/11/11 03:35:00	AWS2	9.91	208	11.68	214	M	M	M	NA	NA	984.1	NA	NA		M	NA	NA	NA	NA
2017/11/11 03:36:00	AWS2	10.24	205	11.68	214	M	M	M	NA	NA	983.8	NA	NA		M	NA	NA	NA	NA
2017/11/11 03:37:00	AWS2	9.88	205	11.68	214	M	M	M	NA	NA	984.1	NA	NA		M	NA	NA	NA	NA
2017/11/11 03:38:00	AWS2	9.30	210	11.68	214	M	M	M	NA	NA	984.4	NA	NA		M	NA	NA	NA	NA
2017/11/11 03:39:00	AWS2	9.52	211	11.78	211	M	M	M	NA	NA	983.9	NA	NA		M	NA	NA	NA	NA
2017/11/11 03:40:00	AWS2	10.63	210	11.78	211	M	M	M	NA	NA	983.6	NA	NA		M	NA	NA	NA	NA
2017/11/11 03:41:00	AWS2	10.73	213	11.78	212	M	M	M	NA	NA	983.5	NA	NA		M	NA	NA	NA	NA
2017/11/11 03:42:00	AWS2	10.06	214	11.78	212	M	M	M	NA	NA	983.9	NA	NA		M	NA	NA	NA	NA
2017/11/11 03:43:00	AWS2	9.61	211	11.78	212	M	M	M	NA	NA	984.0	NA	NA		M	NA	NA	NA	NA
2017/11/11 03:44:00	AWS2	9.39	211	11.78	212	M	M	M	NA	NA	983.8	NA	NA		M	NA	NA	NA	NA
2017/11/11 03:45:00	AWS2	9.87	214	11.78	212	M	M	M	NA	NA	982.5	NA	NA		M	NA	NA	NA	NA
2017/11/11 03:46:00	AWS2	10.04	212	11.78	212	M	M	M	NA	NA	984.0	NA	NA		M	NA	NA	NA	NA
2017/11/11 03:47:00	AWS2	9.36	211	11.78	212	M	M	M	NA	NA	984.0	NA	NA		M	NA	NA	NA	NA
2017/11/11 03:48:00	AWS2	9.08	215	11.78	212	M	M	M	NA	NA	983.6	NA	NA		M	NA	NA	NA	NA
2017/11/11 03:49:00	AWS2	9.02	213	11.78	212	M	M	M	NA	NA	984.1	NA	NA		M	NA	NA	NA	NA
2017/11/11 03:50:00	AWS2	9.53	212	11.78	212	M	M	M	NA	NA	984.1	NA	NA		M	NA	NA	NA	NA
2017/11/11 03:51:00	AWS2	9.94	210	11.83	209	M	M	M	NA	NA	984.1	NA	NA		M	NA	NA	NA	NA
2017/11/11 03:52:00	AWS2	9.12	210	11.83	209	M	M	M	NA	NA	983.9	NA	NA		M	NA	NA	NA	NA
2017/11/11 03:53:00	AWS2	8.51	212	11.83	209	M	M	M	NA	NA	984.0	NA	NA		M	NA	NA	NA	NA
2017/11/11 03:54:00	AWS2	9.24	213	11.83	209	M	M	M	NA	NA	983.5	NA	NA		M	NA	NA	NA	NA
2017/11/11 03:55:00	AWS2	9.82	211	11.83	209	M	M	M	NA	NA	984.0	NA	NA		M	NA	NA	NA	NA
2017/11/11 03:56:00	AWS2	9.95	211	11.83	209	M	M	M	NA	NA	983.7	NA	NA		M	NA	NA	NA	NA
2017/11/11 03:57:00	AWS2	9.93	211	11.83	209	M	M	M	NA	NA	984.0	NA	NA		M	NA	NA	NA	NA
2017/11/11 03:58:00	AWS2	9.84	211	11.83	209	M	M	M	NA	NA	984.4	NA	NA		M	NA	NA	NA	NA
2017/11/11 03:59:00	AWS2	9.89	211	11.83	209	M	M	M	NA	NA	984.3	NA	NA		M	NA	NA	NA	NA
2017/11/11 04:00:00	AWS2	9.30	212	11.83	209	M	M	M	NA	NA	983.6	NA	NA		M	NA	NA	NA	NA
2017/11/11 04:01:00	AWS2	8.99	211	11.47	213	M	M	M	NA	NA	983.8	NA	NA		M	NA	NA	NA	NA
2017/11/11 04:02:00	AWS2	9.57	211	11.57	202	M	M	M	NA	NA	983.8	NA	NA		M	NA	NA	NA	NA
2017/11/11 04:03:00	AWS2	10.31	213	12.14	209	M	M	M	NA	NA	984.2	NA	NA		M	NA	NA	NA	NA
2017/11/11 04:04:00	AWS2	10.46	212	12.14	209	M	M	M	NA	NA	984.2	NA	NA		M	NA	NA	NA	NA
2017/11/11 04:05:00	AWS2	9.75	212	12.14	209	M	M	M	NA	NA	983.9	NA	NA		M	NA	NA	NA	NA
2017/11/11 04:06:00	AWS2	9.25	214	12.14	209	M	M	M	NA	NA	984.4	NA	NA		M	NA	NA	NA	NA
2017/11/11 04:07:00	AWS2	8.94	214	12.14	209	M	M	M	NA	NA	984.5	NA	NA		M	NA	NA	NA	NA
2017/11/11 04:08:00	AWS2	8.75	215	12.14	209	M	M	M	NA	NA	983.4	NA	NA		M	NA	NA	NA	NA
2017/11/11 04:09:00	AWS2	9.73	214	12.14	209	M	M	M	NA	NA	983.5	NA	NA		M	NA	NA	NA	NA
2017/11/11 04:10:00	AWS2	10.55	213	12.14	209	M	M	M	NA	NA	983.9	NA	NA		M	NA	NA	NA	NA
2017/11/11 04:11:00	AWS2	9.95	215	12.14	209	M	M	M	NA	NA	984.0	NA	NA		M	NA	NA	NA	NA
2017/11/11 04:12:00	AWS2	9.71	214	12.14	209	M	M	M	NA	NA	983.9	NA	NA		M	NA	NA	NA	NA
2017/11/11 04:13:00	AWS2	9.92	215	11.52	215	M	M	M	NA	NA	983.6	NA	NA		M	NA	NA	NA	NA
2017/11/11 04:14:00	AWS2	9.98	214	11.52	215	M	M	M	NA	NA	983.5	NA	NA		M	NA	NA	NA	NA
2017/11/11 04:15:00	AWS2	9.97	214	11.52	215	M	M	M	NA	NA	984.4	NA	NA		M	NA	NA	NA	NA
2017/11/11 04:16:00	AWS2	10.16	216	11.63	212	M	M	M	NA	NA	983.6	NA	NA		M	NA	NA	NA	NA
2017/11/11 04:17:00	AWS2	9.90	216	11.63	212	M	M	M	NA	NA	983.8	NA	NA		M	NA	NA	NA	NA
2017/11/11 04:18:00	AWS2	9.70	217	11.63	212	M	M	M	NA	NA	983.9	NA	NA		M	NA	NA	NA	NA
2017/11/11 04:19:00	AWS2	9.73	215	11.63	212	M	M	M	NA	NA	984.1	NA	NA		M	NA	NA	NA	NA
2017/11/11 04:20:00	AWS2	9.09	213	11.63	212	M	M	M	NA	NA	983.9	NA	NA		M	NA	NA	NA	NA
2017/11/11 04:21:00	AWS2	8.92	214	11.63	212	M	M	M	NA	NA	983.1	NA	NA		M	NA	NA	NA	NA
2017/11/11 04:22:00	AWS2	9.38	214	11.63	212	M	M	M	NA	NA	984.0	NA	NA		M	NA	NA	NA	NA
2017/11/11 04:23:00	AWS2	9.69	215	11.63	212	M	M	M	NA	NA	983.3	NA	NA		M	NA	NA	NA	NA
2017/11/11 04:24:00	AWS2	9.36	218	11.63	212	M	M	M	NA	NA	983.4	NA	NA		M	NA	NA	NA	NA
2017/11/11 04:25:00	AWS2	9.11	219	11.63	212	M	M	M	NA	NA	983.7	NA	NA		M	NA	NA	NA	NA
2017/11/11 04:26:00	AWS2	8.73	218	11.01	205	M	M	M	NA	NA	983.9	NA	NA		M	NA	NA	NA	NA
2017/11/11 04:27:00	AWS2	8.54	216	11.01	205	M	M	M	NA	NA	984.4	NA	NA		M	NA	NA	NA	NA
2017/11/11 04:28:00	AWS2	8.90	214	11.01	205	M	M	M	NA	NA	984.1	NA	NA		M	NA	NA	NA	NA
2017/11/11 04:29:00	AWS2	9.67	215	11.42	212	M	M	M	NA	NA	983.3	NA	NA		M	NA	NA	NA	NA
2017/11/11 04:30:00	AWS2	10.17	214	11.57	212	M	M	M	NA	NA	983.3	NA	NA		M	NA	NA	NA	NA
2017/11/11 04:31:00	AWS2	9.35	214	11.57	212	M	M	M	NA	NA	983.4	NA	NA		M	NA	NA	NA	NA
2017/11/11 04:32:00	AWS2	9.48	214	12.04	211	M	M	M	NA	NA	983.6	NA	NA		M	NA	NA	NA	NA
2017/11/11 04:33:00	AWS2	10.16	213	12.04	211	M	M	M	NA	NA	983.2	NA	NA		M	NA	NA	NA	NA
2017/11/11 04:34:00	AWS2	10.13	214	12.04	211	M	M	M	NA	NA	983.0	NA	NA		M	NA	NA	NA	NA
2017/11/11 04:35:00	AWS2	9.87	215	12.04	211	M	M	M	NA	NA	983.6	NA	NA		M	NA	NA	NA	NA
2017/11/11 04:36:00	AWS2	9.70	215	12.04	211	M	M	M	NA	NA	984.2	NA	NA		M	NA	NA	NA	NA
2017/11/11 04:37:00	AWS2	9.88	214	12.04	211	M	M	M	NA	NA	983.6	NA	NA		M	NA	NA	NA	NA
2017/11/11 04:38:00	AWS2	9.47	216	12.04	211	M	M	M	NA	NA	984.3	NA	NA		M	NA	NA	NA	NA
2017/11/11 04:39:00	AWS2	9.57	216	12.04	211	M	M	M	NA	NA	982.6	NA	NA		M	NA	NA	NA	NA
2017/11/11 04:40:00	AWS2	9.71	215	12.04	211	M	M	M	NA	NA	983.6	NA	NA		M	NA	NA	NA	NA
2017/11/11 04:41:00	AWS2	9.79	212	12.04	211	M	M	M	NA	NA	983.9	NA	NA		M	NA	NA	NA	NA
2017/11/11 04:42:00	AWS2	9.86	213	11.68	213	M	M	M	NA	NA	983.7	NA	NA		M	NA	NA	NA	NA
2017/11/11 04:43:00	AWS2	9.66	215	11.68	213	M	M	M	NA	NA	984.0	NA	NA		M	NA	NA	NA	NA
2017/11/11 04:44:00	AWS2	9.92	214	11.99	215	M	M	M	NA	NA	984.4	NA	NA		M	NA	NA	NA	NA
2017/11/11 04:45:00	AWS2	10.35	215	11.99	215	M	M	M	NA	NA	984.3	NA	NA		M	NA	NA	NA	NA
2017/11/11 04:46:00	AWS2	10.25	216	11.99	215	M	M	M	NA	NA	984.0	NA	NA		M	NA	NA	NA	NA
2017/11/11 04:47:00	AWS2	9.86	214	11.99	215	M	M	M	NA	NA	985.0	NA	NA		M	NA	NA	NA	NA
2017/11/11 04:48:00	AWS2	9.74	214	11.99	215	M	M	M	NA	NA	984.7	NA	NA		M	NA	NA	NA	NA
2017/11/11 04:49:00	AWS2	9.79	217	11.99	215	M	M	M	NA	NA	984.7	NA	NA		M	NA	NA	NA	NA
2017/11/11 04:50:00	AWS2	9.37	215	11.99	215	M	M	M	NA	NA	985.4	NA	NA		M	NA	NA	NA	NA
2017/11/11 04:51:00	AWS2	8.54	211	11.99	215	M	M	M	NA	NA	984.7	NA	NA		M	NA	NA	NA	NA
2017/11/11 04:52:00	AWS2	8.28	212	11.99	215	M	M	M	NA	NA	984.8	NA	NA		M	NA	NA	NA	NA
2017/11/11 04:53:00	AWS2	8.54	211	11.99	215	M	M	M	NA	NA	985.0	NA	NA		M	NA	NA	NA	NA
2017/11/11 04:54:00	AWS2	8.47	210	11.57	223	M	M	M	NA	NA	984.9	NA	NA		M	NA	NA	NA	NA
2017/11/11 04:55:00	AWS2	8.47	211	11.21	215	M	M	M	NA	NA	984.7	NA	NA		M	NA	NA	NA	NA
2017/11/11 04:56:00	AWS2	8.69	214	11.06	217	M	M	M	NA	NA	984.9	NA	NA		M	NA	NA	NA	NA
2017/11/11 04:57:00	AWS2	8.57	215	11.06	217	M	M	M	NA	NA	984.6	NA	NA		M	NA	NA	NA	NA
2017/11/11 04:58:00	AWS2	8.45	212	10.65	220	M	M	M	NA	NA	984.7	NA	NA		M	NA	NA	NA	NA
2017/11/11 04:59:00	AWS2	8.23	212	10.24	210	M	M	M	NA	NA	985.7	NA	NA		M	NA	NA	NA	NA
2017/11/11 05:00:00	AWS2	7.89	208	10.24	210	M	M	M	NA	NA	984.9	NA	NA		M	NA	NA	NA	NA
2017/11/11 05:01:00	AWS2	7.54	211	10.24	210	M	M	M	NA	NA	984.9	NA	NA		M	NA	NA	NA	NA
2017/11/11 05:02:00	AWS2	7.77	218	10.24	210	M	M	M	NA	NA	984.6	NA	NA		M	NA	NA	NA	NA
2017/11/11 05:03:00	AWS2	7.91	219	9.98	206	M	M	M	NA	NA	985.6	NA	NA		M	NA	NA	NA	NA
2017/11/11 05:04:00	AWS2	8.34	216	10.44	209	M	M	M	NA	NA	984.7	NA	NA		M	NA	NA	NA	NA
2017/11/11 05:05:00	AWS2	9.18	212	11.01	213	M	M	M	NA	NA	984.9	NA	NA		M	NA	NA	NA	NA
2017/11/11 05:06:00	AWS2	8.59	213	11.01	213	M	M	M	NA	NA	984.6	NA	NA		M	NA	NA	NA	NA
2017/11/11 05:07:00	AWS2	7.91	215	11.01	213	M	M	M	NA	NA	984.6	NA	NA		M	NA	NA	NA	NA
2017/11/11 05:08:00	AWS2	8.06	218	11.01	213	M	M	M	NA	NA	984.7	NA	NA		M	NA	NA	NA	NA
2017/11/11 05:09:00	AWS2	8.44	216	11.01	213	M	M	M	NA	NA	984.2	NA	NA		M	NA	NA	NA	NA
2017/11/11 05:10:00	AWS2	8.77	214	11.01	213	M	M	M	NA	NA	984.3	NA	NA		M	NA	NA	NA	NA
2017/11/11 05:11:00	AWS2	8.90	215	11.01	213	M	M	M	NA	NA	984.8	NA	NA		M	NA	NA	NA	NA
2017/11/11 05:12:00	AWS2	9.02	215	11.01	213	M	M	M	NA	NA	984.8	NA	NA		M	NA	NA	NA	NA
2017/11/11 05:13:00	AWS2	9.37	215	11.01	213	M	M	M	NA	NA	985.2	NA	NA		M	NA	NA	NA	NA
2017/11/11 05:14:00	AWS2	9.77	214	11.11	218	M	M	M	NA	NA	984.2	NA	NA		M	NA	NA	NA	NA
2017/11/11 05:15:00	AWS2	10.06	215	11.57	215	M	M	M	NA	NA	983.8	NA	NA		M	NA	NA	NA	NA
2017/11/11 05:16:00	AWS2	9.93	215	11.57	215	M	M	M	NA	NA	984.7	NA	NA		M	NA	NA	NA	NA
2017/11/11 05:17:00	AWS2	9.40	211	11.57	215	M	M	M	NA	NA	984.9	NA	NA		M	NA	NA	NA	NA
2017/11/11 05:18:00	AWS2	9.26	211	11.57	215	M	M	M	NA	NA	984.6	NA	NA		M	NA	NA	NA	NA
2017/11/11 05:19:00	AWS2	9.15	213	11.57	215	M	M	M	NA	NA	984.9	NA	NA		M	NA	NA	NA	NA
2017/11/11 05:20:00	AWS2	8.90	211	11.57	215	M	M	M	NA	NA	984.9	NA	NA		M	NA	NA	NA	NA
2017/11/11 05:21:00	AWS2	8.91	209	11.57	215	M	M	M	NA	NA	984.4	NA	NA		M	NA	NA	NA	NA
2017/11/11 05:22:00	AWS2	8.79	209	11.57	215	M	M	M	NA	NA	984.8	NA	NA		M	NA	NA	NA	NA
2017/11/11 05:23:00	AWS2	9.01	213	11.57	215	M	M	M	NA	NA	984.8	NA	NA		M	NA	NA	NA	NA
2017/11/11 05:24:00	AWS2	9.32	216	11.57	215	M	M	M	NA	NA	984.6	NA	NA		M	NA	NA	NA	NA
2017/11/11 05:25:00	AWS2	9.57	215	11.16	212	M	M	M	NA	NA	984.9	NA	NA		M	NA	NA	NA	NA
2017/11/11 05:26:00	AWS2	9.88	213	11.16	212	M	M	M	NA	NA	984.3	NA	NA		M	NA	NA	NA	NA
2017/11/11 05:27:00	AWS2	9.21	214	11.16	212	M	M	M	NA	NA	984.5	NA	NA		M	NA	NA	NA	NA
2017/11/11 05:28:00	AWS2	9.09	216	11.16	212	M	M	M	NA	NA	984.5	NA	NA		M	NA	NA	NA	NA
2017/11/11 05:29:00	AWS2	9.50	217	11.16	212	M	M	M	NA	NA	984.9	NA	NA		M	NA	NA	NA	NA
2017/11/11 05:30:00	AWS2	9.20	217	11.16	212	M	M	M	NA	NA	984.7	NA	NA		M	NA	NA	NA	NA
2017/11/11 05:31:00	AWS2	9.36	213	11.16	212	M	M	M	NA	NA	985.3	NA	NA		M	NA	NA	NA	NA
2017/11/11 05:32:00	AWS2	9.60	210	11.16	212	M	M	M	NA	NA	985.3	NA	NA		M	NA	NA	NA	NA
2017/11/11 05:33:00	AWS2	9.59	208	11.16	212	M	M	M	NA	NA	984.5	NA	NA		M	NA	NA	NA	NA
2017/11/11 05:34:00	AWS2	9.40	210	11.16	212	M	M	M	NA	NA	984.4	NA	NA		M	NA	NA	NA	NA
2017/11/11 05:35:00	AWS2	9.61	214	11.06	220	M	M	M	NA	NA	984.8	NA	NA		M	NA	NA	NA	NA
2017/11/11 05:36:00	AWS2	10.31	214	11.11	214	M	M	M	NA	NA	984.5	NA	NA		M	NA	NA	NA	NA
2017/11/11 05:37:00	AWS2	10.07	212	11.11	214	M	M	M	NA	NA	984.8	NA	NA		M	NA	NA	NA	NA
2017/11/11 05:38:00	AWS2	9.39	213	11.11	214	M	M	M	NA	NA	984.0	NA	NA		M	NA	NA	NA	NA
2017/11/11 05:39:00	AWS2	9.34	214	11.32	213	M	M	M	NA	NA	984.4	NA	NA		M	NA	NA	NA	NA
2017/11/11 05:40:00	AWS2	10.10	214	12.09	215	M	M	M	NA	NA	984.2	NA	NA		M	NA	NA	NA	NA
2017/11/11 05:41:00	AWS2	9.97	212	12.09	215	M	M	M	NA	NA	984.4	NA	NA		M	NA	NA	NA	NA
2017/11/11 05:42:00	AWS2	9.30	213	12.09	215	M	M	M	NA	NA	984.2	NA	NA		M	NA	NA	NA	NA
2017/11/11 05:43:00	AWS2	9.41	212	12.09	215	M	M	M	NA	NA	985.0	NA	NA		M	NA	NA	NA	NA
2017/11/11 05:44:00	AWS2	9.77	211	12.09	215	M	M	M	NA	NA	984.8	NA	NA		M	NA	NA	NA	NA
2017/11/11 05:45:00	AWS2	9.40	213	12.09	215	M	M	M	NA	NA	984.4	NA	NA		M	NA	NA	NA	NA
2017/11/11 05:46:00	AWS2	8.96	213	12.09	215	M	M	M	NA	NA	984.8	NA	NA		M	NA	NA	NA	NA
2017/11/11 05:47:00	AWS2	9.02	211	12.09	215	M	M	M	NA	NA	984.5	NA	NA		M	NA	NA	NA	NA
2017/11/11 05:48:00	AWS2	9.32	211	12.09	215	M	M	M	NA	NA	984.7	NA	NA		M	NA	NA	NA	NA
2017/11/11 05:49:00	AWS2	8.75	211	12.09	215	M	M	M	NA	NA	984.9	NA	NA		M	NA	NA	NA	NA
2017/11/11 05:50:00	AWS2	8.11	211	11.11	212	M	M	M	NA	NA	984.5	NA	NA		M	NA	NA	NA	NA
2017/11/11 05:51:00	AWS2	8.75	213	11.11	212	M	M	M	NA	NA	984.8	NA	NA		M	NA	NA	NA	NA
2017/11/11 05:52:00	AWS2	9.49	215	11.11	212	M	M	M	NA	NA	984.6	NA	NA		M	NA	NA	NA	NA
2017/11/11 05:53:00	AWS2	9.37	216	10.91	213	M	M	M	NA	NA	984.5	NA	NA		M	NA	NA	NA	NA
2017/11/11 05:54:00	AWS2	8.77	216	10.91	213	M	M	M	NA	NA	984.5	NA	NA		M	NA	NA	NA	NA
2017/11/11 05:55:00	AWS2	8.22	214	10.91	213	M	M	M	NA	NA	984.5	NA	NA		M	NA	NA	NA	NA
2017/11/11 05:56:00	AWS2	8.25	214	10.91	213	M	M	M	NA	NA	984.0	NA	NA		M	NA	NA	NA	NA
2017/11/11 05:57:00	AWS2	8.62	216	10.91	213	M	M	M	NA	NA	984.6	NA	NA		M	NA	NA	NA	NA
2017/11/11 05:58:00	AWS2	8.09	215	10.91	213	M	M	M	NA	NA	984.8	NA	NA		M	NA	NA	NA	NA
2017/11/11 05:59:00	AWS2	8.39	213	10.91	213	M	M	M	NA	NA	985.0	NA	NA		M	NA	NA	NA	NA
2017/11/11 06:00:00	AWS2	9.36	213	10.91	213	M	M	M	NA	NA	984.9	NA	NA		M	NA	NA	NA	NA
2017/11/11 06:01:00	AWS2	8.85	211	10.65	214	M	M	M	NA	NA	984.9	NA	NA		M	NA	NA	NA	NA
2017/11/11 06:02:00	AWS2	8.23	211	10.44	211	M	M	M	NA	NA	984.7	NA	NA		M	NA	NA	NA	NA
2017/11/11 06:03:00	AWS2	8.38	213	10.44	211	M	M	M	NA	NA	983.9	NA	NA		M	NA	NA	NA	NA
2017/11/11 06:04:00	AWS2	8.15	212	10.44	211	M	M	M	NA	NA	985.1	NA	NA		M	NA	NA	NA	NA
2017/11/11 06:05:00	AWS2	8.05	211	10.44	211	M	M	M	NA	NA	984.8	NA	NA		M	NA	NA	NA	NA
2017/11/11 06:06:00	AWS2	7.96	213	10.44	211	M	M	M	NA	NA	984.3	NA	NA		M	NA	NA	NA	NA
2017/11/11 06:07:00	AWS2	8.36	215	10.44	211	M	M	M	NA	NA	984.1	NA	NA		M	NA	NA	NA	NA
2017/11/11 06:08:00	AWS2	8.40	214	10.44	211	M	M	M	NA	NA	984.6	NA	NA		M	NA	NA	NA	NA
2017/11/11 06:09:00	AWS2	7.38	213	10.08	212	M	M	M	NA	NA	985.0	NA	NA		M	NA	NA	NA	NA
2017/11/11 06:10:00	AWS2	7.10	214	9.67	217	M	M	M	NA	NA	984.3	NA	NA		M	NA	NA	NA	NA
2017/11/11 06:11:00	AWS2	7.09	215	9.67	217	M	M	M	NA	NA	985.6	NA	NA		M	NA	NA	NA	NA
2017/11/11 06:12:00	AWS2	7.04	217	9.67	217	M	M	M	NA	NA	984.5	NA	NA		M	NA	NA	NA	NA
2017/11/11 06:13:00	AWS2	6.89	217	9.67	217	M	M	M	NA	NA	985.6	NA	NA		M	NA	NA	NA	NA
2017/11/11 06:14:00	AWS2	7.45	214	9.72	203	M	M	M	NA	NA	985.8	NA	NA		M	NA	NA	NA	NA
2017/11/11 06:15:00	AWS2	8.78	218	11.11	223	M	M	M	NA	NA	985.6	NA	NA		M	NA	NA	NA	NA
2017/11/11 06:16:00	AWS2	9.42	219	11.11	223	M	M	M	NA	NA	984.9	NA	NA		M	NA	NA	NA	NA
2017/11/11 06:17:00	AWS2	9.26	216	11.11	223	M	M	M	NA	NA	984.9	NA	NA		M	NA	NA	NA	NA
2017/11/11 06:18:00	AWS2	9.05	216	11.11	223	M	M	M	NA	NA	984.0	NA	NA		M	NA	NA	NA	NA
2017/11/11 06:19:00	AWS2	9.25	215	11.11	223	M	M	M	NA	NA	984.8	NA	NA		M	NA	NA	NA	NA
2017/11/11 06:20:00	AWS2	9.71	216	11.11	223	M	M	M	NA	NA	984.9	NA	NA		M	NA	NA	NA	NA
2017/11/11 06:21:00	AWS2	9.25	216	11.11	223	M	M	M	NA	NA	984.8	NA	NA		M	NA	NA	NA	NA
2017/11/11 06:22:00	AWS2	8.54	217	11.11	223	M	M	M	NA	NA	985.0	NA	NA		M	NA	NA	NA	NA
2017/11/11 06:23:00	AWS2	9.16	217	11.11	223	M	M	M	NA	NA	984.5	NA	NA		M	NA	NA	NA	NA
2017/11/11 06:24:00	AWS2	9.06	218	11.11	223	M	M	M	NA	NA	984.8	NA	NA		M	NA	NA	NA	NA
2017/11/11 06:25:00	AWS2	7.91	220	11.01	216	M	M	M	NA	NA	985.0	NA	NA		M	NA	NA	NA	NA
2017/11/11 06:26:00	AWS2	7.90	221	11.01	216	M	M	M	NA	NA	985.2	NA	NA		M	NA	NA	NA	NA
2017/11/11 06:27:00	AWS2	9.01	224	12.09	222	M	M	M	NA	NA	984.7	NA	NA		M	NA	NA	NA	NA
2017/11/11 06:28:00	AWS2	9.37	222	12.09	222	M	M	M	NA	NA	984.8	NA	NA		M	NA	NA	NA	NA
2017/11/11 06:29:00	AWS2	8.27	217	12.09	222	M	M	M	NA	NA	985.0	NA	NA		M	NA	NA	NA	NA
2017/11/11 06:30:00	AWS2	7.74	219	12.09	222	M	M	M	NA	NA	984.8	NA	NA		M	NA	NA	NA	NA
2017/11/11 06:31:00	AWS2	8.87	218	12.09	222	M	M	M	NA	NA	985.0	NA	NA		M	NA	NA	NA	NA
2017/11/11 06:32:00	AWS2	8.70	217	12.09	222	M	M	M	NA	NA	985.6	NA	NA		M	NA	NA	NA	NA
2017/11/11 06:33:00	AWS2	7.04	221	12.09	222	M	M	M	NA	NA	985.0	NA	NA		M	NA	NA	NA	NA
2017/11/11 06:34:00	AWS2	7.55	223	12.09	222	M	M	M	NA	NA	985.0	NA	NA		M	NA	NA	NA	NA
2017/11/11 06:35:00	AWS2	8.60	224	12.09	222	M	M	M	NA	NA	985.3	NA	NA		M	NA	NA	NA	NA
2017/11/11 06:36:00	AWS2	8.44	221	12.09	222	M	M	M	NA	NA	985.3	NA	NA		M	NA	NA	NA	NA
2017/11/11 06:37:00	AWS2	7.80	220	11.16	214	M	M	M	NA	NA	984.4	NA	NA		M	NA	NA	NA	NA
2017/11/11 06:38:00	AWS2	7.74	225	10.96	214	M	M	M	NA	NA	985.2	NA	NA		M	NA	NA	NA	NA
2017/11/11 06:39:00	AWS2	8.75	225	11.01	228	M	M	M	NA	NA	985.5	NA	NA		M	NA	NA	NA	NA
2017/11/11 06:40:00	AWS2	8.41	225	11.01	228	M	M	M	NA	NA	985.7	NA	NA		M	NA	NA	NA	NA
2017/11/11 06:41:00	AWS2	8.20	227	11.01	228	M	M	M	NA	NA	984.7	NA	NA		M	NA	NA	NA	NA
2017/11/11 06:42:00	AWS2	8.76	224	11.01	228	M	M	M	NA	NA	984.9	NA	NA		M	NA	NA	NA	NA
2017/11/11 06:43:00	AWS2	8.75	223	11.01	228	M	M	M	NA	NA	985.0	NA	NA		M	NA	NA	NA	NA
2017/11/11 06:44:00	AWS2	8.59	224	11.01	228	M	M	M	NA	NA	985.6	NA	NA		M	NA	NA	NA	NA
2017/11/11 06:45:00	AWS2	8.23	219	11.01	228	M	M	M	NA	NA	985.2	NA	NA		M	NA	NA	NA	NA
2017/11/11 06:46:00	AWS2	7.84	216	11.01	228	M	M	M	NA	NA	985.1	NA	NA		M	NA	NA	NA	NA
2017/11/11 06:47:00	AWS2	7.78	219	11.01	228	M	M	M	NA	NA	985.1	NA	NA		M	NA	NA	NA	NA
2017/11/11 06:48:00	AWS2	7.72	220	11.01	228	M	M	M	NA	NA	985.2	NA	NA		M	NA	NA	NA	NA
2017/11/11 06:49:00	AWS2	7.60	219	10.39	221	M	M	M	NA	NA	985.5	NA	NA		M	NA	NA	NA	NA
2017/11/11 06:50:00	AWS2	7.58	220	10.39	221	M	M	M	NA	NA	985.1	NA	NA		M	NA	NA	NA	NA
2017/11/11 06:51:00	AWS2	7.93	221	10.39	221	M	M	M	NA	NA	984.7	NA	NA		M	NA	NA	NA	NA
2017/11/11 06:52:00	AWS2	8.38	222	10.24	230	M	M	M	NA	NA	985.0	NA	NA		M	NA	NA	NA	NA
2017/11/11 06:53:00	AWS2	8.28	220	9.93	217	M	M	M	NA	NA	985.3	NA	NA		M	NA	NA	NA	NA
2017/11/11 06:54:00	AWS2	8.25	216	9.72	215	M	M	M	NA	NA	985.4	NA	NA		M	NA	NA	NA	NA
2017/11/11 06:55:00	AWS2	9.17	215	11.99	218	M	M	M	NA	NA	984.6	NA	NA		M	NA	NA	NA	NA
2017/11/11 06:56:00	AWS2	9.96	217	11.99	218	M	M	M	NA	NA	984.5	NA	NA		M	NA	NA	NA	NA
2017/11/11 06:57:00	AWS2	9.65	218	11.99	218	M	M	M	NA	NA	985.2	NA	NA		M	NA	NA	NA	NA
2017/11/11 06:58:00	AWS2	8.74	217	11.99	218	M	M	M	NA	NA	984.8	NA	NA		M	NA	NA	NA	NA
2017/11/11 06:59:00	AWS2	8.00	219	11.99	218	M	M	M	NA	NA	984.8	NA	NA		M	NA	NA	NA	NA
2017/11/11 07:00:00	AWS2	8.25	220	11.99	218	M	M	M	NA	NA	984.8	NA	NA		M	NA	NA	NA	NA
2017/11/11 07:01:00	AWS2	8.81	219	11.99	218	M	M	M	NA	NA	984.9	NA	NA		M	NA	NA	NA	NA
2017/11/11 07:02:00	AWS2	8.85	221	11.99	218	M	M	M	NA	NA	985.2	NA	NA		M	NA	NA	NA	NA
2017/11/11 07:03:00	AWS2	8.71	224	11.99	218	M	M	M	NA	NA	985.0	NA	NA		M	NA	NA	NA	NA
2017/11/11 07:04:00	AWS2	8.85	224	11.99	218	M	M	M	NA	NA	985.1	NA	NA		M	NA	NA	NA	NA
2017/11/11 07:05:00	AWS2	8.58	222	10.80	215	M	M	M	NA	NA	985.3	NA	NA		M	NA	NA	NA	NA
2017/11/11 07:06:00	AWS2	8.72	221	10.55	218	M	M	M	NA	NA	985.1	NA	NA		M	NA	NA	NA	NA
2017/11/11 07:07:00	AWS2	9.29	220	10.55	218	M	M	M	NA	NA	984.6	NA	NA		M	NA	NA	NA	NA
2017/11/11 07:08:00	AWS2	9.07	223	10.55	218	M	M	M	NA	NA	984.9	NA	NA		M	NA	NA	NA	NA
2017/11/11 07:09:00	AWS2	8.63	224	10.55	218	M	M	M	NA	NA	984.8	NA	NA		M	NA	NA	NA	NA
2017/11/11 07:10:00	AWS2	8.69	225	10.60	225	M	M	M	NA	NA	985.6	NA	NA		M	NA	NA	NA	NA
2017/11/11 07:11:00	AWS2	8.97	222	10.60	225	M	M	M	NA	NA	985.1	NA	NA		M	NA	NA	NA	NA
2017/11/11 07:12:00	AWS2	8.72	220	10.60	225	M	M	M	NA	NA	984.8	NA	NA		M	NA	NA	NA	NA
2017/11/11 07:13:00	AWS2	7.82	221	10.60	225	M	M	M	NA	NA	985.4	NA	NA		M	NA	NA	NA	NA
2017/11/11 07:14:00	AWS2	7.72	222	10.60	225	M	M	M	NA	NA	985.3	NA	NA		M	NA	NA	NA	NA
2017/11/11 07:15:00	AWS2	8.32	223	10.60	225	M	M	M	NA	NA	984.9	NA	NA		M	NA	NA	NA	NA
2017/11/11 07:16:00	AWS2	8.31	222	10.60	225	M	M	M	NA	NA	984.8	NA	NA		M	NA	NA	NA	NA
2017/11/11 07:17:00	AWS2	8.53	221	10.60	225	M	M	M	NA	NA	985.1	NA	NA		M	NA	NA	NA	NA
2017/11/11 07:18:00	AWS2	8.43	220	10.60	225	M	M	M	NA	NA	985.9	NA	NA		M	NA	NA	NA	NA
2017/11/11 07:19:00	AWS2	8.24	221	10.60	225	M	M	M	NA	NA	984.9	NA	NA		M	NA	NA	NA	NA
2017/11/11 07:20:00	AWS2	8.33	219	10.49	218	M	M	M	NA	NA	985.0	NA	NA		M	NA	NA	NA	NA
2017/11/11 07:21:00	AWS2	8.23	215	10.24	213	M	M	M	NA	NA	985.1	NA	NA		M	NA	NA	NA	NA
2017/11/11 07:22:00	AWS2	8.32	214	10.24	213	M	M	M	NA	NA	985.0	NA	NA		M	NA	NA	NA	NA
2017/11/11 07:23:00	AWS2	8.58	216	10.65	214	M	M	M	NA	NA	985.2	NA	NA		M	NA	NA	NA	NA
2017/11/11 07:24:00	AWS2	8.96	217	10.65	214	M	M	M	NA	NA	985.3	NA	NA		M	NA	NA	NA	NA
2017/11/11 07:25:00	AWS2	9.66	215	11.57	222	M	M	M	NA	NA	985.0	NA	NA		M	NA	NA	NA	NA
2017/11/11 07:26:00	AWS2	9.77	213	11.57	222	M	M	M	NA	NA	985.1	NA	NA		M	NA	NA	NA	NA
2017/11/11 07:27:00	AWS2	9.16	216	11.57	222	M	M	M	NA	NA	985.1	NA	NA		M	NA	NA	NA	NA
2017/11/11 07:28:00	AWS2	9.00	220	11.57	222	M	M	M	NA	NA	985.4	NA	NA		M	NA	NA	NA	NA
2017/11/11 07:29:00	AWS2	9.43	218	11.57	222	M	M	M	NA	NA	985.3	NA	NA		M	NA	NA	NA	NA
2017/11/11 07:30:00	AWS2	9.28	216	11.57	222	M	M	M	NA	NA	985.3	NA	NA		M	NA	NA	NA	NA
2017/11/11 07:31:00	AWS2	9.00	217	11.57	222	M	M	M	NA	NA	985.1	NA	NA		M	NA	NA	NA	NA
2017/11/11 07:32:00	AWS2	9.18	215	11.57	222	M	M	M	NA	NA	985.4	NA	NA		M	NA	NA	NA	NA
2017/11/11 07:33:00	AWS2	8.34	212	11.57	222	M	M	M	NA	NA	985.4	NA	NA		M	NA	NA	NA	NA
2017/11/11 07:34:00	AWS2	8.13	213	11.57	222	M	M	M	NA	NA	985.4	NA	NA		M	NA	NA	NA	NA
2017/11/11 07:35:00	AWS2	8.41	218	11.52	221	M	M	M	NA	NA	984.9	NA	NA		M	NA	NA	NA	NA
2017/11/11 07:36:00	AWS2	8.05	219	11.52	221	M	M	M	NA	NA	985.6	NA	NA		M	NA	NA	NA	NA
2017/11/11 07:37:00	AWS2	8.44	217	10.65	219	M	M	M	NA	NA	985.6	NA	NA		M	NA	NA	NA	NA
2017/11/11 07:38:00	AWS2	8.48	219	10.65	219	M	M	M	NA	NA	985.5	NA	NA		M	NA	NA	NA	NA
2017/11/11 07:39:00	AWS2	7.57	219	10.60	210	M	M	M	NA	NA	985.7	NA	NA		M	NA	NA	NA	NA
2017/11/11 07:40:00	AWS2	7.20	217	10.60	210	M	M	M	NA	NA	986.2	NA	NA		M	NA	NA	NA	NA
2017/11/11 07:41:00	AWS2	7.89	217	10.29	225	M	M	M	NA	NA	984.9	NA	NA		M	NA	NA	NA	NA
2017/11/11 07:42:00	AWS2	8.30	218	10.08	233	M	M	M	NA	NA	986.2	NA	NA		M	NA	NA	NA	NA
2017/11/11 07:43:00	AWS2	6.95	218	10.08	233	M	M	M	NA	NA	986.2	NA	NA		M	NA	NA	NA	NA
2017/11/11 07:44:00	AWS2	6.17	221	10.08	233	M	M	M	NA	NA	985.8	NA	NA		M	NA	NA	NA	NA
2017/11/11 07:45:00	AWS2	6.49	217	10.08	233	M	M	M	NA	NA	986.1	NA	NA		M	NA	NA	NA	NA
2017/11/11 07:46:00	AWS2	7.01	217	10.08	233	M	M	M	NA	NA	985.5	NA	NA		M	NA	NA	NA	NA
2017/11/11 07:47:00	AWS2	7.06	220	10.08	233	M	M	M	NA	NA	985.4	NA	NA		M	NA	NA	NA	NA
2017/11/11 07:48:00	AWS2	6.56	215	10.08	233	M	M	M	NA	NA	985.1	NA	NA		M	NA	NA	NA	NA
2017/11/11 07:49:00	AWS2	6.38	211	10.08	233	M	M	M	NA	NA	985.7	NA	NA		M	NA	NA	NA	NA
2017/11/11 07:50:00	AWS2	7.13	213	10.08	233	M	M	M	NA	NA	985.1	NA	NA		M	NA	NA	NA	NA
2017/11/11 07:51:00	AWS2	7.92	214	9.62	218	M	M	M	NA	NA	985.5	NA	NA		M	NA	NA	NA	NA
2017/11/11 07:52:00	AWS2	8.30	212	10.60	207	M	M	M	NA	NA	985.3	NA	NA		M	NA	NA	NA	NA
2017/11/11 07:53:00	AWS2	8.93	213	10.60	207	M	M	M	NA	NA	985.6	NA	NA		M	NA	NA	NA	NA
2017/11/11 07:54:00	AWS2	8.76	212	10.60	207	M	M	M	NA	NA	985.5	NA	NA		M	NA	NA	NA	NA
2017/11/11 07:55:00	AWS2	8.56	210	10.60	207	M	M	M	NA	NA	985.3	NA	NA		M	NA	NA	NA	NA
2017/11/11 07:56:00	AWS2	8.48	210	10.60	207	M	M	M	NA	NA	985.7	NA	NA		M	NA	NA	NA	NA
2017/11/11 07:57:00	AWS2	8.15	212	10.60	207	M	M	M	NA	NA	985.7	NA	NA		M	NA	NA	NA	NA
2017/11/11 07:58:00	AWS2	7.49	211	10.60	207	M	M	M	NA	NA	985.6	NA	NA		M	NA	NA	NA	NA
2017/11/11 07:59:00	AWS2	6.89	210	10.60	207	M	M	M	NA	NA	985.4	NA	NA		M	NA	NA	NA	NA
2017/11/11 08:00:00	AWS2	6.81	217	10.60	207	M	M	M	NA	NA	985.5	NA	NA		M	NA	NA	NA	NA
2017/11/11 08:01:00	AWS2	7.50	220	10.60	207	M	M	M	NA	NA	985.4	NA	NA		M	NA	NA	NA	NA
2017/11/11 08:02:00	AWS2	8.46	213	10.44	206	M	M	M	NA	NA	985.4	NA	NA		M	NA	NA	NA	NA
2017/11/11 08:03:00	AWS2	8.63	210	10.44	206	M	M	M	NA	NA	984.9	NA	NA		M	NA	NA	NA	NA
2017/11/11 08:04:00	AWS2	8.26	210	10.19	197	M	M	M	NA	NA	985.9	NA	NA		M	NA	NA	NA	NA
2017/11/11 08:05:00	AWS2	8.48	211	10.19	197	M	M	M	NA	NA	985.2	NA	NA		M	NA	NA	NA	NA
2017/11/11 08:06:00	AWS2	9.27	214	10.65	215	M	M	M	NA	NA	984.5	NA	NA		M	NA	NA	NA	NA
2017/11/11 08:07:00	AWS2	9.76	215	10.65	211	M	M	M	NA	NA	984.8	NA	NA		M	NA	NA	NA	NA
2017/11/11 08:08:00	AWS2	9.83	215	10.85	215	M	M	M	NA	NA	984.9	NA	NA		M	NA	NA	NA	NA
2017/11/11 08:09:00	AWS2	9.11	216	10.85	215	M	M	M	NA	NA	985.2	NA	NA		M	NA	NA	NA	NA
2017/11/11 08:10:00	AWS2	7.97	215	10.85	215	M	M	M	NA	NA	985.2	NA	NA		M	NA	NA	NA	NA
2017/11/11 08:11:00	AWS2	7.78	211	10.85	215	M	M	M	NA	NA	984.7	NA	NA		M	NA	NA	NA	NA
2017/11/11 08:12:00	AWS2	8.03	210	10.85	215	M	M	M	NA	NA	985.4	NA	NA		M	NA	NA	NA	NA
2017/11/11 08:13:00	AWS2	7.99	213	10.85	215	M	M	M	NA	NA	985.6	NA	NA		M	NA	NA	NA	NA
2017/11/11 08:14:00	AWS2	7.63	217	10.85	215	M	M	M	NA	NA	985.2	NA	NA		M	NA	NA	NA	NA
2017/11/11 08:15:00	AWS2	7.59	217	10.85	215	M	M	M	NA	NA	985.5	NA	NA		M	NA	NA	NA	NA
2017/11/11 08:16:00	AWS2	7.50	213	10.85	215	M	M	M	NA	NA	985.5	NA	NA		M	NA	NA	NA	NA
2017/11/11 08:17:00	AWS2	7.28	212	10.85	215	M	M	M	NA	NA	985.2	NA	NA		M	NA	NA	NA	NA
2017/11/11 08:18:00	AWS2	6.96	211	10.08	212	M	M	M	NA	NA	985.9	NA	NA		M	NA	NA	NA	NA
2017/11/11 08:19:00	AWS2	6.44	211	10.08	212	M	M	M	NA	NA	985.6	NA	NA		M	NA	NA	NA	NA
2017/11/11 08:20:00	AWS2	6.72	214	10.08	212	M	M	M	NA	NA	985.3	NA	NA		M	NA	NA	NA	NA
2017/11/11 08:21:00	AWS2	6.79	218	9.57	213	M	M	M	NA	NA	985.9	NA	NA		M	NA	NA	NA	NA
2017/11/11 08:22:00	AWS2	6.32	220	9.57	213	M	M	M	NA	NA	985.6	NA	NA		M	NA	NA	NA	NA
2017/11/11 08:23:00	AWS2	6.36	214	9.57	213	M	M	M	NA	NA	985.6	NA	NA		M	NA	NA	NA	NA
2017/11/11 08:24:00	AWS2	6.67	212	9.57	213	M	M	M	NA	NA	985.2	NA	NA		M	NA	NA	NA	NA
2017/11/11 08:25:00	AWS2	7.13	213	9.57	213	M	M	M	NA	NA	985.8	NA	NA		M	NA	NA	NA	NA
2017/11/11 08:26:00	AWS2	7.43	213	9.57	213	M	M	M	NA	NA	985.7	NA	NA		M	NA	NA	NA	NA
2017/11/11 08:27:00	AWS2	7.45	214	8.75	200	M	M	M	NA	NA	985.1	NA	NA		M	NA	NA	NA	NA
2017/11/11 08:28:00	AWS2	7.60	215	8.75	200	M	M	M	NA	NA	985.3	NA	NA		M	NA	NA	NA	NA
2017/11/11 08:29:00	AWS2	7.55	215	8.75	200	M	M	M	NA	NA	985.9	NA	NA		M	NA	NA	NA	NA
2017/11/11 08:30:00	AWS2	8.19	214	9.62	222	M	M	M	NA	NA	985.5	NA	NA		M	NA	NA	NA	NA
2017/11/11 08:31:00	AWS2	8.97	210	10.03	205	M	M	M	NA	NA	985.3	NA	NA		M	NA	NA	NA	NA
2017/11/11 08:32:00	AWS2	8.12	207	10.03	205	M	M	M	NA	NA	985.5	NA	NA		M	NA	NA	NA	NA
2017/11/11 08:33:00	AWS2	7.49	207	10.03	205	M	M	M	NA	NA	985.5	NA	NA		M	NA	NA	NA	NA
2017/11/11 08:34:00	AWS2	7.55	208	10.03	205	M	M	M	NA	NA	985.7	NA	NA		M	NA	NA	NA	NA
2017/11/11 08:35:00	AWS2	7.72	210	10.03	205	M	M	M	NA	NA	985.5	NA	NA		M	NA	NA	NA	NA
2017/11/11 08:36:00	AWS2	8.38	208	10.03	205	M	M	M	NA	NA	985.9	NA	NA		M	NA	NA	NA	NA
2017/11/11 08:37:00	AWS2	8.59	208	10.03	205	M	M	M	NA	NA	985.6	NA	NA		M	NA	NA	NA	NA
2017/11/11 08:38:00	AWS2	8.20	210	10.03	205	M	M	M	NA	NA	985.5	NA	NA		M	NA	NA	NA	NA
2017/11/11 08:39:00	AWS2	7.38	212	10.03	205	M	M	M	NA	NA	985.5	NA	NA		M	NA	NA	NA	NA
2017/11/11 08:40:00	AWS2	6.88	212	10.03	205	M	M	M	NA	NA	985.4	NA	NA		M	NA	NA	NA	NA
2017/11/11 08:41:00	AWS2	6.46	211	9.98	212	M	M	M	NA	NA	985.7	NA	NA		M	NA	NA	NA	NA
2017/11/11 08:42:00	AWS2	6.22	211	9.98	212	M	M	M	NA	NA	985.7	NA	NA		M	NA	NA	NA	NA
2017/11/11 08:43:00	AWS2	6.63	216	9.98	212	M	M	M	NA	NA	985.8	NA	NA		M	NA	NA	NA	NA
2017/11/11 08:44:00	AWS2	6.50	222	9.98	212	M	M	M	NA	NA	985.8	NA	NA		M	NA	NA	NA	NA
2017/11/11 08:45:00	AWS2	6.44	222	9.98	212	M	M	M	NA	NA	985.7	NA	NA		M	NA	NA	NA	NA
2017/11/11 08:46:00	AWS2	7.13	222	9.98	212	M	M	M	NA	NA	985.3	NA	NA		M	NA	NA	NA	NA
2017/11/11 08:47:00	AWS2	7.94	222	9.21	221	M	M	M	NA	NA	985.2	NA	NA		M	NA	NA	NA	NA
2017/11/11 08:48:00	AWS2	7.91	220	9.21	221	M	M	M	NA	NA	985.5	NA	NA		M	NA	NA	NA	NA
2017/11/11 08:49:00	AWS2	7.25	219	9.21	221	M	M	M	NA	NA	985.4	NA	NA		M	NA	NA	NA	NA
2017/11/11 08:50:00	AWS2	6.98	216	9.21	221	M	M	M	NA	NA	986.1	NA	NA		M	NA	NA	NA	NA
2017/11/11 08:51:00	AWS2	6.68	212	9.21	221	M	M	M	NA	NA	985.4	NA	NA		M	NA	NA	NA	NA
2017/11/11 08:52:00	AWS2	6.04	212	9.21	221	M	M	M	NA	NA	985.5	NA	NA		M	NA	NA	NA	NA
2017/11/11 08:53:00	AWS2	6.38	214	9.21	221	M	M	M	NA	NA	985.6	NA	NA		M	NA	NA	NA	NA
2017/11/11 08:54:00	AWS2	7.20	209	9.21	221	M	M	M	NA	NA	985.7	NA	NA		M	NA	NA	NA	NA
2017/11/11 08:55:00	AWS2	6.84	203	9.21	221	M	M	M	NA	NA	985.7	NA	NA		M	NA	NA	NA	NA
2017/11/11 08:56:00	AWS2	5.95	204	9.21	221	M	M	M	NA	NA	985.7	NA	NA		M	NA	NA	NA	NA
2017/11/11 08:57:00	AWS2	4.94	207	8.28	220	M	M	M	NA	NA	985.6	NA	NA		M	NA	NA	NA	NA
2017/11/11 08:58:00	AWS2	4.90	212	8.13	204	M	M	M	NA	NA	985.7	NA	NA		M	NA	NA	NA	NA
2017/11/11 08:59:00	AWS2	5.21	215	8.13	204	M	M	M	NA	NA	985.2	NA	NA		M	NA	NA	NA	NA
2017/11/11 09:00:00	AWS2	5.78	217	8.18	214	M	M	M	NA	NA	985.6	NA	NA		M	NA	NA	NA	NA
2017/11/11 09:01:00	AWS2	6.53	216	8.18	214	M	M	M	NA	NA	985.6	NA	NA		M	NA	NA	NA	NA
2017/11/11 09:02:00	AWS2	6.62	213	8.18	214	M	M	M	NA	NA	985.3	NA	NA		M	NA	NA	NA	NA
2017/11/11 09:03:00	AWS2	6.48	211	8.18	214	M	M	M	NA	NA	985.6	NA	NA		M	NA	NA	NA	NA
2017/11/11 09:04:00	AWS2	6.10	212	8.18	214	M	M	M	NA	NA	985.4	NA	NA		M	NA	NA	NA	NA
2017/11/11 09:05:00	AWS2	6.15	214	8.18	214	M	M	M	NA	NA	985.6	NA	NA		M	NA	NA	NA	NA
2017/11/11 09:06:00	AWS2	6.05	214	8.18	214	M	M	M	NA	NA	985.7	NA	NA		M	NA	NA	NA	NA
2017/11/11 09:07:00	AWS2	6.30	211	8.18	214	M	M	M	NA	NA	985.6	NA	NA		M	NA	NA	NA	NA
2017/11/11 09:08:00	AWS2	6.68	208	8.18	214	M	M	M	NA	NA	985.7	NA	NA		M	NA	NA	NA	NA
2017/11/11 09:09:00	AWS2	6.38	211	8.18	214	M	M	M	NA	NA	985.4	NA	NA		M	NA	NA	NA	NA
2017/11/11 09:10:00	AWS2	5.93	214	8.03	204	M	M	M	NA	NA	985.4	NA	NA		M	NA	NA	NA	NA
2017/11/11 09:11:00	AWS2	5.91	213	8.03	204	M	M	M	NA	NA	985.8	NA	NA		M	NA	NA	NA	NA
2017/11/11 09:12:00	AWS2	6.67	209	8.18	208	M	M	M	NA	NA	985.4	NA	NA		M	NA	NA	NA	NA
2017/11/11 09:13:00	AWS2	6.99	208	8.18	208	M	M	M	NA	NA	985.7	NA	NA		M	NA	NA	NA	NA
2017/11/11 09:14:00	AWS2	6.71	209	8.18	208	M	M	M	NA	NA	986.4	NA	NA		M	NA	NA	NA	NA
2017/11/11 09:15:00	AWS2	6.76	210	8.18	208	M	M	M	NA	NA	985.7	NA	NA		M	NA	NA	NA	NA
2017/11/11 09:16:00	AWS2	6.50	212	8.18	208	M	M	M	NA	NA	985.5	NA	NA		M	NA	NA	NA	NA
2017/11/11 09:17:00	AWS2	5.54	213	8.18	208	M	M	M	NA	NA	985.4	NA	NA		M	NA	NA	NA	NA
2017/11/11 09:18:00	AWS2	4.79	213	8.18	208	M	M	M	NA	NA	985.7	NA	NA		M	NA	NA	NA	NA
2017/11/11 09:19:00	AWS2	4.68	215	8.18	208	M	M	M	NA	NA	986.0	NA	NA		M	NA	NA	NA	NA
2017/11/11 09:20:00	AWS2	4.85	217	8.18	208	M	M	M	NA	NA	985.8	NA	NA		M	NA	NA	NA	NA
2017/11/11 09:21:00	AWS2	5.49	215	8.18	208	M	M	M	NA	NA	985.8	NA	NA		M	NA	NA	NA	NA
2017/11/11 09:22:00	AWS2	6.10	211	7.72	219	M	M	M	NA	NA	985.6	NA	NA		M	NA	NA	NA	NA
2017/11/11 09:23:00	AWS2	6.00	214	7.72	219	M	M	M	NA	NA	985.7	NA	NA		M	NA	NA	NA	NA
2017/11/11 09:24:00	AWS2	5.98	218	7.72	219	M	M	M	NA	NA	985.6	NA	NA		M	NA	NA	NA	NA
2017/11/11 09:25:00	AWS2	5.91	215	7.00	218	M	M	M	NA	NA	985.7	NA	NA		M	NA	NA	NA	NA
2017/11/11 09:26:00	AWS2	5.59	219	7.00	218	M	M	M	NA	NA	985.9	NA	NA		M	NA	NA	NA	NA
2017/11/11 09:27:00	AWS2	5.76	219	7.00	218	M	M	M	NA	NA	985.7	NA	NA		M	NA	NA	NA	NA
2017/11/11 09:28:00	AWS2	6.31	217	7.41	222	M	M	M	NA	NA	985.5	NA	NA		M	NA	NA	NA	NA
2017/11/11 09:29:00	AWS2	6.28	218	7.41	222	M	M	M	NA	NA	985.6	NA	NA		M	NA	NA	NA	NA
2017/11/11 09:30:00	AWS2	5.96	217	7.41	222	M	M	M	NA	NA	985.6	NA	NA		M	NA	NA	NA	NA
2017/11/11 09:31:00	AWS2	5.87	215	7.41	222	M	M	M	NA	NA	985.4	NA	NA		M	NA	NA	NA	NA
2017/11/11 09:32:00	AWS2	5.82	212	7.41	222	M	M	M	NA	NA	985.8	NA	NA		M	NA	NA	NA	NA
2017/11/11 09:33:00	AWS2	5.72	211	7.41	222	M	M	M	NA	NA	985.9	NA	NA		M	NA	NA	NA	NA
2017/11/11 09:34:00	AWS2	6.16	212	7.72	210	M	M	M	NA	NA	985.7	NA	NA		M	NA	NA	NA	NA
2017/11/11 09:35:00	AWS2	6.40	211	7.82	212	M	M	M	NA	NA	985.8	NA	NA		M	NA	NA	NA	NA
2017/11/11 09:36:00	AWS2	5.90	211	7.82	212	M	M	M	NA	NA	985.7	NA	NA		M	NA	NA	NA	NA
2017/11/11 09:37:00	AWS2	5.40	214	7.82	212	M	M	M	NA	NA	985.5	NA	NA		M	NA	NA	NA	NA
2017/11/11 09:38:00	AWS2	5.14	215	7.82	212	M	M	M	NA	NA	985.7	NA	NA		M	NA	NA	NA	NA
2017/11/11 09:39:00	AWS2	5.05	216	7.82	212	M	M	M	NA	NA	985.6	NA	NA		M	NA	NA	NA	NA
2017/11/11 09:40:00	AWS2	4.89	215	7.82	212	M	M	M	NA	NA	985.4	NA	NA		M	NA	NA	NA	NA
2017/11/11 09:41:00	AWS2	4.80	216	7.82	212	M	M	M	NA	NA	985.9	NA	NA		M	NA	NA	NA	NA
2017/11/11 09:42:00	AWS2	4.87	222	7.82	212	M	M	M	NA	NA	985.7	NA	NA		M	NA	NA	NA	NA
2017/11/11 09:43:00	AWS2	5.55	227	7.82	212	M	M	M	NA	NA	985.5	NA	NA		M	NA	NA	NA	NA
2017/11/11 09:44:00	AWS2	6.33	226	7.82	212	M	M	M	NA	NA	985.4	NA	NA		M	NA	NA	NA	NA
2017/11/11 09:45:00	AWS2	6.56	221	7.61	217	M	M	M	NA	NA	985.5	NA	NA		M	NA	NA	NA	NA
2017/11/11 09:46:00	AWS2	6.26	217	7.61	217	M	M	M	NA	NA	985.6	NA	NA		M	NA	NA	NA	NA
2017/11/11 09:47:00	AWS2	6.38	216	7.61	217	M	M	M	NA	NA	985.5	NA	NA		M	NA	NA	NA	NA
2017/11/11 09:48:00	AWS2	6.48	218	7.61	217	M	M	M	NA	NA	985.6	NA	NA		M	NA	NA	NA	NA
2017/11/11 09:49:00	AWS2	5.83	221	7.61	217	M	M	M	NA	NA	985.8	NA	NA		M	NA	NA	NA	NA
2017/11/11 09:50:00	AWS2	5.71	220	7.61	217	M	M	M	NA	NA	985.4	NA	NA		M	NA	NA	NA	NA
2017/11/11 09:51:00	AWS2	5.89	224	7.61	217	M	M	M	NA	NA	985.7	NA	NA		M	NA	NA	NA	NA
2017/11/11 09:52:00	AWS2	6.10	227	7.61	217	M	M	M	NA	NA	985.3	NA	NA		M	NA	NA	NA	NA
2017/11/11 09:53:00	AWS2	6.58	224	8.39	223	M	M	M	NA	NA	985.7	NA	NA		M	NA	NA	NA	NA
2017/11/11 09:54:00	AWS2	6.76	222	8.39	223	M	M	M	NA	NA	985.5	NA	NA		M	NA	NA	NA	NA
2017/11/11 09:55:00	AWS2	6.94	221	8.39	223	M	M	M	NA	NA	985.5	NA	NA		M	NA	NA	NA	NA
2017/11/11 09:56:00	AWS2	7.37	224	8.64	230	M	M	M	NA	NA	985.6	NA	NA		M	NA	NA	NA	NA
2017/11/11 09:57:00	AWS2	7.29	228	8.64	230	M	M	M	NA	NA	985.4	NA	NA		M	NA	NA	NA	NA
2017/11/11 09:58:00	AWS2	7.39	225	8.64	230	M	M	M	NA	NA	985.0	NA	NA		M	NA	NA	NA	NA
2017/11/11 09:59:00	AWS2	7.53	222	8.64	230	M	M	M	NA	NA	986.1	NA	NA		M	NA	NA	NA	NA
2017/11/11 10:00:00	AWS2	7.41	216	8.64	203	M	M	M	NA	NA	985.3	NA	NA		M	NA	NA	NA	NA
2017/11/11 10:01:00	AWS2	7.08	212	8.64	203	M	M	M	NA	NA	985.2	NA	NA		M	NA	NA	NA	NA
2017/11/11 10:02:00	AWS2	6.66	210	8.64	203	M	M	M	NA	NA	985.7	NA	NA		M	NA	NA	NA	NA
2017/11/11 10:03:00	AWS2	6.48	207	8.64	203	M	M	M	NA	NA	985.6	NA	NA		M	NA	NA	NA	NA
2017/11/11 10:04:00	AWS2	6.39	206	8.64	203	M	M	M	NA	NA	985.5	NA	NA		M	NA	NA	NA	NA
2017/11/11 10:05:00	AWS2	6.13	208	8.64	203	M	M	M	NA	NA	985.2	NA	NA		M	NA	NA	NA	NA
2017/11/11 10:06:00	AWS2	6.37	209	8.64	203	M	M	M	NA	NA	985.3	NA	NA		M	NA	NA	NA	NA
2017/11/11 10:07:00	AWS2	6.44	209	8.64	203	M	M	M	NA	NA	984.8	NA	NA		M	NA	NA	NA	NA
2017/11/11 10:08:00	AWS2	6.04	207	8.64	203	M	M	M	NA	NA	985.0	NA	NA		M	NA	NA	NA	NA
2017/11/11 10:09:00	AWS2	5.68	209	8.64	203	M	M	M	NA	NA	985.3	NA	NA		M	NA	NA	NA	NA
2017/11/11 10:10:00	AWS2	5.49	215	7.67	212	M	M	M	NA	NA	985.2	NA	NA		M	NA	NA	NA	NA
2017/11/11 10:11:00	AWS2	5.78	215	7.67	212	M	M	M	NA	NA	985.6	NA	NA		M	NA	NA	NA	NA
2017/11/11 10:12:00	AWS2	5.66	211	7.67	212	M	M	M	NA	NA	985.7	NA	NA		M	NA	NA	NA	NA
2017/11/11 10:13:00	AWS2	5.52	212	7.67	212	M	M	M	NA	NA	985.1	NA	NA		M	NA	NA	NA	NA
2017/11/11 10:14:00	AWS2	5.25	213	7.67	212	M	M	M	NA	NA	985.8	NA	NA		M	NA	NA	NA	NA
2017/11/11 10:15:00	AWS2	5.02	216	7.67	212	M	M	M	NA	NA	985.7	NA	NA		M	NA	NA	NA	NA
2017/11/11 10:16:00	AWS2	5.12	218	6.89	210	M	M	M	NA	NA	985.5	NA	NA		M	NA	NA	NA	NA
2017/11/11 10:17:00	AWS2	4.72	218	6.89	210	M	M	M	NA	NA	985.5	NA	NA		M	NA	NA	NA	NA
2017/11/11 10:18:00	AWS2	4.68	217	6.58	217	M	M	M	NA	NA	985.4	NA	NA		M	NA	NA	NA	NA
2017/11/11 10:19:00	AWS2	5.35	216	6.58	217	M	M	M	NA	NA	985.4	NA	NA		M	NA	NA	NA	NA
2017/11/11 10:20:00	AWS2	5.21	212	6.58	217	M	M	M	NA	NA	986.2	NA	NA		M	NA	NA	NA	NA
2017/11/11 10:21:00	AWS2	4.81	209	6.58	217	M	M	M	NA	NA	986.1	NA	NA		M	NA	NA	NA	NA
2017/11/11 10:22:00	AWS2	5.45	211	6.79	208	M	M	M	NA	NA	985.9	NA	NA		M	NA	NA	NA	NA
2017/11/11 10:23:00	AWS2	5.73	213	6.79	208	M	M	M	NA	NA	985.6	NA	NA		M	NA	NA	NA	NA
2017/11/11 10:24:00	AWS2	5.50	214	6.79	208	M	M	M	NA	NA	985.4	NA	NA		M	NA	NA	NA	NA
2017/11/11 10:25:00	AWS2	6.05	215	7.72	211	M	M	M	NA	NA	985.3	NA	NA		M	NA	NA	NA	NA
2017/11/11 10:26:00	AWS2	6.48	216	7.72	211	M	M	M	NA	NA	985.2	NA	NA		M	NA	NA	NA	NA
2017/11/11 10:27:00	AWS2	6.22	213	7.72	211	M	M	M	NA	NA	985.7	NA	NA		M	NA	NA	NA	NA
2017/11/11 10:28:00	AWS2	6.09	213	7.72	211	M	M	M	NA	NA	985.3	NA	NA		M	NA	NA	NA	NA
2017/11/11 10:29:00	AWS2	5.73	218	7.72	211	M	M	M	NA	NA	985.4	NA	NA		M	NA	NA	NA	NA
2017/11/11 10:30:00	AWS2	5.46	217	7.72	211	M	M	M	NA	NA	985.8	NA	NA		M	NA	NA	NA	NA
2017/11/11 10:31:00	AWS2	5.55	214	7.72	211	M	M	M	NA	NA	985.5	NA	NA		M	NA	NA	NA	NA
2017/11/11 10:32:00	AWS2	5.46	212	7.72	211	M	M	M	NA	NA	985.3	NA	NA		M	NA	NA	NA	NA
2017/11/11 10:33:00	AWS2	5.43	209	7.72	211	M	M	M	NA	NA	985.9	NA	NA		M	NA	NA	NA	NA
2017/11/11 10:34:00	AWS2	5.23	212	7.72	211	M	M	M	NA	NA	985.9	NA	NA		M	NA	NA	NA	NA
2017/11/11 10:35:00	AWS2	5.31	216	7.31	218	M	M	M	NA	NA	985.6	NA	NA		M	NA	NA	NA	NA
2017/11/11 10:36:00	AWS2	5.20	216	6.84	218	M	M	M	NA	NA	986.1	NA	NA		M	NA	NA	NA	NA
2017/11/11 10:37:00	AWS2	5.14	218	6.84	218	M	M	M	NA	NA	985.6	NA	NA		M	NA	NA	NA	NA
2017/11/11 10:38:00	AWS2	5.28	223	6.38	220	M	M	M	NA	NA	985.5	NA	NA		M	NA	NA	NA	NA
2017/11/11 10:39:00	AWS2	4.95	225	6.38	220	M	M	M	NA	NA	985.7	NA	NA		M	NA	NA	NA	NA
2017/11/11 10:40:00	AWS2	4.58	227	6.38	220	M	M	M	NA	NA	985.5	NA	NA		M	NA	NA	NA	NA
2017/11/11 10:41:00	AWS2	4.44	225	6.38	220	M	M	M	NA	NA	985.9	NA	NA		M	NA	NA	NA	NA
2017/11/11 10:42:00	AWS2	5.14	216	7.25	209	M	M	M	NA	NA	985.7	NA	NA		M	NA	NA	NA	NA
2017/11/11 10:43:00	AWS2	5.66	213	7.25	209	M	M	M	NA	NA	985.9	NA	NA		M	NA	NA	NA	NA
2017/11/11 10:44:00	AWS2	5.76	214	7.25	209	M	M	M	NA	NA	985.6	NA	NA		M	NA	NA	NA	NA
2017/11/11 10:45:00	AWS2	6.01	214	7.25	209	M	M	M	NA	NA	985.9	NA	NA		M	NA	NA	NA	NA
2017/11/11 10:46:00	AWS2	5.85	214	7.25	209	M	M	M	NA	NA	985.7	NA	NA		M	NA	NA	NA	NA
2017/11/11 10:47:00	AWS2	5.64	212	7.25	209	M	M	M	NA	NA	985.6	NA	NA		M	NA	NA	NA	NA
2017/11/11 10:48:00	AWS2	5.45	211	7.25	209	M	M	M	NA	NA	985.5	NA	NA		M	NA	NA	NA	NA
2017/11/11 10:49:00	AWS2	5.03	210	7.25	209	M	M	M	NA	NA	985.7	NA	NA		M	NA	NA	NA	NA
2017/11/11 10:50:00	AWS2	4.96	205	7.25	209	M	M	M	NA	NA	985.2	NA	NA		M	NA	NA	NA	NA
2017/11/11 10:51:00	AWS2	5.07	202	7.25	209	M	M	M	NA	NA	985.7	NA	NA		M	NA	NA	NA	NA
2017/11/11 10:52:00	AWS2	4.82	202	6.94	208	M	M	M	NA	NA	986.4	NA	NA		M	NA	NA	NA	NA
2017/11/11 10:53:00	AWS2	4.62	201	6.94	208	M	M	M	NA	NA	985.8	NA	NA		M	NA	NA	NA	NA
2017/11/11 10:54:00	AWS2	4.49	204	6.74	218	M	M	M	NA	NA	985.8	NA	NA		M	NA	NA	NA	NA
2017/11/11 10:55:00	AWS2	4.36	209	6.74	218	M	M	M	NA	NA	984.9	NA	NA		M	NA	NA	NA	NA
2017/11/11 10:56:00	AWS2	4.37	209	6.28	212	M	M	M	NA	NA	986.1	NA	NA		M	NA	NA	NA	NA
2017/11/11 10:57:00	AWS2	4.58	206	6.12	195	M	M	M	NA	NA	985.7	NA	NA		M	NA	NA	NA	NA
2017/11/11 10:58:00	AWS2	4.96	204	6.12	195	M	M	M	NA	NA	985.6	NA	NA		M	NA	NA	NA	NA
2017/11/11 10:59:00	AWS2	4.90	204	6.12	195	M	M	M	NA	NA	985.6	NA	NA		M	NA	NA	NA	NA
2017/11/11 11:00:00	AWS2	4.42	204	5.71	206	M	M	M	NA	NA	985.9	NA	NA		M	NA	NA	NA	NA
2017/11/11 11:01:00	AWS2	4.28	203	5.71	206	M	M	M	NA	NA	985.8	NA	NA		M	NA	NA	NA	NA
2017/11/11 11:02:00	AWS2	4.15	201	5.71	206	M	M	M	NA	NA	985.8	NA	NA		M	NA	NA	NA	NA
2017/11/11 11:03:00	AWS2	4.50	201	5.71	206	M	M	M	NA	NA	985.4	NA	NA		M	NA	NA	NA	NA
2017/11/11 11:04:00	AWS2	4.60	204	5.71	206	M	M	M	NA	NA	985.8	NA	NA		M	NA	NA	NA	NA
2017/11/11 11:05:00	AWS2	4.04	206	5.71	206	M	M	M	NA	NA	985.8	NA	NA		M	NA	NA	NA	NA
2017/11/11 11:06:00	AWS2	4.19	205	5.71	206	M	M	M	NA	NA	985.5	NA	NA		M	NA	NA	NA	NA
2017/11/11 11:07:00	AWS2	3.97	205	5.71	206	M	M	M	NA	NA	985.6	NA	NA		M	NA	NA	NA	NA
2017/11/11 11:08:00	AWS2	3.69	207	5.50	201	M	M	M	NA	NA	985.3	NA	NA		M	NA	NA	NA	NA
2017/11/11 11:09:00	AWS2	4.01	212	5.50	201	M	M	M	NA	NA	985.6	NA	NA		M	NA	NA	NA	NA
2017/11/11 11:10:00	AWS2	3.87	211	5.50	201	M	M	M	NA	NA	986.0	NA	NA		M	NA	NA	NA	NA
2017/11/11 11:11:00	AWS2	3.71	209	5.50	201	M	M	M	NA	NA	986.0	NA	NA		M	NA	NA	NA	NA
2017/11/11 11:12:00	AWS2	3.77	210	5.50	201	M	M	M	NA	NA	985.7	NA	NA		M	NA	NA	NA	NA
2017/11/11 11:13:00	AWS2	3.64	210	4.94	206	M	M	M	NA	NA	985.8	NA	NA		M	NA	NA	NA	NA
2017/11/11 11:14:00	AWS2	3.60	208	4.94	206	M	M	M	NA	NA	985.6	NA	NA		M	NA	NA	NA	NA
2017/11/11 11:15:01	AWS2	3.91	208	4.94	206	M	M	M	NA	NA	985.8	NA	NA		M	NA	NA	NA	NA
2017/11/11 11:16:00	AWS2	3.84	209	4.53	210	M	M	M	NA	NA	985.5	NA	NA		M	NA	NA	NA	NA
2017/11/11 11:17:00	AWS2	3.77	212	4.53	210	M	M	M	NA	NA	985.9	NA	NA		M	NA	NA	NA	NA
2017/11/11 11:18:00	AWS2	3.75	216	4.53	210	M	M	M	NA	NA	986.1	NA	NA		M	NA	NA	NA	NA
2017/11/11 11:19:00	AWS2	3.63	217	4.53	210	M	M	M	NA	NA	986.0	NA	NA		M	NA	NA	NA	NA
2017/11/11 11:20:00	AWS2	3.87	216	4.78	213	M	M	M	NA	NA	985.7	NA	NA		M	NA	NA	NA	NA
2017/11/11 11:21:00	AWS2	4.09	215	5.14	222	M	M	M	NA	NA	985.1	NA	NA		M	NA	NA	NA	NA
2017/11/11 11:22:00	AWS2	4.23	215	5.14	222	M	M	M	NA	NA	985.7	NA	NA		M	NA	NA	NA	NA
2017/11/11 11:23:00	AWS2	4.07	213	5.14	222	M	M	M	NA	NA	985.8	NA	NA		M	NA	NA	NA	NA
2017/11/11 11:24:00	AWS2	3.76	212	5.14	222	M	M	M	NA	NA	985.8	NA	NA		M	NA	NA	NA	NA
2017/11/11 11:25:00	AWS2	3.88	212	5.14	222	M	M	M	NA	NA	985.8	NA	NA		M	NA	NA	NA	NA
2017/11/11 11:26:00	AWS2	3.97	213	5.14	222	M	M	M	NA	NA	985.7	NA	NA		M	NA	NA	NA	NA
2017/11/11 11:27:00	AWS2	3.53	214	5.14	222	M	M	M	NA	NA	985.8	NA	NA		M	NA	NA	NA	NA
2017/11/11 11:28:00	AWS2	3.00	214	5.14	222	M	M	M	NA	NA	985.7	NA	NA		M	NA	NA	NA	NA
2017/11/11 11:29:00	AWS2	2.67	215	5.14	222	M	M	M	NA	NA	985.7	NA	NA		M	NA	NA	NA	NA
2017/11/11 11:30:00	AWS2	2.88	215	5.14	222	M	M	M	NA	NA	985.7	NA	NA		M	NA	NA	NA	NA
2017/11/11 11:31:00	AWS2	3.04	217	4.89	223	M	M	M	NA	NA	985.7	NA	NA		M	NA	NA	NA	NA
2017/11/11 11:32:00	AWS2	3.08	217	4.78	202	M	M	M	NA	NA	985.7	NA	NA		M	NA	NA	NA	NA
2017/11/11 11:33:00	AWS2	3.31	216	4.78	202	M	M	M	NA	NA	985.9	NA	NA		M	NA	NA	NA	NA
2017/11/11 11:34:00	AWS2	3.68	217	4.78	202	M	M	M	NA	NA	986.0	NA	NA		M	NA	NA	NA	NA
2017/11/11 11:35:00	AWS2	3.87	218	4.58	217	M	M	M	NA	NA	985.9	NA	NA		M	NA	NA	NA	NA
2017/11/11 11:36:00	AWS2	3.65	220	4.58	217	M	M	M	NA	NA	986.0	NA	NA		M	NA	NA	NA	NA
2017/11/11 11:37:00	AWS2	3.59	224	4.58	217	M	M	M	NA	NA	986.2	NA	NA		M	NA	NA	NA	NA
2017/11/11 11:38:00	AWS2	3.73	222	4.58	217	M	M	M	NA	NA	986.1	NA	NA		M	NA	NA	NA	NA
2017/11/11 11:39:00	AWS2	3.71	223	4.58	217	M	M	M	NA	NA	986.2	NA	NA		M	NA	NA	NA	NA
2017/11/11 11:40:00	AWS2	3.65	221	4.58	217	M	M	M	NA	NA	985.8	NA	NA		M	NA	NA	NA	NA
2017/11/11 11:41:00	AWS2	3.50	219	4.58	217	M	M	M	NA	NA	986.1	NA	NA		M	NA	NA	NA	NA
2017/11/11 11:42:00	AWS2	3.01	221	4.58	217	M	M	M	NA	NA	986.1	NA	NA		M	NA	NA	NA	NA
2017/11/11 11:43:00	AWS2	2.84	224	4.58	217	M	M	M	NA	NA	986.4	NA	NA		M	NA	NA	NA	NA
2017/11/11 11:44:00	AWS2	3.00	225	4.37	214	M	M	M	NA	NA	986.3	NA	NA		M	NA	NA	NA	NA
2017/11/11 11:45:00	AWS2	3.28	225	4.27	237	M	M	M	NA	NA	986.2	NA	NA		M	NA	NA	NA	NA
2017/11/11 11:46:00	AWS2	3.39	227	4.27	237	M	M	M	NA	NA	986.3	NA	NA		M	NA	NA	NA	NA
2017/11/11 11:47:00	AWS2	3.03	229	4.27	237	M	M	M	NA	NA	986.0	NA	NA		M	NA	NA	NA	NA
2017/11/11 11:48:00	AWS2	2.85	227	4.27	237	M	M	M	NA	NA	985.7	NA	NA		M	NA	NA	NA	NA
2017/11/11 11:49:00	AWS2	3.08	225	4.12	211	M	M	M	NA	NA	986.3	NA	NA		M	NA	NA	NA	NA
2017/11/11 11:50:00	AWS2	3.22	228	3.96	213	M	M	M	NA	NA	986.0	NA	NA		M	NA	NA	NA	NA
2017/11/11 11:51:00	AWS2	3.16	230	3.86	227	M	M	M	NA	NA	986.1	NA	NA		M	NA	NA	NA	NA
2017/11/11 11:52:00	AWS2	3.00	229	3.86	227	M	M	M	NA	NA	986.3	NA	NA		M	NA	NA	NA	NA
2017/11/11 11:53:00	AWS2	2.83	233	3.86	227	M	M	M	NA	NA	986.1	NA	NA		M	NA	NA	NA	NA
2017/11/11 11:54:00	AWS2	2.66	235	3.86	227	M	M	M	NA	NA	986.2	NA	NA		M	NA	NA	NA	NA
2017/11/11 11:55:00	AWS2	2.88	234	3.81	229	M	M	M	NA	NA	986.1	NA	NA		M	NA	NA	NA	NA
2017/11/11 11:56:00	AWS2	3.04	232	3.81	229	M	M	M	NA	NA	986.1	NA	NA		M	NA	NA	NA	NA
2017/11/11 11:57:00	AWS2	2.51	229	3.81	229	M	M	M	NA	NA	986.1	NA	NA		M	NA	NA	NA	NA
2017/11/11 11:58:00	AWS2	2.25	230	3.76	234	M	M	M	NA	NA	986.1	NA	NA		M	NA	NA	NA	NA
2017/11/11 11:59:00	AWS2	2.43	229	3.76	234	M	M	M	NA	NA	985.9	NA	NA		M	NA	NA	NA	NA
2017/11/11 12:00:00	AWS2	2.74	224	3.76	234	M	M	M	NA	NA	986.2	NA	NA		M	NA	NA	NA	NA
2017/11/11 12:01:00	AWS2	2.91	225	3.76	234	M	M	M	NA	NA	986.3	NA	NA		M	NA	NA	NA	NA
2017/11/11 12:02:00	AWS2	2.62	228	3.76	234	M	M	M	NA	NA	986.0	NA	NA		M	NA	NA	NA	NA
2017/11/11 12:03:00	AWS2	2.49	225	3.76	234	M	M	M	NA	NA	986.4	NA	NA		M	NA	NA	NA	NA
2017/11/11 12:04:00	AWS2	2.61	222	3.76	234	M	M	M	NA	NA	986.2	NA	NA		M	NA	NA	NA	NA
2017/11/11 12:05:00	AWS2	2.76	221	3.55	225	M	M	M	NA	NA	986.0	NA	NA		M	NA	NA	NA	NA
2017/11/11 12:06:00	AWS2	2.84	223	3.55	225	M	M	M	NA	NA	986.1	NA	NA		M	NA	NA	NA	NA
2017/11/11 12:07:00	AWS2	2.68	228	3.55	225	M	M	M	NA	NA	986.0	NA	NA		M	NA	NA	NA	NA
2017/11/11 12:08:00	AWS2	2.54	224	3.55	225	M	M	M	NA	NA	985.9	NA	NA		M	NA	NA	NA	NA
2017/11/11 12:09:00	AWS2	2.33	222	3.55	225	M	M	M	NA	NA	985.9	NA	NA		M	NA	NA	NA	NA
2017/11/11 12:10:00	AWS2	2.27	224	3.55	225	M	M	M	NA	NA	985.5	NA	NA		M	NA	NA	NA	NA
2017/11/11 12:11:00	AWS2	2.28	221	3.40	219	M	M	M	NA	NA	985.6	NA	NA		M	NA	NA	NA	NA
2017/11/11 12:12:00	AWS2	2.29	218	3.40	219	M	M	M	NA	NA	985.8	NA	NA		M	NA	NA	NA	NA
2017/11/11 12:13:00	AWS2	2.29	218	3.40	219	M	M	M	NA	NA	985.8	NA	NA		M	NA	NA	NA	NA
2017/11/11 12:14:00	AWS2	2.23	222	3.40	219	M	M	M	NA	NA	985.9	NA	NA		M	NA	NA	NA	NA
2017/11/11 12:15:00	AWS2	2.37	226	3.04	219	M	M	M	NA	NA	985.8	NA	NA		M	NA	NA	NA	NA
2017/11/11 12:16:00	AWS2	2.36	229	3.09	235	M	M	M	NA	NA	985.5	NA	NA		M	NA	NA	NA	NA
2017/11/11 12:17:00	AWS2	2.47	228	3.19	222	M	M	M	NA	NA	985.7	NA	NA		M	NA	NA	NA	NA
2017/11/11 12:18:00	AWS2	2.61	222	3.19	222	M	M	M	NA	NA	985.5	NA	NA		M	NA	NA	NA	NA
2017/11/11 12:19:00	AWS2	2.40	222	3.19	222	M	M	M	NA	NA	985.6	NA	NA		M	NA	NA	NA	NA
2017/11/11 12:20:00	AWS2	2.12	228	3.19	222	M	M	M	NA	NA	986.2	NA	NA		M	NA	NA	NA	NA
2017/11/11 12:21:00	AWS2	2.17	233	3.19	222	M	M	M	NA	NA	985.6	NA	NA		M	NA	NA	NA	NA
2017/11/11 12:22:00	AWS2	2.07	229	3.19	222	M	M	M	NA	NA	985.3	NA	NA		M	NA	NA	NA	NA
2017/11/11 12:23:00	AWS2	1.63	224	3.19	222	M	M	M	NA	NA	985.8	NA	NA		M	NA	NA	NA	NA
2017/11/11 12:24:00	AWS2	1.87	227	3.19	222	M	M	M	NA	NA	985.1	NA	NA		M	NA	NA	NA	NA
2017/11/11 12:25:00	AWS2	2.24	230	3.19	222	M	M	M	NA	NA	986.2	NA	NA		M	NA	NA	NA	NA
2017/11/11 12:26:00	AWS2	2.28	229	3.19	222	M	M	M	NA	NA	985.9	NA	NA		M	NA	NA	NA	NA
2017/11/11 12:27:00	AWS2	2.40	225	2.78	225	M	M	M	NA	NA	985.6	NA	NA		M	NA	NA	NA	NA
2017/11/11 12:28:00	AWS2	2.40	221	2.78	219	M	M	M	NA	NA	985.8	NA	NA		M	NA	NA	NA	NA
2017/11/11 12:29:00	AWS2	2.24	225	2.78	219	M	M	M	NA	NA	985.4	NA	NA		M	NA	NA	NA	NA
2017/11/11 12:30:00	AWS2	2.03	228	2.78	219	M	M	M	NA	NA	985.6	NA	NA		M	NA	NA	NA	NA
2017/11/11 12:31:00	AWS2	1.75	223	2.78	219	M	M	M	NA	NA	985.8	NA	NA		M	NA	NA	NA	NA
2017/11/11 12:32:00	AWS2	1.54	216	2.78	219	M	M	M	NA	NA	985.6	NA	NA		M	NA	NA	NA	NA
2017/11/11 12:33:00	AWS2	1.52	207	2.78	219	M	M	M	NA	NA	985.9	NA	NA		M	NA	NA	NA	NA
2017/11/11 12:34:00	AWS2	1.71	205	2.78	219	M	M	M	NA	NA	985.3	NA	NA		M	NA	NA	NA	NA
2017/11/11 12:35:00	AWS2	1.61	210	2.78	219	M	M	M	NA	NA	985.9	NA	NA		M	NA	NA	NA	NA
2017/11/11 12:36:00	AWS2	1.36	214	2.78	219	M	M	M	NA	NA	986.1	NA	NA		M	NA	NA	NA	NA
2017/11/11 12:37:00	AWS2	1.40	214	2.78	219	M	M	M	NA	NA	985.2	NA	NA		M	NA	NA	NA	NA
2017/11/11 12:38:00	AWS2	1.46	219	2.62	234	M	M	M	NA	NA	985.6	NA	NA		M	NA	NA	NA	NA
2017/11/11 12:39:00	AWS2	1.39	225	2.16	230	M	M	M	NA	NA	985.9	NA	NA		M	NA	NA	NA	NA
2017/11/11 12:40:00	AWS2	0.97	230	2.06	202	M	M	M	NA	NA	986.2	NA	NA		M	NA	NA	NA	NA
2017/11/11 12:41:00	AWS2	0.94	235	2.06	202	M	M	M	NA	NA	986.0	NA	NA		M	NA	NA	NA	NA
2017/11/11 12:42:00	AWS2	1.31	240	2.06	202	M	M	M	NA	NA	985.2	NA	NA		M	NA	NA	NA	NA
2017/11/11 12:43:00	AWS2	1.44	243	2.06	202	M	M	M	NA	NA	985.8	NA	NA		M	NA	NA	NA	NA
2017/11/11 12:44:00	AWS2	1.49	240	1.85	233	M	M	M	NA	NA	985.8	NA	NA		M	NA	NA	NA	NA
2017/11/11 12:45:00	AWS2	1.43	234	1.85	233	M	M	M	NA	NA	985.6	NA	NA		M	NA	NA	NA	NA
2017/11/11 12:46:00	AWS2	1.03	231	1.85	233	M	M	M	NA	NA	985.1	NA	NA		M	NA	NA	NA	NA
2017/11/11 12:47:00	AWS2	0.63	227	1.85	233	M	M	M	NA	NA	985.9	NA	NA		M	NA	NA	NA	NA
2017/11/11 12:48:00	AWS2	0.69	222	1.85	233	M	M	M	NA	NA	985.5	NA	NA		M	NA	NA	NA	NA
2017/11/11 12:49:00	AWS2	0.57	224	1.85	233	M	M	M	NA	NA	985.8	NA	NA		M	NA	NA	NA	NA
2017/11/11 12:50:00	AWS2	0.61	225	1.85	233	M	M	M	NA	NA	984.4	NA	NA		M	NA	NA	NA	NA
2017/11/11 12:51:00	AWS2	0.43	222	1.85	233	M	M	M	NA	NA	985.7	NA	NA		M	NA	NA	NA	NA
2017/11/11 12:52:00	AWS2	0.00	218	1.85	233	M	M	M	NA	NA	985.2	NA	NA		M	NA	NA	NA	NA
2017/11/11 12:53:00	AWS2	0.75	227	1.75	235	M	M	M	NA	NA	985.5	NA	NA		M	NA	NA	NA	NA
2017/11/11 12:54:00	AWS2	1.52	240	2.01	239	M	M	M	NA	NA	984.9	NA	NA		M	NA	NA	NA	NA
2017/11/11 12:55:00	AWS2	1.62	237	2.01	237	M	M	M	NA	NA	985.0	NA	NA		M	NA	NA	NA	NA
2017/11/11 12:56:00	AWS2	1.58	233	2.01	237	M	M	M	NA	NA	985.7	NA	NA		M	NA	NA	NA	NA
2017/11/11 12:57:00	AWS2	1.38	229	2.01	237	M	M	M	NA	NA	984.9	NA	NA		M	NA	NA	NA	NA
2017/11/11 12:58:00	AWS2	1.37	223	2.01	237	M	M	M	NA	NA	985.2	NA	NA		M	NA	NA	NA	NA
2017/11/11 12:59:00	AWS2	1.14	223	2.01	237	M	M	M	NA	NA	985.6	NA	NA		M	NA	NA	NA	NA
2017/11/11 13:00:00	AWS2	1.08	225	2.01	237	M	M	M	NA	NA	984.8	NA	NA		M	NA	NA	NA	NA
2017/11/11 13:01:00	AWS2	1.33	227	2.01	237	M	M	M	NA	NA	984.4	NA	NA		M	NA	NA	NA	NA
2017/11/11 13:02:00	AWS2	1.37	226	2.01	237	M	M	M	NA	NA	984.8	NA	NA		M	NA	NA	NA	NA
2017/11/11 13:03:00	AWS2	1.24	226	2.01	237	M	M	M	NA	NA	985.3	NA	NA		M	NA	NA	NA	NA
2017/11/11 13:04:00	AWS2	1.12	228	2.01	237	M	M	M	NA	NA	984.8	NA	NA		M	NA	NA	NA	NA
2017/11/11 13:05:00	AWS2	1.22	232	1.90	224	M	M	M	NA	NA	985.2	NA	NA		M	NA	NA	NA	NA
2017/11/11 13:06:00	AWS2	1.43	235	1.90	224	M	M	M	NA	NA	985.4	NA	NA		M	NA	NA	NA	NA
2017/11/11 13:07:00	AWS2	1.59	238	1.90	224	M	M	M	NA	NA	985.4	NA	NA		M	NA	NA	NA	NA
2017/11/11 13:08:00	AWS2	1.70	235	1.95	227	M	M	M	NA	NA	985.4	NA	NA		M	NA	NA	NA	NA
2017/11/11 13:09:00	AWS2	1.43	223	1.95	227	M	M	M	NA	NA	985.4	NA	NA		M	NA	NA	NA	NA
2017/11/11 13:10:00	AWS2	1.02	217	1.95	227	M	M	M	NA	NA	985.2	NA	NA		M	NA	NA	NA	NA
2017/11/11 13:11:00	AWS2	1.14	217	1.95	227	M	M	M	NA	NA	985.6	NA	NA		M	NA	NA	NA	NA
2017/11/11 13:12:00	AWS2	1.44	217	2.01	225	M	M	M	NA	NA	985.5	NA	NA		M	NA	NA	NA	NA
2017/11/11 13:13:00	AWS2	1.57	217	2.01	225	M	M	M	NA	NA	985.4	NA	NA		M	NA	NA	NA	NA
2017/11/11 13:14:00	AWS2	1.50	213	2.01	225	M	M	M	NA	NA	985.5	NA	NA		M	NA	NA	NA	NA
2017/11/11 13:15:00	AWS2	1.19	211	2.01	225	M	M	M	NA	NA	985.3	NA	NA		M	NA	NA	NA	NA
2017/11/11 13:16:00	AWS2	0.94	212	2.01	225	M	M	M	NA	NA	985.5	NA	NA		M	NA	NA	NA	NA
2017/11/11 13:17:00	AWS2	1.04	217	2.01	225	M	M	M	NA	NA	985.2	NA	NA		M	NA	NA	NA	NA
2017/11/11 13:18:00	AWS2	0.81	223	2.01	225	M	M	M	NA	NA	984.9	NA	NA		M	NA	NA	NA	NA
2017/11/11 13:19:00	AWS2	0.32	223	2.01	225	M	M	M	NA	NA	985.5	NA	NA		M	NA	NA	NA	NA
2017/11/11 13:20:00	AWS2	0.09	216	2.01	225	M	M	M	NA	NA	985.2	NA	NA		M	NA	NA	NA	NA
2017/11/11 13:21:00	AWS2	0.04	216	2.01	225	M	M	M	NA	NA	985.7	NA	NA		M	NA	NA	NA	NA
2017/11/11 13:22:00	AWS2	0.62	216	1.90	213	M	M	M	NA	NA	985.6	NA	NA		M	NA	NA	NA	NA
2017/11/11 13:23:00	AWS2	1.28	211	1.70	203	M	M	M	NA	NA	985.6	NA	NA		M	NA	NA	NA	NA
2017/11/11 13:24:00	AWS2	1.36	210	1.70	203	M	M	M	NA	NA	985.7	NA	NA		M	NA	NA	NA	NA
2017/11/11 13:25:00	AWS2	1.15	211	1.70	203	M	M	M	NA	NA	985.0	NA	NA		M	NA	NA	NA	NA
2017/11/11 13:26:00	AWS2	0.97	221	1.70	203	M	M	M	NA	NA	985.2	NA	NA		M	NA	NA	NA	NA
2017/11/11 13:27:00	AWS2	0.90	231	1.70	203	M	M	M	NA	NA	985.7	NA	NA		M	NA	NA	NA	NA
2017/11/11 13:28:00	AWS2	0.84	236	1.70	203	M	M	M	NA	NA	985.7	NA	NA		M	NA	NA	NA	NA
2017/11/11 13:29:00	AWS2	0.83	247	1.70	203	M	M	M	NA	NA	985.6	NA	NA		M	NA	NA	NA	NA
2017/11/11 13:30:00	AWS2	1.04	247	1.70	203	M	M	M	NA	NA	985.5	NA	NA		M	NA	NA	NA	NA
2017/11/11 13:31:00	AWS2	1.32	240	1.70	203	M	M	M	NA	NA	984.6	NA	NA		M	NA	NA	NA	NA
2017/11/11 13:32:00	AWS2	1.35	239	1.70	203	M	M	M	NA	NA	985.0	NA	NA		M	NA	NA	NA	NA
2017/11/11 13:33:00	AWS2	1.18	237	1.59	231	M	M	M	NA	NA	985.4	NA	NA		M	NA	NA	NA	NA
2017/11/11 13:34:00	AWS2	0.63	238	1.59	231	M	M	M	NA	NA	985.2	NA	NA		M	NA	NA	NA	NA
2017/11/11 13:35:00	AWS2	0.66	242	1.59	231	M	M	M	NA	NA	985.1	NA	NA		M	NA	NA	NA	NA
2017/11/11 13:36:00	AWS2	0.65	243	1.59	231	M	M	M	NA	NA	985.1	NA	NA		M	NA	NA	NA	NA
2017/11/11 13:37:00	AWS2	0.32	241	1.59	231	M	M	M	NA	NA	985.5	NA	NA		M	NA	NA	NA	NA
2017/11/11 13:38:00	AWS2	0.47	255	1.59	231	M	M	M	NA	NA	985.3	NA	NA		M	NA	NA	NA	NA
2017/11/11 13:39:00	AWS2	0.87	268	1.90	268	M	M	M	NA	NA	985.6	NA	NA		M	NA	NA	NA	NA
2017/11/11 13:40:00	AWS2	1.26	270	1.90	268	M	M	M	NA	NA	985.0	NA	NA		M	NA	NA	NA	NA
2017/11/11 13:41:00	AWS2	1.38	271	1.90	262	M	M	M	NA	NA	985.4	NA	NA		M	NA	NA	NA	NA
2017/11/11 13:42:00	AWS2	1.58	266	1.90	262	M	M	M	NA	NA	985.3	NA	NA		M	NA	NA	NA	NA
2017/11/11 13:43:00	AWS2	1.53	254	1.90	262	M	M	M	NA	NA	985.7	NA	NA		M	NA	NA	NA	NA
2017/11/11 13:44:00	AWS2	1.06	242	1.90	262	M	M	M	NA	NA	985.5	NA	NA		M	NA	NA	NA	NA
2017/11/11 13:45:00	AWS2	0.90	255	1.90	262	M	M	M	NA	NA	985.6	NA	NA		M	NA	NA	NA	NA
2017/11/11 13:46:00	AWS2	1.35	276	1.90	262	M	M	M	NA	NA	985.7	NA	NA		M	NA	NA	NA	NA
2017/11/11 13:47:00	AWS2	1.76	286	2.11	296	M	M	M	NA	NA	985.1	NA	NA		M	NA	NA	NA	NA
2017/11/11 13:48:00	AWS2	1.74	289	2.11	296	M	M	M	NA	NA	985.4	NA	NA		M	NA	NA	NA	NA
2017/11/11 13:49:00	AWS2	1.81	285	2.26	279	M	M	M	NA	NA	985.0	NA	NA		M	NA	NA	NA	NA
2017/11/11 13:50:00	AWS2	1.91	286	2.26	279	M	M	M	NA	NA	985.4	NA	NA		M	NA	NA	NA	NA
2017/11/11 13:51:00	AWS2	1.84	286	2.26	279	M	M	M	NA	NA	985.8	NA	NA		M	NA	NA	NA	NA
2017/11/11 13:52:00	AWS2	1.80	280	2.26	279	M	M	M	NA	NA	985.5	NA	NA		M	NA	NA	NA	NA
2017/11/11 13:53:00	AWS2	1.61	275	2.26	279	M	M	M	NA	NA	984.7	NA	NA		M	NA	NA	NA	NA
2017/11/11 13:54:00	AWS2	1.46	277	2.26	279	M	M	M	NA	NA	985.5	NA	NA		M	NA	NA	NA	NA
2017/11/11 13:55:00	AWS2	1.57	279	2.26	279	M	M	M	NA	NA	985.1	NA	NA		M	NA	NA	NA	NA
2017/11/11 13:56:00	AWS2	1.70	279	2.26	279	M	M	M	NA	NA	985.1	NA	NA		M	NA	NA	NA	NA
2017/11/11 13:57:00	AWS2	1.49	280	2.26	279	M	M	M	NA	NA	985.5	NA	NA		M	NA	NA	NA	NA
2017/11/11 13:58:00	AWS2	1.28	278	2.26	279	M	M	M	NA	NA	985.5	NA	NA		M	NA	NA	NA	NA
2017/11/11 13:59:00	AWS2	1.35	278	2.11	283	M	M	M	NA	NA	985.0	NA	NA		M	NA	NA	NA	NA
2017/11/11 14:00:00	AWS2	1.17	278	2.11	283	M	M	M	NA	NA	985.0	NA	NA		M	NA	NA	NA	NA
2017/11/11 14:01:00	AWS2	1.44	284	2.42	294	M	M	M	NA	NA	985.6	NA	NA		M	NA	NA	NA	NA
2017/11/11 14:02:00	AWS2	1.97	293	2.42	294	M	M	M	NA	NA	985.6	NA	NA		M	NA	NA	NA	NA
2017/11/11 14:03:00	AWS2	1.97	294	2.42	294	M	M	M	NA	NA	985.3	NA	NA		M	NA	NA	NA	NA
2017/11/11 14:04:00	AWS2	1.92	293	2.42	294	M	M	M	NA	NA	985.4	NA	NA		M	NA	NA	NA	NA
2017/11/11 14:05:00	AWS2	1.77	298	2.42	294	M	M	M	NA	NA	985.2	NA	NA		M	NA	NA	NA	NA
2017/11/11 14:06:00	AWS2	1.62	303	2.42	294	M	M	M	NA	NA	985.0	NA	NA		M	NA	NA	NA	NA
2017/11/11 14:07:00	AWS2	1.12	307	2.42	294	M	M	M	NA	NA	984.8	NA	NA		M	NA	NA	NA	NA
2017/11/11 14:08:00	AWS2	0.77	309	2.42	294	M	M	M	NA	NA	985.4	NA	NA		M	NA	NA	NA	NA
2017/11/11 14:09:00	AWS2	0.63	305	2.42	294	M	M	M	NA	NA	985.1	NA	NA		M	NA	NA	NA	NA
2017/11/11 14:10:00	AWS2	0.21	308	2.42	294	M	M	M	NA	NA	985.1	NA	NA		M	NA	NA	NA	NA
2017/11/11 14:11:00	AWS2	0.00	304	2.21	287	M	M	M	NA	NA	985.4	NA	NA		M	NA	NA	NA	NA
2017/11/11 14:12:00	AWS2	0.00	297	2.21	287	M	M	M	NA	NA	985.4	NA	NA		M	NA	NA	NA	NA
2017/11/11 14:13:00	AWS2	0.00	307	2.06	290	M	M	M	NA	NA	985.3	NA	NA		M	NA	NA	NA	NA
2017/11/11 14:14:00	AWS2	0.27	312	1.95	310	M	M	M	NA	NA	985.4	NA	NA		M	NA	NA	NA	NA
2017/11/11 14:15:00	AWS2	0.27	325	1.95	310	M	M	M	NA	NA	985.7	NA	NA		M	NA	NA	NA	NA
2017/11/11 14:16:00	AWS2	0.00	354	1.44	309	M	M	M	NA	NA	985.4	NA	NA		M	NA	NA	NA	NA
2017/11/11 14:17:00	AWS2	0.00	12	1.44	309	M	M	M	NA	NA	985.4	NA	NA		M	NA	NA	NA	NA
2017/11/11 14:18:00	AWS2	0.00	13	1.34	302	M	M	M	NA	NA	985.6	NA	NA		M	NA	NA	NA	NA
2017/11/11 14:19:00	AWS2	0.00	13	1.13	312	M	M	M	NA	NA	986.0	NA	NA		M	NA	NA	NA	NA
2017/11/11 14:20:00	AWS2	0.09	18	1.13	312	M	M	M	NA	NA	985.6	NA	NA		M	NA	NA	NA	NA
2017/11/11 14:21:00	AWS2	0.31	10	1.13	312	M	M	M	NA	NA	985.9	NA	NA		M	NA	NA	NA	NA
2017/11/11 14:22:00	AWS2	0.31	355	1.13	312	M	M	M	NA	NA	985.8	NA	NA		M	NA	NA	NA	NA
2017/11/11 14:23:00	AWS2	0.54	350	1.34	348	M	M	M	NA	NA	985.5	NA	NA		M	NA	NA	NA	NA
2017/11/11 14:24:00	AWS2	0.82	347	1.34	348	M	M	M	NA	NA	985.4	NA	NA		M	NA	NA	NA	NA
2017/11/11 14:25:00	AWS2	0.97	353	1.39	1	M	M	M	NA	NA	985.6	NA	NA		M	NA	NA	NA	NA
2017/11/11 14:26:00	AWS2	1.38	1	1.80	3	M	M	M	NA	NA	985.2	NA	NA		M	NA	NA	NA	NA
2017/11/11 14:27:00	AWS2	1.65	8	1.95	15	M	M	M	NA	NA	985.4	NA	NA		M	NA	NA	NA	NA
2017/11/11 14:28:00	AWS2	1.57	5	1.95	15	M	M	M	NA	NA	985.0	NA	NA		M	NA	NA	NA	NA
2017/11/11 14:29:00	AWS2	1.52	5	1.95	15	M	M	M	NA	NA	985.3	NA	NA		M	NA	NA	NA	NA
2017/11/11 14:30:00	AWS2	1.55	19	1.95	15	M	M	M	NA	NA	985.5	NA	NA		M	NA	NA	NA	NA
2017/11/11 14:31:00	AWS2	1.39	22	1.95	15	M	M	M	NA	NA	984.8	NA	NA		M	NA	NA	NA	NA
2017/11/11 14:32:00	AWS2	1.30	19	1.95	15	M	M	M	NA	NA	984.9	NA	NA		M	NA	NA	NA	NA
2017/11/11 14:33:00	AWS2	1.31	17	1.95	15	M	M	M	NA	NA	984.6	NA	NA		M	NA	NA	NA	NA
2017/11/11 14:34:00	AWS2	1.40	16	1.95	15	M	M	M	NA	NA	985.2	NA	NA		M	NA	NA	NA	NA
2017/11/11 14:35:00	AWS2	1.55	16	1.95	15	M	M	M	NA	NA	985.2	NA	NA		M	NA	NA	NA	NA
2017/11/11 14:36:00	AWS2	1.60	18	1.95	15	M	M	M	NA	NA	984.1	NA	NA		M	NA	NA	NA	NA
2017/11/11 14:37:00	AWS2	1.52	26	1.80	19	M	M	M	NA	NA	985.1	NA	NA		M	NA	NA	NA	NA
2017/11/11 14:38:00	AWS2	1.57	24	1.85	23	M	M	M	NA	NA	985.0	NA	NA		M	NA	NA	NA	NA
2017/11/11 14:39:00	AWS2	1.77	21	2.21	34	M	M	M	NA	NA	985.0	NA	NA		M	NA	NA	NA	NA
2017/11/11 14:40:00	AWS2	1.96	27	2.21	34	M	M	M	NA	NA	984.5	NA	NA		M	NA	NA	NA	NA
2017/11/11 14:41:00	AWS2	1.91	31	2.21	34	M	M	M	NA	NA	984.2	NA	NA		M	NA	NA	NA	NA
2017/11/11 14:42:00	AWS2	1.87	34	2.21	34	M	M	M	NA	NA	985.0	NA	NA		M	NA	NA	NA	NA
2017/11/11 14:43:00	AWS2	1.80	36	2.21	34	M	M	M	NA	NA	985.0	NA	NA		M	NA	NA	NA	NA
2017/11/11 14:44:00	AWS2	1.74	36	2.21	34	M	M	M	NA	NA	984.7	NA	NA		M	NA	NA	NA	NA
2017/11/11 14:45:00	AWS2	1.82	32	2.21	34	M	M	M	NA	NA	984.8	NA	NA		M	NA	NA	NA	NA
2017/11/11 14:46:00	AWS2	1.76	27	2.21	34	M	M	M	NA	NA	984.6	NA	NA		M	NA	NA	NA	NA
2017/11/11 14:47:00	AWS2	1.86	26	2.21	34	M	M	M	NA	NA	984.6	NA	NA		M	NA	NA	NA	NA
2017/11/11 14:48:00	AWS2	1.90	27	2.21	34	M	M	M	NA	NA	984.3	NA	NA		M	NA	NA	NA	NA
2017/11/11 14:49:00	AWS2	1.83	28	2.11	36	M	M	M	NA	NA	983.9	NA	NA		M	NA	NA	NA	NA
2017/11/11 14:50:00	AWS2	1.93	25	2.31	13	M	M	M	NA	NA	984.5	NA	NA		M	NA	NA	NA	NA
2017/11/11 14:51:00	AWS2	2.07	12	2.42	6	M	M	M	NA	NA	983.9	NA	NA		M	NA	NA	NA	NA
2017/11/11 14:52:00	AWS2	2.15	7	2.42	6	M	M	M	NA	NA	983.5	NA	NA		M	NA	NA	NA	NA
2017/11/11 14:53:00	AWS2	2.09	10	2.42	6	M	M	M	NA	NA	984.5	NA	NA		M	NA	NA	NA	NA
2017/11/11 14:54:00	AWS2	2.08	8	2.52	9	M	M	M	NA	NA	984.6	NA	NA		M	NA	NA	NA	NA
2017/11/11 14:55:00	AWS2	2.22	3	2.52	9	M	M	M	NA	NA	985.2	NA	NA		M	NA	NA	NA	NA
2017/11/11 14:56:00	AWS2	2.28	4	2.52	4	M	M	M	NA	NA	984.5	NA	NA		M	NA	NA	NA	NA
2017/11/11 14:57:00	AWS2	2.21	13	2.52	4	M	M	M	NA	NA	983.9	NA	NA		M	NA	NA	NA	NA
2017/11/11 14:58:00	AWS2	2.21	23	2.52	4	M	M	M	NA	NA	984.0	NA	NA		M	NA	NA	NA	NA
2017/11/11 14:59:00	AWS2	2.47	27	3.04	26	M	M	M	NA	NA	984.5	NA	NA		M	NA	NA	NA	NA
2017/11/11 15:00:00	AWS2	2.54	19	3.04	26	M	M	M	NA	NA	984.7	NA	NA		M	NA	NA	NA	NA
2017/11/11 15:01:00	AWS2	2.54	12	3.04	26	M	M	M	NA	NA	984.5	NA	NA		M	NA	NA	NA	NA
2017/11/11 15:02:00	AWS2	2.66	10	3.04	26	M	M	M	NA	NA	984.7	NA	NA		M	NA	NA	NA	NA
2017/11/11 15:03:00	AWS2	2.45	16	3.04	26	M	M	M	NA	NA	983.9	NA	NA		M	NA	NA	NA	NA
2017/11/11 15:04:00	AWS2	2.27	19	3.04	26	M	M	M	NA	NA	984.2	NA	NA		M	NA	NA	NA	NA
2017/11/11 15:05:00	AWS2	2.11	15	3.04	26	M	M	M	NA	NA	984.5	NA	NA		M	NA	NA	NA	NA
2017/11/11 15:06:00	AWS2	2.03	21	3.04	26	M	M	M	NA	NA	985.0	NA	NA		M	NA	NA	NA	NA
2017/11/11 15:07:00	AWS2	2.24	29	3.04	26	M	M	M	NA	NA	984.3	NA	NA		M	NA	NA	NA	NA
2017/11/11 15:08:00	AWS2	2.35	28	3.04	26	M	M	M	NA	NA	985.0	NA	NA		M	NA	NA	NA	NA
2017/11/11 15:09:00	AWS2	2.33	25	2.98	12	M	M	M	NA	NA	985.0	NA	NA		M	NA	NA	NA	NA
2017/11/11 15:10:00	AWS2	2.19	22	2.98	12	M	M	M	NA	NA	984.9	NA	NA		M	NA	NA	NA	NA
2017/11/11 15:11:00	AWS2	1.97	18	2.88	11	M	M	M	NA	NA	984.6	NA	NA		M	NA	NA	NA	NA
2017/11/11 15:12:00	AWS2	2.11	12	2.62	16	M	M	M	NA	NA	983.8	NA	NA		M	NA	NA	NA	NA
2017/11/11 15:13:00	AWS2	2.37	7	2.73	2	M	M	M	NA	NA	984.3	NA	NA		M	NA	NA	NA	NA
2017/11/11 15:14:00	AWS2	2.41	8	2.73	2	M	M	M	NA	NA	984.2	NA	NA		M	NA	NA	NA	NA
2017/11/11 15:15:00	AWS2	2.29	9	2.73	2	M	M	M	NA	NA	984.2	NA	NA		M	NA	NA	NA	NA
2017/11/11 15:16:00	AWS2	2.15	6	2.73	2	M	M	M	NA	NA	984.6	NA	NA		M	NA	NA	NA	NA
2017/11/11 15:17:00	AWS2	2.25	12	3.04	9	M	M	M	NA	NA	985.1	NA	NA		M	NA	NA	NA	NA
2017/11/11 15:18:00	AWS2	2.53	20	3.04	9	M	M	M	NA	NA	985.1	NA	NA		M	NA	NA	NA	NA
2017/11/11 15:19:00	AWS2	2.54	21	3.04	9	M	M	M	NA	NA	985.0	NA	NA		M	NA	NA	NA	NA
2017/11/11 15:20:00	AWS2	2.48	24	3.04	9	M	M	M	NA	NA	984.1	NA	NA		M	NA	NA	NA	NA
2017/11/11 15:21:00	AWS2	2.59	27	3.04	9	M	M	M	NA	NA	984.3	NA	NA		M	NA	NA	NA	NA
2017/11/11 15:22:00	AWS2	2.60	28	3.04	9	M	M	M	NA	NA	984.3	NA	NA		M	NA	NA	NA	NA
2017/11/11 15:23:00	AWS2	2.62	28	3.04	9	M	M	M	NA	NA	985.0	NA	NA		M	NA	NA	NA	NA
2017/11/11 15:24:00	AWS2	2.51	27	3.04	9	M	M	M	NA	NA	984.8	NA	NA		M	NA	NA	NA	NA
2017/11/11 15:25:00	AWS2	2.39	25	3.04	9	M	M	M	NA	NA	985.0	NA	NA		M	NA	NA	NA	NA
2017/11/11 15:26:00	AWS2	2.59	24	3.04	9	M	M	M	NA	NA	984.8	NA	NA		M	NA	NA	NA	NA
2017/11/11 15:27:00	AWS2	2.83	28	3.09	34	M	M	M	NA	NA	985.5	NA	NA		M	NA	NA	NA	NA
2017/11/11 15:28:00	AWS2	2.87	29	3.09	34	M	M	M	NA	NA	985.1	NA	NA		M	NA	NA	NA	NA
2017/11/11 15:29:00	AWS2	2.84	28	3.09	34	M	M	M	NA	NA	984.5	NA	NA		M	NA	NA	NA	NA
2017/11/11 15:30:00	AWS2	2.76	28	3.09	34	M	M	M	NA	NA	984.0	NA	NA		M	NA	NA	NA	NA
2017/11/11 15:31:00	AWS2	2.83	29	3.29	23	M	M	M	NA	NA	983.7	NA	NA		M	NA	NA	NA	NA
2017/11/11 15:32:00	AWS2	2.93	26	3.29	23	M	M	M	NA	NA	984.3	NA	NA		M	NA	NA	NA	NA
2017/11/11 15:33:00	AWS2	2.67	21	3.29	23	M	M	M	NA	NA	985.0	NA	NA		M	NA	NA	NA	NA
2017/11/11 15:34:00	AWS2	2.49	21	3.29	23	M	M	M	NA	NA	984.7	NA	NA		M	NA	NA	NA	NA
2017/11/11 15:35:00	AWS2	2.69	27	3.29	23	M	M	M	NA	NA	983.8	NA	NA		M	NA	NA	NA	NA
2017/11/11 15:36:00	AWS2	2.95	30	3.29	23	M	M	M	NA	NA	985.0	NA	NA		M	NA	NA	NA	NA
2017/11/11 15:37:00	AWS2	2.96	27	3.29	23	M	M	M	NA	NA	984.8	NA	NA		M	NA	NA	NA	NA
2017/11/11 15:38:00	AWS2	2.79	24	3.29	23	M	M	M	NA	NA	984.5	NA	NA		M	NA	NA	NA	NA
2017/11/11 15:39:00	AWS2	2.87	26	3.40	25	M	M	M	NA	NA	983.9	NA	NA		M	NA	NA	NA	NA
2017/11/11 15:40:00	AWS2	2.99	32	3.40	25	M	M	M	NA	NA	984.8	NA	NA		M	NA	NA	NA	NA
2017/11/11 15:41:00	AWS2	3.08	32	3.55	26	M	M	M	NA	NA	985.1	NA	NA		M	NA	NA	NA	NA
2017/11/11 15:42:00	AWS2	3.16	30	3.55	26	M	M	M	NA	NA	983.8	NA	NA		M	NA	NA	NA	NA
2017/11/11 15:43:00	AWS2	2.83	36	3.55	26	M	M	M	NA	NA	983.7	NA	NA		M	NA	NA	NA	NA
2017/11/11 15:44:00	AWS2	2.68	41	3.55	26	M	M	M	NA	NA	983.8	NA	NA		M	NA	NA	NA	NA
2017/11/11 15:45:00	AWS2	2.90	44	3.55	26	M	M	M	NA	NA	983.7	NA	NA		M	NA	NA	NA	NA
2017/11/11 15:46:00	AWS2	2.95	47	3.55	26	M	M	M	NA	NA	983.9	NA	NA		M	NA	NA	NA	NA
2017/11/11 15:47:00	AWS2	2.86	46	3.55	26	M	M	M	NA	NA	984.5	NA	NA		M	NA	NA	NA	NA
2017/11/11 15:48:00	AWS2	2.70	37	3.55	26	M	M	M	NA	NA	983.7	NA	NA		M	NA	NA	NA	NA
2017/11/11 15:49:00	AWS2	2.54	31	3.55	26	M	M	M	NA	NA	982.8	NA	NA		M	NA	NA	NA	NA
2017/11/11 15:50:00	AWS2	2.64	31	3.55	26	M	M	M	NA	NA	983.7	NA	NA		M	NA	NA	NA	NA
2017/11/11 15:51:00	AWS2	2.68	35	3.40	26	M	M	M	NA	NA	984.6	NA	NA		M	NA	NA	NA	NA
2017/11/11 15:52:00	AWS2	2.60	34	3.34	20	M	M	M	NA	NA	984.7	NA	NA		M	NA	NA	NA	NA
2017/11/11 15:53:00	AWS2	2.83	29	3.34	28	M	M	M	NA	NA	984.0	NA	NA		M	NA	NA	NA	NA
2017/11/11 15:54:00	AWS2	3.11	30	3.34	28	M	M	M	NA	NA	984.7	NA	NA		M	NA	NA	NA	NA
2017/11/11 15:55:00	AWS2	3.07	33	3.34	28	M	M	M	NA	NA	984.1	NA	NA		M	NA	NA	NA	NA
2017/11/11 15:56:00	AWS2	2.95	30	3.34	28	M	M	M	NA	NA	984.9	NA	NA		M	NA	NA	NA	NA
2017/11/11 15:57:00	AWS2	2.94	28	3.34	28	M	M	M	NA	NA	985.0	NA	NA		M	NA	NA	NA	NA
2017/11/11 15:58:00	AWS2	2.88	32	3.34	28	M	M	M	NA	NA	984.5	NA	NA		M	NA	NA	NA	NA
2017/11/11 15:59:00	AWS2	2.83	32	3.34	28	M	M	M	NA	NA	983.7	NA	NA		M	NA	NA	NA	NA
2017/11/11 16:00:00	AWS2	2.85	31	3.34	28	M	M	M	NA	NA	984.8	NA	NA		M	NA	NA	NA	NA
2017/11/11 16:01:00	AWS2	2.90	33	3.34	28	M	M	M	NA	NA	984.5	NA	NA		M	NA	NA	NA	NA
2017/11/11 16:02:00	AWS2	2.91	32	3.34	28	M	M	M	NA	NA	984.5	NA	NA		M	NA	NA	NA	NA
2017/11/11 16:03:00	AWS2	2.96	32	3.29	34	M	M	M	NA	NA	984.8	NA	NA		M	NA	NA	NA	NA
2017/11/11 16:04:00	AWS2	2.86	33	3.24	33	M	M	M	NA	NA	984.2	NA	NA		M	NA	NA	NA	NA
2017/11/11 16:05:00	AWS2	2.79	36	3.24	32	M	M	M	NA	NA	984.3	NA	NA		M	NA	NA	NA	NA
2017/11/11 16:06:00	AWS2	2.84	39	3.24	32	M	M	M	NA	NA	983.8	NA	NA		M	NA	NA	NA	NA
2017/11/11 16:07:00	AWS2	2.93	36	3.34	24	M	M	M	NA	NA	984.1	NA	NA		M	NA	NA	NA	NA
2017/11/11 16:08:00	AWS2	3.10	31	3.34	24	M	M	M	NA	NA	984.2	NA	NA		M	NA	NA	NA	NA
2017/11/11 16:09:00	AWS2	2.95	36	3.34	40	M	M	M	NA	NA	984.9	NA	NA		M	NA	NA	NA	NA
2017/11/11 16:10:00	AWS2	2.81	42	3.34	40	M	M	M	NA	NA	984.2	NA	NA		M	NA	NA	NA	NA
2017/11/11 16:11:00	AWS2	2.71	40	3.34	40	M	M	M	NA	NA	984.7	NA	NA		M	NA	NA	NA	NA
2017/11/11 16:12:00	AWS2	2.71	35	3.40	40	M	M	M	NA	NA	984.9	NA	NA		M	NA	NA	NA	NA
2017/11/11 16:13:00	AWS2	2.89	34	3.40	26	M	M	M	NA	NA	983.7	NA	NA		M	NA	NA	NA	NA
2017/11/11 16:14:00	AWS2	2.97	36	3.45	43	M	M	M	NA	NA	983.5	NA	NA		M	NA	NA	NA	NA
2017/11/11 16:15:00	AWS2	3.01	39	3.45	30	M	M	M	NA	NA	984.0	NA	NA		M	NA	NA	NA	NA
2017/11/11 16:16:00	AWS2	3.07	40	3.50	34	M	M	M	NA	NA	984.4	NA	NA		M	NA	NA	NA	NA
2017/11/11 16:17:00	AWS2	2.98	38	3.50	34	M	M	M	NA	NA	984.4	NA	NA		M	NA	NA	NA	NA
2017/11/11 16:18:00	AWS2	3.06	34	3.65	32	M	M	M	NA	NA	984.3	NA	NA		M	NA	NA	NA	NA
2017/11/11 16:19:00	AWS2	3.15	33	3.65	32	M	M	M	NA	NA	984.5	NA	NA		M	NA	NA	NA	NA
2017/11/11 16:20:00	AWS2	2.83	35	3.65	32	M	M	M	NA	NA	983.3	NA	NA		M	NA	NA	NA	NA
2017/11/11 16:21:00	AWS2	2.51	33	3.65	32	M	M	M	NA	NA	983.1	NA	NA		M	NA	NA	NA	NA
2017/11/11 16:22:00	AWS2	2.45	36	3.65	32	M	M	M	NA	NA	983.5	NA	NA		M	NA	NA	NA	NA
2017/11/11 16:23:00	AWS2	2.66	40	3.65	32	M	M	M	NA	NA	984.0	NA	NA		M	NA	NA	NA	NA
2017/11/11 16:24:00	AWS2	2.82	36	3.65	32	M	M	M	NA	NA	983.8	NA	NA		M	NA	NA	NA	NA
2017/11/11 16:25:00	AWS2	2.85	36	3.65	32	M	M	M	NA	NA	983.3	NA	NA		M	NA	NA	NA	NA
2017/11/11 16:26:00	AWS2	2.82	33	3.65	32	M	M	M	NA	NA	983.7	NA	NA		M	NA	NA	NA	NA
2017/11/11 16:27:00	AWS2	2.79	31	3.65	32	M	M	M	NA	NA	983.7	NA	NA		M	NA	NA	NA	NA
2017/11/11 16:28:00	AWS2	2.98	33	3.50	29	M	M	M	NA	NA	983.6	NA	NA		M	NA	NA	NA	NA
2017/11/11 16:29:00	AWS2	3.10	31	3.50	29	M	M	M	NA	NA	984.4	NA	NA		M	NA	NA	NA	NA
2017/11/11 16:30:00	AWS2	3.28	30	4.12	28	M	M	M	NA	NA	984.0	NA	NA		M	NA	NA	NA	NA
2017/11/11 16:31:00	AWS2	3.54	30	4.12	28	M	M	M	NA	NA	983.4	NA	NA		M	NA	NA	NA	NA
2017/11/11 16:32:00	AWS2	3.44	30	4.12	28	M	M	M	NA	NA	983.6	NA	NA		M	NA	NA	NA	NA
2017/11/11 16:33:00	AWS2	3.55	31	4.32	27	M	M	M	NA	NA	984.5	NA	NA		M	NA	NA	NA	NA
2017/11/11 16:34:00	AWS2	3.77	27	4.32	28	M	M	M	NA	NA	983.3	NA	NA		M	NA	NA	NA	NA
2017/11/11 16:35:00	AWS2	4.11	27	4.48	27	M	M	M	NA	NA	983.3	NA	NA		M	NA	NA	NA	NA
2017/11/11 16:36:00	AWS2	4.21	27	4.48	27	M	M	M	NA	NA	984.1	NA	NA		M	NA	NA	NA	NA
2017/11/11 16:37:00	AWS2	3.88	22	4.48	27	M	M	M	NA	NA	983.8	NA	NA		M	NA	NA	NA	NA
2017/11/11 16:38:00	AWS2	3.89	16	4.48	27	M	M	M	NA	NA	983.7	NA	NA		M	NA	NA	NA	NA
2017/11/11 16:39:00	AWS2	4.05	14	4.48	11	M	M	M	NA	NA	984.0	NA	NA		M	NA	NA	NA	NA
2017/11/11 16:40:00	AWS2	3.86	13	4.48	11	M	M	M	NA	NA	984.3	NA	NA		M	NA	NA	NA	NA
2017/11/11 16:41:00	AWS2	3.66	15	4.48	11	M	M	M	NA	NA	983.9	NA	NA		M	NA	NA	NA	NA
2017/11/11 16:42:00	AWS2	3.95	15	4.58	17	M	M	M	NA	NA	983.6	NA	NA		M	NA	NA	NA	NA
2017/11/11 16:43:00	AWS2	4.32	16	4.68	21	M	M	M	NA	NA	983.2	NA	NA		M	NA	NA	NA	NA
2017/11/11 16:44:00	AWS2	4.16	15	4.68	21	M	M	M	NA	NA	984.0	NA	NA		M	NA	NA	NA	NA
2017/11/11 16:45:00	AWS2	3.95	9	4.68	21	M	M	M	NA	NA	983.4	NA	NA		M	NA	NA	NA	NA
2017/11/11 16:46:00	AWS2	3.98	10	4.68	21	M	M	M	NA	NA	984.3	NA	NA		M	NA	NA	NA	NA
2017/11/11 16:47:00	AWS2	3.96	14	4.68	21	M	M	M	NA	NA	984.1	NA	NA		M	NA	NA	NA	NA
2017/11/11 16:48:00	AWS2	3.80	15	4.68	21	M	M	M	NA	NA	984.2	NA	NA		M	NA	NA	NA	NA
2017/11/11 16:49:00	AWS2	3.69	17	4.68	21	M	M	M	NA	NA	984.1	NA	NA		M	NA	NA	NA	NA
2017/11/11 16:50:00	AWS2	3.85	18	4.68	21	M	M	M	NA	NA	983.8	NA	NA		M	NA	NA	NA	NA
2017/11/11 16:51:00	AWS2	3.98	18	4.68	21	M	M	M	NA	NA	983.4	NA	NA		M	NA	NA	NA	NA
2017/11/11 16:52:00	AWS2	4.05	15	4.68	21	M	M	M	NA	NA	984.0	NA	NA		M	NA	NA	NA	NA
2017/11/11 16:53:00	AWS2	4.31	12	4.78	18	M	M	M	NA	NA	984.1	NA	NA		M	NA	NA	NA	NA
2017/11/11 16:54:00	AWS2	4.28	13	4.89	10	M	M	M	NA	NA	983.7	NA	NA		M	NA	NA	NA	NA
2017/11/11 16:55:00	AWS2	4.04	12	4.89	10	M	M	M	NA	NA	983.7	NA	NA		M	NA	NA	NA	NA
2017/11/11 16:56:00	AWS2	3.87	11	4.89	10	M	M	M	NA	NA	983.4	NA	NA		M	NA	NA	NA	NA
2017/11/11 16:57:00	AWS2	3.96	8	4.89	10	M	M	M	NA	NA	983.5	NA	NA		M	NA	NA	NA	NA
2017/11/11 16:58:00	AWS2	4.19	4	4.89	10	M	M	M	NA	NA	984.1	NA	NA		M	NA	NA	NA	NA
2017/11/11 16:59:00	AWS2	4.08	11	4.89	10	M	M	M	NA	NA	984.0	NA	NA		M	NA	NA	NA	NA
2017/11/11 17:00:00	AWS2	4.50	17	5.45	11	M	M	M	NA	NA	983.0	NA	NA		M	NA	NA	NA	NA
2017/11/11 17:01:00	AWS2	4.91	14	5.45	11	M	M	M	NA	NA	983.8	NA	NA		M	NA	NA	NA	NA
2017/11/11 17:02:00	AWS2	4.65	13	5.45	11	M	M	M	NA	NA	983.9	NA	NA		M	NA	NA	NA	NA
2017/11/11 17:03:00	AWS2	4.46	17	5.45	11	M	M	M	NA	NA	983.9	NA	NA		M	NA	NA	NA	NA
2017/11/11 17:04:00	AWS2	4.39	19	5.45	11	M	M	M	NA	NA	983.6	NA	NA		M	NA	NA	NA	NA
2017/11/11 17:05:00	AWS2	4.20	19	5.45	11	M	M	M	NA	NA	983.9	NA	NA		M	NA	NA	NA	NA
2017/11/11 17:06:00	AWS2	4.28	21	5.45	11	M	M	M	NA	NA	983.6	NA	NA		M	NA	NA	NA	NA
2017/11/11 17:07:00	AWS2	4.62	19	5.45	11	M	M	M	NA	NA	983.4	NA	NA		M	NA	NA	NA	NA
2017/11/11 17:08:00	AWS2	4.48	16	5.45	11	M	M	M	NA	NA	983.2	NA	NA		M	NA	NA	NA	NA
2017/11/11 17:09:00	AWS2	4.21	16	5.45	11	M	M	M	NA	NA	983.3	NA	NA		M	NA	NA	NA	NA
2017/11/11 17:10:00	AWS2	4.13	16	5.45	11	M	M	M	NA	NA	984.2	NA	NA		M	NA	NA	NA	NA
2017/11/11 17:11:00	AWS2	4.30	15	5.25	18	M	M	M	NA	NA	983.4	NA	NA		M	NA	NA	NA	NA
2017/11/11 17:12:00	AWS2	4.73	14	5.35	9	M	M	M	NA	NA	983.3	NA	NA		M	NA	NA	NA	NA
2017/11/11 17:13:00	AWS2	4.84	11	5.35	9	M	M	M	NA	NA	983.5	NA	NA		M	NA	NA	NA	NA
2017/11/11 17:14:00	AWS2	4.87	9	5.56	6	M	M	M	NA	NA	983.6	NA	NA		M	NA	NA	NA	NA
2017/11/11 17:15:00	AWS2	4.74	8	5.56	6	M	M	M	NA	NA	983.5	NA	NA		M	NA	NA	NA	NA
2017/11/11 17:16:00	AWS2	4.64	5	5.56	6	M	M	M	NA	NA	983.9	NA	NA		M	NA	NA	NA	NA
2017/11/11 17:17:00	AWS2	5.03	5	5.81	7	M	M	M	NA	NA	983.2	NA	NA		M	NA	NA	NA	NA
2017/11/11 17:18:00	AWS2	5.30	8	5.81	7	M	M	M	NA	NA	984.4	NA	NA		M	NA	NA	NA	NA
2017/11/11 17:19:00	AWS2	5.23	10	5.81	7	M	M	M	NA	NA	983.9	NA	NA		M	NA	NA	NA	NA
2017/11/11 17:20:00	AWS2	5.21	11	5.81	15	M	M	M	NA	NA	982.5	NA	NA		M	NA	NA	NA	NA
2017/11/11 17:21:00	AWS2	5.29	11	5.81	15	M	M	M	NA	NA	983.8	NA	NA		M	NA	NA	NA	NA
2017/11/11 17:22:00	AWS2	5.08	10	5.81	15	M	M	M	NA	NA	983.6	NA	NA		M	NA	NA	NA	NA
2017/11/11 17:23:00	AWS2	5.21	10	5.86	6	M	M	M	NA	NA	982.3	NA	NA		M	NA	NA	NA	NA
2017/11/11 17:24:00	AWS2	5.26	9	5.86	6	M	M	M	NA	NA	983.7	NA	NA		M	NA	NA	NA	NA
2017/11/11 17:25:00	AWS2	4.73	12	5.86	6	M	M	M	NA	NA	983.6	NA	NA		M	NA	NA	NA	NA
2017/11/11 17:26:00	AWS2	4.74	17	5.86	6	M	M	M	NA	NA	983.0	NA	NA		M	NA	NA	NA	NA
2017/11/11 17:27:00	AWS2	5.04	15	5.86	6	M	M	M	NA	NA	983.3	NA	NA		M	NA	NA	NA	NA
2017/11/11 17:28:00	AWS2	5.21	13	5.86	6	M	M	M	NA	NA	982.7	NA	NA		M	NA	NA	NA	NA
2017/11/11 17:29:00	AWS2	5.08	15	5.86	6	M	M	M	NA	NA	983.1	NA	NA		M	NA	NA	NA	NA
2017/11/11 17:30:00	AWS2	4.84	18	5.86	6	M	M	M	NA	NA	983.0	NA	NA		M	NA	NA	NA	NA
2017/11/11 17:31:00	AWS2	4.96	21	5.86	6	M	M	M	NA	NA	983.3	NA	NA		M	NA	NA	NA	NA
2017/11/11 17:32:00	AWS2	5.08	21	5.86	6	M	M	M	NA	NA	983.1	NA	NA		M	NA	NA	NA	NA
2017/11/11 17:33:00	AWS2	5.05	20	5.66	24	M	M	M	NA	NA	983.6	NA	NA		M	NA	NA	NA	NA
2017/11/11 17:34:00	AWS2	5.03	23	5.66	24	M	M	M	NA	NA	983.0	NA	NA		M	NA	NA	NA	NA
2017/11/11 17:35:00	AWS2	5.01	24	5.66	24	M	M	M	NA	NA	982.9	NA	NA		M	NA	NA	NA	NA
2017/11/11 17:36:00	AWS2	4.80	21	5.66	24	M	M	M	NA	NA	983.6	NA	NA		M	NA	NA	NA	NA
2017/11/11 17:37:00	AWS2	4.73	19	5.66	24	M	M	M	NA	NA	983.0	NA	NA		M	NA	NA	NA	NA
2017/11/11 17:38:00	AWS2	4.76	20	5.66	24	M	M	M	NA	NA	982.7	NA	NA		M	NA	NA	NA	NA
2017/11/11 17:39:00	AWS2	4.82	19	5.66	24	M	M	M	NA	NA	983.3	NA	NA		M	NA	NA	NA	NA
2017/11/11 17:40:00	AWS2	4.69	19	5.66	24	M	M	M	NA	NA	982.4	NA	NA		M	NA	NA	NA	NA
2017/11/11 17:41:00	AWS2	4.40	22	5.66	24	M	M	M	NA	NA	983.5	NA	NA		M	NA	NA	NA	NA
2017/11/11 17:42:00	AWS2	4.22	22	5.66	24	M	M	M	NA	NA	983.0	NA	NA		M	NA	NA	NA	NA
2017/11/11 17:43:00	AWS2	4.37	17	5.61	28	M	M	M	NA	NA	982.8	NA	NA		M	NA	NA	NA	NA
2017/11/11 17:44:00	AWS2	4.45	19	5.50	28	M	M	M	NA	NA	983.1	NA	NA		M	NA	NA	NA	NA
2017/11/11 17:45:00	AWS2	4.46	25	5.45	15	M	M	M	NA	NA	984.3	NA	NA		M	NA	NA	NA	NA
2017/11/11 17:46:00	AWS2	4.58	27	5.45	15	M	M	M	NA	NA	984.2	NA	NA		M	NA	NA	NA	NA
2017/11/11 17:47:00	AWS2	4.49	27	5.45	15	M	M	M	NA	NA	982.7	NA	NA		M	NA	NA	NA	NA
2017/11/11 17:48:00	AWS2	4.52	27	5.45	15	M	M	M	NA	NA	983.6	NA	NA		M	NA	NA	NA	NA
2017/11/11 17:49:00	AWS2	4.42	27	5.25	14	M	M	M	NA	NA	983.2	NA	NA		M	NA	NA	NA	NA
2017/11/11 17:50:00	AWS2	4.35	26	5.25	14	M	M	M	NA	NA	984.0	NA	NA		M	NA	NA	NA	NA
2017/11/11 17:51:00	AWS2	4.30	27	5.25	14	M	M	M	NA	NA	984.2	NA	NA		M	NA	NA	NA	NA
2017/11/11 17:52:00	AWS2	3.91	28	5.25	14	M	M	M	NA	NA	983.9	NA	NA		M	NA	NA	NA	NA
2017/11/11 17:53:00	AWS2	3.54	31	5.20	27	M	M	M	NA	NA	983.4	NA	NA		M	NA	NA	NA	NA
2017/11/11 17:54:00	AWS2	3.51	30	5.20	27	M	M	M	NA	NA	984.0	NA	NA		M	NA	NA	NA	NA
2017/11/11 17:55:00	AWS2	3.19	28	4.89	28	M	M	M	NA	NA	983.7	NA	NA		M	NA	NA	NA	NA
2017/11/11 17:56:00	AWS2	3.04	32	4.89	28	M	M	M	NA	NA	983.8	NA	NA		M	NA	NA	NA	NA
2017/11/11 17:57:00	AWS2	3.49	30	4.89	28	M	M	M	NA	NA	983.6	NA	NA		M	NA	NA	NA	NA
2017/11/11 17:58:00	AWS2	3.83	28	4.89	28	M	M	M	NA	NA	983.9	NA	NA		M	NA	NA	NA	NA
2017/11/11 17:59:00	AWS2	3.90	29	4.78	27	M	M	M	NA	NA	983.5	NA	NA		M	NA	NA	NA	NA
2017/11/11 18:00:00	AWS2	3.95	29	4.48	24	M	M	M	NA	NA	983.8	NA	NA		M	NA	NA	NA	NA
2017/11/11 18:01:00	AWS2	3.79	30	4.37	24	M	M	M	NA	NA	983.5	NA	NA		M	NA	NA	NA	NA
2017/11/11 18:02:00	AWS2	3.79	30	4.58	26	M	M	M	NA	NA	983.7	NA	NA		M	NA	NA	NA	NA
2017/11/11 18:03:00	AWS2	3.96	28	4.58	26	M	M	M	NA	NA	983.7	NA	NA		M	NA	NA	NA	NA
2017/11/11 18:04:00	AWS2	4.00	28	4.58	26	M	M	M	NA	NA	983.7	NA	NA		M	NA	NA	NA	NA
2017/11/11 18:05:00	AWS2	4.08	29	4.58	26	M	M	M	NA	NA	984.2	NA	NA		M	NA	NA	NA	NA
2017/11/11 18:06:00	AWS2	4.05	28	4.58	26	M	M	M	NA	NA	983.6	NA	NA		M	NA	NA	NA	NA
2017/11/11 18:07:00	AWS2	4.11	26	4.68	23	M	M	M	NA	NA	983.8	NA	NA		M	NA	NA	NA	NA
2017/11/11 18:08:00	AWS2	4.02	25	4.68	23	M	M	M	NA	NA	983.9	NA	NA		M	NA	NA	NA	NA
2017/11/11 18:09:00	AWS2	3.82	25	4.68	23	M	M	M	NA	NA	983.1	NA	NA		M	NA	NA	NA	NA
2017/11/11 18:10:00	AWS2	3.62	26	4.68	23	M	M	M	NA	NA	983.9	NA	NA		M	NA	NA	NA	NA
2017/11/11 18:11:00	AWS2	3.64	31	4.68	23	M	M	M	NA	NA	983.5	NA	NA		M	NA	NA	NA	NA
2017/11/11 18:12:00	AWS2	3.58	32	4.68	23	M	M	M	NA	NA	983.8	NA	NA		M	NA	NA	NA	NA
2017/11/11 18:13:00	AWS2	3.34	30	4.68	23	M	M	M	NA	NA	983.0	NA	NA		M	NA	NA	NA	NA
2017/11/11 18:14:00	AWS2	3.48	32	4.68	23	M	M	M	NA	NA	982.6	NA	NA		M	NA	NA	NA	NA
2017/11/11 18:15:00	AWS2	3.73	31	4.68	23	M	M	M	NA	NA	983.5	NA	NA		M	NA	NA	NA	NA
2017/11/11 18:16:00	AWS2	3.78	30	4.68	23	M	M	M	NA	NA	983.4	NA	NA		M	NA	NA	NA	NA
2017/11/11 18:17:00	AWS2	3.77	29	4.58	35	M	M	M	NA	NA	983.5	NA	NA		M	NA	NA	NA	NA
2017/11/11 18:18:00	AWS2	3.97	31	4.58	35	M	M	M	NA	NA	983.6	NA	NA		M	NA	NA	NA	NA
2017/11/11 18:19:00	AWS2	4.01	30	4.58	35	M	M	M	NA	NA	983.7	NA	NA		M	NA	NA	NA	NA
2017/11/11 18:20:00	AWS2	3.80	26	4.58	35	M	M	M	NA	NA	984.0	NA	NA		M	NA	NA	NA	NA
2017/11/11 18:21:00	AWS2	3.65	26	4.99	20	M	M	M	NA	NA	983.4	NA	NA		M	NA	NA	NA	NA
2017/11/11 18:22:00	AWS2	3.95	26	4.99	20	M	M	M	NA	NA	983.4	NA	NA		M	NA	NA	NA	NA
2017/11/11 18:23:00	AWS2	4.19	22	4.99	20	M	M	M	NA	NA	983.9	NA	NA		M	NA	NA	NA	NA
2017/11/11 18:24:00	AWS2	3.86	21	4.99	20	M	M	M	NA	NA	983.4	NA	NA		M	NA	NA	NA	NA
2017/11/11 18:25:00	AWS2	3.84	26	4.99	20	M	M	M	NA	NA	983.1	NA	NA		M	NA	NA	NA	NA
2017/11/11 18:26:00	AWS2	3.70	31	4.99	20	M	M	M	NA	NA	983.2	NA	NA		M	NA	NA	NA	NA
2017/11/11 18:27:00	AWS2	3.32	37	4.99	20	M	M	M	NA	NA	983.5	NA	NA		M	NA	NA	NA	NA
2017/11/11 18:28:00	AWS2	3.65	35	4.99	20	M	M	M	NA	NA	983.7	NA	NA		M	NA	NA	NA	NA
2017/11/11 18:29:00	AWS2	3.73	29	4.99	20	M	M	M	NA	NA	984.0	NA	NA		M	NA	NA	NA	NA
2017/11/11 18:30:00	AWS2	3.23	33	4.99	20	M	M	M	NA	NA	983.3	NA	NA		M	NA	NA	NA	NA
2017/11/11 18:31:00	AWS2	3.18	37	4.68	30	M	M	M	NA	NA	983.7	NA	NA		M	NA	NA	NA	NA
2017/11/11 18:32:00	AWS2	3.55	32	4.68	30	M	M	M	NA	NA	983.8	NA	NA		M	NA	NA	NA	NA
2017/11/11 18:33:00	AWS2	3.83	29	4.68	30	M	M	M	NA	NA	983.4	NA	NA		M	NA	NA	NA	NA
2017/11/11 18:34:00	AWS2	3.86	36	4.68	30	M	M	M	NA	NA	983.7	NA	NA		M	NA	NA	NA	NA
2017/11/11 18:35:00	AWS2	3.78	40	4.68	30	M	M	M	NA	NA	984.0	NA	NA		M	NA	NA	NA	NA
2017/11/11 18:36:00	AWS2	3.70	34	4.68	30	M	M	M	NA	NA	983.6	NA	NA		M	NA	NA	NA	NA
2017/11/11 18:37:00	AWS2	3.49	33	4.68	30	M	M	M	NA	NA	982.8	NA	NA		M	NA	NA	NA	NA
2017/11/11 18:38:00	AWS2	3.50	40	4.42	44	M	M	M	NA	NA	982.8	NA	NA		M	NA	NA	NA	NA
2017/11/11 18:39:00	AWS2	4.02	44	4.63	46	M	M	M	NA	NA	983.6	NA	NA		M	NA	NA	NA	NA
2017/11/11 18:40:00	AWS2	4.11	41	4.63	46	M	M	M	NA	NA	983.2	NA	NA		M	NA	NA	NA	NA
2017/11/11 18:41:00	AWS2	3.52	33	4.63	46	M	M	M	NA	NA	982.3	NA	NA		M	NA	NA	NA	NA
2017/11/11 18:42:00	AWS2	3.68	31	4.63	46	M	M	M	NA	NA	983.7	NA	NA		M	NA	NA	NA	NA
2017/11/11 18:43:00	AWS2	4.23	33	4.73	33	M	M	M	NA	NA	983.7	NA	NA		M	NA	NA	NA	NA
2017/11/11 18:44:00	AWS2	4.06	29	4.73	33	M	M	M	NA	NA	982.9	NA	NA		M	NA	NA	NA	NA
2017/11/11 18:45:00	AWS2	3.59	26	4.73	33	M	M	M	NA	NA	983.6	NA	NA		M	NA	NA	NA	NA
2017/11/11 18:46:00	AWS2	3.39	29	4.73	33	M	M	M	NA	NA	983.3	NA	NA		M	NA	NA	NA	NA
2017/11/11 18:47:00	AWS2	3.44	31	4.73	33	M	M	M	NA	NA	983.0	NA	NA		M	NA	NA	NA	NA
2017/11/11 18:48:00	AWS2	3.52	27	4.73	33	M	M	M	NA	NA	983.2	NA	NA		M	NA	NA	NA	NA
2017/11/11 18:49:00	AWS2	3.76	27	4.73	33	M	M	M	NA	NA	983.8	NA	NA		M	NA	NA	NA	NA
2017/11/11 18:50:00	AWS2	3.84	29	4.73	33	M	M	M	NA	NA	983.1	NA	NA		M	NA	NA	NA	NA
2017/11/11 18:51:00	AWS2	3.63	30	4.73	33	M	M	M	NA	NA	983.9	NA	NA		M	NA	NA	NA	NA
2017/11/11 18:52:00	AWS2	3.54	29	4.73	33	M	M	M	NA	NA	983.4	NA	NA		M	NA	NA	NA	NA
2017/11/11 18:53:00	AWS2	3.63	25	4.32	27	M	M	M	NA	NA	983.6	NA	NA		M	NA	NA	NA	NA
2017/11/11 18:54:00	AWS2	3.23	28	4.22	25	M	M	M	NA	NA	983.4	NA	NA		M	NA	NA	NA	NA
2017/11/11 18:55:00	AWS2	2.81	35	4.22	25	M	M	M	NA	NA	982.7	NA	NA		M	NA	NA	NA	NA
2017/11/11 18:56:00	AWS2	3.19	36	4.22	25	M	M	M	NA	NA	983.3	NA	NA		M	NA	NA	NA	NA
2017/11/11 18:57:00	AWS2	3.84	31	4.58	29	M	M	M	NA	NA	983.5	NA	NA		M	NA	NA	NA	NA
2017/11/11 18:58:00	AWS2	4.03	28	4.58	29	M	M	M	NA	NA	983.0	NA	NA		M	NA	NA	NA	NA
2017/11/11 18:59:00	AWS2	4.01	30	4.58	29	M	M	M	NA	NA	982.8	NA	NA		M	NA	NA	NA	NA
2017/11/11 19:00:00	AWS2	4.11	44	4.58	29	M	M	M	NA	NA	983.4	NA	NA		M	NA	NA	NA	NA
2017/11/11 19:01:00	AWS2	3.79	71	4.58	29	M	M	M	NA	NA	983.9	NA	NA		M	NA	NA	NA	NA
2017/11/11 19:02:00	AWS2	2.98	89	4.58	29	M	M	M	NA	NA	983.4	NA	NA		M	NA	NA	NA	NA
2017/11/11 19:03:00	AWS2	2.72	92	4.58	29	M	M	M	NA	NA	983.0	NA	NA		M	NA	NA	NA	NA
2017/11/11 19:04:00	AWS2	2.93	90	4.58	29	M	M	M	NA	NA	983.2	NA	NA		M	NA	NA	NA	NA
2017/11/11 19:05:00	AWS2	3.02	90	4.58	29	M	M	M	NA	NA	982.7	NA	NA		M	NA	NA	NA	NA
2017/11/11 19:06:00	AWS2	3.11	90	4.58	29	M	M	M	NA	NA	983.3	NA	NA		M	NA	NA	NA	NA
2017/11/11 19:07:00	AWS2	3.18	89	4.53	64	M	M	M	NA	NA	982.5	NA	NA		M	NA	NA	NA	NA
2017/11/11 19:08:00	AWS2	3.31	88	4.53	64	M	M	M	NA	NA	982.7	NA	NA		M	NA	NA	NA	NA
2017/11/11 19:09:00	AWS2	3.41	86	4.53	64	M	M	M	NA	NA	982.3	NA	NA		M	NA	NA	NA	NA
2017/11/11 19:10:00	AWS2	3.39	82	3.81	87	M	M	M	NA	NA	983.3	NA	NA		M	NA	NA	NA	NA
2017/11/11 19:11:00	AWS2	3.58	83	4.12	88	M	M	M	NA	NA	983.3	NA	NA		M	NA	NA	NA	NA
2017/11/11 19:12:00	AWS2	3.81	84	4.12	88	M	M	M	NA	NA	982.7	NA	NA		M	NA	NA	NA	NA
2017/11/11 19:13:00	AWS2	3.90	84	4.27	85	M	M	M	NA	NA	983.3	NA	NA		M	NA	NA	NA	NA
2017/11/11 19:14:00	AWS2	3.99	83	4.27	82	M	M	M	NA	NA	982.8	NA	NA		M	NA	NA	NA	NA
2017/11/11 19:15:01	AWS2	3.89	81	4.27	82	M	M	M	NA	NA	982.9	NA	NA		M	NA	NA	NA	NA
2017/11/11 19:16:00	AWS2	3.77	80	4.27	82	M	M	M	NA	NA	983.6	NA	NA		M	NA	NA	NA	NA
2017/11/11 19:17:00	AWS2	3.82	78	4.27	82	M	M	M	NA	NA	983.3	NA	NA		M	NA	NA	NA	NA
2017/11/11 19:18:00	AWS2	3.66	77	4.27	82	M	M	M	NA	NA	982.7	NA	NA		M	NA	NA	NA	NA
2017/11/11 19:19:00	AWS2	3.48	75	4.27	82	M	M	M	NA	NA	982.6	NA	NA		M	NA	NA	NA	NA
2017/11/11 19:20:00	AWS2	3.53	76	4.27	82	M	M	M	NA	NA	982.9	NA	NA		M	NA	NA	NA	NA
2017/11/11 19:21:00	AWS2	3.35	81	4.27	82	M	M	M	NA	NA	983.1	NA	NA		M	NA	NA	NA	NA
2017/11/11 19:22:00	AWS2	3.24	83	4.27	82	M	M	M	NA	NA	983.1	NA	NA		M	NA	NA	NA	NA
2017/11/11 19:23:00	AWS2	3.37	83	4.27	82	M	M	M	NA	NA	982.6	NA	NA		M	NA	NA	NA	NA
2017/11/11 19:24:00	AWS2	3.32	83	4.12	81	M	M	M	NA	NA	983.1	NA	NA		M	NA	NA	NA	NA
2017/11/11 19:25:00	AWS2	3.21	85	4.12	81	M	M	M	NA	NA	982.2	NA	NA		M	NA	NA	NA	NA
2017/11/11 19:26:00	AWS2	3.09	84	4.12	81	M	M	M	NA	NA	981.5	NA	NA		M	NA	NA	NA	NA
2017/11/11 19:27:00	AWS2	3.16	82	3.91	86	M	M	M	NA	NA	983.0	NA	NA		M	NA	NA	NA	NA
2017/11/11 19:28:00	AWS2	3.62	84	4.06	82	M	M	M	NA	NA	982.5	NA	NA		M	NA	NA	NA	NA
2017/11/11 19:29:00	AWS2	3.78	83	4.06	82	M	M	M	NA	NA	982.5	NA	NA		M	NA	NA	NA	NA
2017/11/11 19:30:00	AWS2	3.68	84	4.06	82	M	M	M	NA	NA	982.6	NA	NA		M	NA	NA	NA	NA
2017/11/11 19:31:00	AWS2	3.56	85	4.06	82	M	M	M	NA	NA	982.9	NA	NA		M	NA	NA	NA	NA
2017/11/11 19:32:00	AWS2	3.34	88	4.06	82	M	M	M	NA	NA	982.4	NA	NA		M	NA	NA	NA	NA
2017/11/11 19:33:00	AWS2	3.20	90	4.06	82	M	M	M	NA	NA	983.5	NA	NA		M	NA	NA	NA	NA
2017/11/11 19:34:00	AWS2	3.27	90	4.06	82	M	M	M	NA	NA	981.7	NA	NA		M	NA	NA	NA	NA
2017/11/11 19:35:00	AWS2	3.38	89	4.06	82	M	M	M	NA	NA	983.4	NA	NA		M	NA	NA	NA	NA
2017/11/11 19:36:00	AWS2	3.50	84	4.06	82	M	M	M	NA	NA	981.9	NA	NA		M	NA	NA	NA	NA
2017/11/11 19:37:00	AWS2	3.59	82	4.06	82	M	M	M	NA	NA	982.4	NA	NA		M	NA	NA	NA	NA
2017/11/11 19:38:00	AWS2	3.49	82	3.96	83	M	M	M	NA	NA	981.9	NA	NA		M	NA	NA	NA	NA
2017/11/11 19:39:00	AWS2	3.11	79	3.86	88	M	M	M	NA	NA	983.8	NA	NA		M	NA	NA	NA	NA
2017/11/11 19:40:00	AWS2	2.70	79	3.86	88	M	M	M	NA	NA	983.6	NA	NA		M	NA	NA	NA	NA
2017/11/11 19:41:00	AWS2	2.96	82	3.86	88	M	M	M	NA	NA	983.7	NA	NA		M	NA	NA	NA	NA
2017/11/11 19:42:00	AWS2	3.35	84	3.86	88	M	M	M	NA	NA	982.5	NA	NA		M	NA	NA	NA	NA
2017/11/11 19:43:00	AWS2	3.30	84	3.86	88	M	M	M	NA	NA	983.6	NA	NA		M	NA	NA	NA	NA
2017/11/11 19:44:00	AWS2	3.36	85	3.96	92	M	M	M	NA	NA	983.2	NA	NA		M	NA	NA	NA	NA
2017/11/11 19:45:00	AWS2	3.44	84	3.96	92	M	M	M	NA	NA	983.4	NA	NA		M	NA	NA	NA	NA
2017/11/11 19:46:00	AWS2	3.57	84	3.96	87	M	M	M	NA	NA	983.6	NA	NA		M	NA	NA	NA	NA
2017/11/11 19:47:00	AWS2	3.47	83	3.96	87	M	M	M	NA	NA	983.3	NA	NA		M	NA	NA	NA	NA
2017/11/11 19:48:00	AWS2	3.17	82	3.96	87	M	M	M	NA	NA	983.4	NA	NA		M	NA	NA	NA	NA
2017/11/11 19:49:00	AWS2	3.29	81	3.96	87	M	M	M	NA	NA	983.6	NA	NA		M	NA	NA	NA	NA
2017/11/11 19:50:00	AWS2	3.37	80	3.96	87	M	M	M	NA	NA	983.1	NA	NA		M	NA	NA	NA	NA
2017/11/11 19:51:00	AWS2	3.26	80	3.96	87	M	M	M	NA	NA	983.3	NA	NA		M	NA	NA	NA	NA
2017/11/11 19:52:00	AWS2	3.14	79	3.96	87	M	M	M	NA	NA	982.9	NA	NA		M	NA	NA	NA	NA
2017/11/11 19:53:00	AWS2	2.98	79	3.96	87	M	M	M	NA	NA	982.8	NA	NA		M	NA	NA	NA	NA
2017/11/11 19:54:00	AWS2	3.13	81	3.96	87	M	M	M	NA	NA	983.4	NA	NA		M	NA	NA	NA	NA
2017/11/11 19:55:00	AWS2	3.22	84	3.96	87	M	M	M	NA	NA	983.4	NA	NA		M	NA	NA	NA	NA
2017/11/11 19:56:00	AWS2	3.22	83	3.81	84	M	M	M	NA	NA	983.5	NA	NA		M	NA	NA	NA	NA
2017/11/11 19:57:00	AWS2	3.26	83	3.81	84	M	M	M	NA	NA	983.1	NA	NA		M	NA	NA	NA	NA
2017/11/11 19:58:00	AWS2	3.24	81	3.81	84	M	M	M	NA	NA	983.1	NA	NA		M	NA	NA	NA	NA
2017/11/11 19:59:00	AWS2	3.37	78	3.76	82	M	M	M	NA	NA	983.4	NA	NA		M	NA	NA	NA	NA
2017/11/11 20:00:01	AWS2	3.34	81	3.76	82	M	M	M	NA	NA	983.6	NA	NA		M	NA	NA	NA	NA
2017/11/11 20:01:00	AWS2	3.09	84	3.76	82	M	M	M	NA	NA	983.1	NA	NA		M	NA	NA	NA	NA
2017/11/11 20:02:00	AWS2	2.84	81	3.76	82	M	M	M	NA	NA	983.5	NA	NA		M	NA	NA	NA	NA
2017/11/11 20:03:00	AWS2	2.84	82	3.76	82	M	M	M	NA	NA	983.1	NA	NA		M	NA	NA	NA	NA
2017/11/11 20:04:00	AWS2	3.08	83	3.76	82	M	M	M	NA	NA	983.4	NA	NA		M	NA	NA	NA	NA
2017/11/11 20:05:00	AWS2	3.18	80	3.76	82	M	M	M	NA	NA	983.4	NA	NA		M	NA	NA	NA	NA
2017/11/11 20:06:00	AWS2	3.05	77	3.76	82	M	M	M	NA	NA	983.7	NA	NA		M	NA	NA	NA	NA
2017/11/11 20:07:00	AWS2	3.05	76	3.76	82	M	M	M	NA	NA	983.2	NA	NA		M	NA	NA	NA	NA
2017/11/11 20:08:00	AWS2	3.12	79	3.65	79	M	M	M	NA	NA	983.1	NA	NA		M	NA	NA	NA	NA
2017/11/11 20:09:00	AWS2	3.14	80	3.50	83	M	M	M	NA	NA	983.1	NA	NA		M	NA	NA	NA	NA
2017/11/11 20:10:00	AWS2	3.08	80	3.50	83	M	M	M	NA	NA	983.0	NA	NA		M	NA	NA	NA	NA
2017/11/11 20:11:00	AWS2	2.91	80	3.50	83	M	M	M	NA	NA	983.1	NA	NA		M	NA	NA	NA	NA
2017/11/11 20:12:00	AWS2	3.04	76	3.65	78	M	M	M	NA	NA	983.4	NA	NA		M	NA	NA	NA	NA
2017/11/11 20:13:00	AWS2	3.18	73	3.65	78	M	M	M	NA	NA	983.4	NA	NA		M	NA	NA	NA	NA
2017/11/11 20:14:00	AWS2	3.20	73	3.65	78	M	M	M	NA	NA	983.4	NA	NA		M	NA	NA	NA	NA
2017/11/11 20:15:00	AWS2	3.12	75	3.65	78	M	M	M	NA	NA	983.5	NA	NA		M	NA	NA	NA	NA
2017/11/11 20:16:00	AWS2	2.97	80	3.65	78	M	M	M	NA	NA	983.7	NA	NA		M	NA	NA	NA	NA
2017/11/11 20:17:00	AWS2	3.23	82	3.76	81	M	M	M	NA	NA	984.0	NA	NA		M	NA	NA	NA	NA
2017/11/11 20:18:00	AWS2	3.56	80	4.01	77	M	M	M	NA	NA	983.8	NA	NA		M	NA	NA	NA	NA
2017/11/11 20:19:00	AWS2	3.46	79	4.01	77	M	M	M	NA	NA	983.9	NA	NA		M	NA	NA	NA	NA
2017/11/11 20:20:00	AWS2	3.07	79	4.01	77	M	M	M	NA	NA	984.3	NA	NA		M	NA	NA	NA	NA
2017/11/11 20:21:00	AWS2	2.92	83	4.01	77	M	M	M	NA	NA	983.6	NA	NA		M	NA	NA	NA	NA
2017/11/11 20:22:00	AWS2	3.15	85	4.01	77	M	M	M	NA	NA	983.6	NA	NA		M	NA	NA	NA	NA
2017/11/11 20:23:00	AWS2	3.32	84	4.01	77	M	M	M	NA	NA	983.3	NA	NA		M	NA	NA	NA	NA
2017/11/11 20:24:00	AWS2	3.28	83	4.01	77	M	M	M	NA	NA	983.1	NA	NA		M	NA	NA	NA	NA
2017/11/11 20:25:00	AWS2	3.29	80	4.01	77	M	M	M	NA	NA	983.5	NA	NA		M	NA	NA	NA	NA
2017/11/11 20:26:00	AWS2	3.37	77	4.01	77	M	M	M	NA	NA	984.1	NA	NA		M	NA	NA	NA	NA
2017/11/11 20:27:00	AWS2	3.26	77	4.01	77	M	M	M	NA	NA	983.3	NA	NA		M	NA	NA	NA	NA
2017/11/11 20:28:00	AWS2	3.20	79	3.76	69	M	M	M	NA	NA	983.3	NA	NA		M	NA	NA	NA	NA
2017/11/11 20:29:00	AWS2	3.29	80	3.76	69	M	M	M	NA	NA	983.4	NA	NA		M	NA	NA	NA	NA
2017/11/11 20:30:00	AWS2	3.39	79	3.81	78	M	M	M	NA	NA	983.7	NA	NA		M	NA	NA	NA	NA
2017/11/11 20:31:00	AWS2	3.63	78	4.01	76	M	M	M	NA	NA	983.6	NA	NA		M	NA	NA	NA	NA
2017/11/11 20:32:00	AWS2	3.53	77	4.01	76	M	M	M	NA	NA	983.3	NA	NA		M	NA	NA	NA	NA
2017/11/11 20:33:00	AWS2	3.41	74	4.01	76	M	M	M	NA	NA	983.9	NA	NA		M	NA	NA	NA	NA
2017/11/11 20:34:00	AWS2	3.58	75	4.01	76	M	M	M	NA	NA	984.1	NA	NA		M	NA	NA	NA	NA
2017/11/11 20:35:01	AWS2	3.55	77	4.01	76	M	M	M	NA	NA	984.2	NA	NA		M	NA	NA	NA	NA
2017/11/11 20:36:00	AWS2	3.20	77	4.01	76	M	M	M	NA	NA	983.7	NA	NA		M	NA	NA	NA	NA
2017/11/11 20:37:00	AWS2	3.44	76	4.12	77	M	M	M	NA	NA	983.7	NA	NA		M	NA	NA	NA	NA
2017/11/11 20:38:00	AWS2	3.85	76	4.22	77	M	M	M	NA	NA	983.7	NA	NA		M	NA	NA	NA	NA
2017/11/11 20:39:00	AWS2	3.55	76	4.22	77	M	M	M	NA	NA	983.7	NA	NA		M	NA	NA	NA	NA
2017/11/11 20:40:00	AWS2	3.44	73	4.22	77	M	M	M	NA	NA	983.7	NA	NA		M	NA	NA	NA	NA
2017/11/11 20:41:00	AWS2	3.64	72	4.22	77	M	M	M	NA	NA	983.7	NA	NA		M	NA	NA	NA	NA
2017/11/11 20:42:00	AWS2	3.70	72	4.22	77	M	M	M	NA	NA	983.0	NA	NA		M	NA	NA	NA	NA
2017/11/11 20:43:00	AWS2	3.72	71	4.22	77	M	M	M	NA	NA	983.5	NA	NA		M	NA	NA	NA	NA
2017/11/11 20:44:00	AWS2	4.02	73	4.73	75	M	M	M	NA	NA	983.5	NA	NA		M	NA	NA	NA	NA
2017/11/11 20:45:00	AWS2	4.13	74	4.73	75	M	M	M	NA	NA	983.6	NA	NA		M	NA	NA	NA	NA
2017/11/11 20:46:00	AWS2	3.97	76	4.73	75	M	M	M	NA	NA	983.3	NA	NA		M	NA	NA	NA	NA
2017/11/11 20:47:00	AWS2	4.02	78	4.73	75	M	M	M	NA	NA	983.6	NA	NA		M	NA	NA	NA	NA
2017/11/11 20:48:00	AWS2	4.02	74	4.73	75	M	M	M	NA	NA	983.7	NA	NA		M	NA	NA	NA	NA
2017/11/11 20:49:00	AWS2	3.62	75	4.73	75	M	M	M	NA	NA	983.6	NA	NA		M	NA	NA	NA	NA
2017/11/11 20:50:00	AWS2	3.36	80	4.73	75	M	M	M	NA	NA	984.0	NA	NA		M	NA	NA	NA	NA
2017/11/11 20:51:00	AWS2	3.58	83	4.73	75	M	M	M	NA	NA	982.7	NA	NA		M	NA	NA	NA	NA
2017/11/11 20:52:00	AWS2	3.78	85	4.73	75	M	M	M	NA	NA	983.4	NA	NA		M	NA	NA	NA	NA
2017/11/11 20:53:00	AWS2	3.83	84	4.73	75	M	M	M	NA	NA	983.9	NA	NA		M	NA	NA	NA	NA
2017/11/11 20:54:00	AWS2	3.93	83	4.68	75	M	M	M	NA	NA	983.9	NA	NA		M	NA	NA	NA	NA
2017/11/11 20:55:00	AWS2	3.94	82	4.68	75	M	M	M	NA	NA	983.5	NA	NA		M	NA	NA	NA	NA
2017/11/11 20:56:00	AWS2	3.77	82	4.68	75	M	M	M	NA	NA	983.6	NA	NA		M	NA	NA	NA	NA
2017/11/11 20:57:00	AWS2	3.77	83	4.68	75	M	M	M	NA	NA	983.4	NA	NA		M	NA	NA	NA	NA
2017/11/11 20:58:00	AWS2	3.90	84	4.53	75	M	M	M	NA	NA	983.4	NA	NA		M	NA	NA	NA	NA
2017/11/11 20:59:00	AWS2	3.93	84	4.53	75	M	M	M	NA	NA	983.6	NA	NA		M	NA	NA	NA	NA
2017/11/11 21:00:00	AWS2	3.83	86	4.53	75	M	M	M	NA	NA	983.1	NA	NA		M	NA	NA	NA	NA
2017/11/11 21:01:00	AWS2	3.80	86	4.53	75	M	M	M	NA	NA	983.7	NA	NA		M	NA	NA	NA	NA
2017/11/11 21:02:00	AWS2	3.51	84	4.53	75	M	M	M	NA	NA	983.2	NA	NA		M	NA	NA	NA	NA
2017/11/11 21:03:00	AWS2	3.35	81	4.53	75	M	M	M	NA	NA	983.2	NA	NA		M	NA	NA	NA	NA
2017/11/11 21:04:00	AWS2	3.52	79	4.53	75	M	M	M	NA	NA	983.4	NA	NA		M	NA	NA	NA	NA
2017/11/11 21:05:00	AWS2	3.48	79	4.53	75	M	M	M	NA	NA	983.3	NA	NA		M	NA	NA	NA	NA
2017/11/11 21:06:00	AWS2	3.37	79	4.53	75	M	M	M	NA	NA	983.2	NA	NA		M	NA	NA	NA	NA
2017/11/11 21:07:00	AWS2	3.67	77	4.53	75	M	M	M	NA	NA	983.7	NA	NA		M	NA	NA	NA	NA
2017/11/11 21:08:00	AWS2	3.87	76	4.37	70	M	M	M	NA	NA	982.6	NA	NA		M	NA	NA	NA	NA
2017/11/11 21:09:00	AWS2	3.73	72	4.37	70	M	M	M	NA	NA	983.2	NA	NA		M	NA	NA	NA	NA
2017/11/11 21:10:00	AWS2	3.73	69	4.37	70	M	M	M	NA	NA	983.6	NA	NA		M	NA	NA	NA	NA
2017/11/11 21:11:00	AWS2	3.78	70	4.37	70	M	M	M	NA	NA	983.4	NA	NA		M	NA	NA	NA	NA
2017/11/11 21:12:00	AWS2	3.72	69	4.37	70	M	M	M	NA	NA	982.7	NA	NA		M	NA	NA	NA	NA
2017/11/11 21:13:00	AWS2	3.51	68	4.37	70	M	M	M	NA	NA	983.3	NA	NA		M	NA	NA	NA	NA
2017/11/11 21:14:00	AWS2	3.33	67	4.37	70	M	M	M	NA	NA	982.7	NA	NA		M	NA	NA	NA	NA
2017/11/11 21:15:00	AWS2	3.11	65	4.37	70	M	M	M	NA	NA	983.4	NA	NA		M	NA	NA	NA	NA
2017/11/11 21:16:00	AWS2	2.98	70	4.37	70	M	M	M	NA	NA	983.4	NA	NA		M	NA	NA	NA	NA
2017/11/11 21:17:00	AWS2	3.01	75	4.22	65	M	M	M	NA	NA	982.7	NA	NA		M	NA	NA	NA	NA
2017/11/11 21:18:00	AWS2	3.00	79	4.22	65	M	M	M	NA	NA	983.6	NA	NA		M	NA	NA	NA	NA
2017/11/11 21:19:00	AWS2	2.97	82	4.17	66	M	M	M	NA	NA	982.7	NA	NA		M	NA	NA	NA	NA
2017/11/11 21:20:00	AWS2	3.07	82	4.17	66	M	M	M	NA	NA	982.9	NA	NA		M	NA	NA	NA	NA
2017/11/11 21:21:00	AWS2	2.96	80	4.17	66	M	M	M	NA	NA	982.8	NA	NA		M	NA	NA	NA	NA
2017/11/11 21:22:00	AWS2	2.98	82	3.55	66	M	M	M	NA	NA	982.9	NA	NA		M	NA	NA	NA	NA
2017/11/11 21:23:00	AWS2	3.18	84	3.55	66	M	M	M	NA	NA	983.1	NA	NA		M	NA	NA	NA	NA
2017/11/11 21:24:00	AWS2	2.93	83	3.50	84	M	M	M	NA	NA	982.9	NA	NA		M	NA	NA	NA	NA
2017/11/11 21:25:00	AWS2	2.94	85	3.50	84	M	M	M	NA	NA	983.1	NA	NA		M	NA	NA	NA	NA
2017/11/11 21:26:00	AWS2	3.11	81	3.50	84	M	M	M	NA	NA	983.0	NA	NA		M	NA	NA	NA	NA
2017/11/11 21:27:00	AWS2	2.72	73	3.50	84	M	M	M	NA	NA	982.9	NA	NA		M	NA	NA	NA	NA
2017/11/11 21:28:00	AWS2	2.39	66	3.50	84	M	M	M	NA	NA	983.0	NA	NA		M	NA	NA	NA	NA
2017/11/11 21:29:00	AWS2	2.51	61	3.55	61	M	M	M	NA	NA	982.3	NA	NA		M	NA	NA	NA	NA
2017/11/11 21:30:00	AWS2	2.50	68	3.55	61	M	M	M	NA	NA	983.0	NA	NA		M	NA	NA	NA	NA
2017/11/11 21:31:00	AWS2	2.71	70	3.65	68	M	M	M	NA	NA	982.8	NA	NA		M	NA	NA	NA	NA
2017/11/11 21:32:00	AWS2	3.03	68	3.65	68	M	M	M	NA	NA	983.0	NA	NA		M	NA	NA	NA	NA
2017/11/11 21:33:00	AWS2	2.90	68	3.65	68	M	M	M	NA	NA	983.3	NA	NA		M	NA	NA	NA	NA
2017/11/11 21:34:00	AWS2	2.48	67	3.65	68	M	M	M	NA	NA	983.4	NA	NA		M	NA	NA	NA	NA
2017/11/11 21:35:00	AWS2	2.53	69	3.65	68	M	M	M	NA	NA	983.2	NA	NA		M	NA	NA	NA	NA
2017/11/11 21:36:00	AWS2	2.77	76	3.65	68	M	M	M	NA	NA	983.2	NA	NA		M	NA	NA	NA	NA
2017/11/11 21:37:00	AWS2	2.52	83	3.65	68	M	M	M	NA	NA	983.4	NA	NA		M	NA	NA	NA	NA
2017/11/11 21:38:00	AWS2	2.38	81	3.65	68	M	M	M	NA	NA	983.0	NA	NA		M	NA	NA	NA	NA
2017/11/11 21:39:00	AWS2	2.42	84	3.65	68	M	M	M	NA	NA	983.3	NA	NA		M	NA	NA	NA	NA
2017/11/11 21:40:00	AWS2	2.20	95	3.65	68	M	M	M	NA	NA	983.0	NA	NA		M	NA	NA	NA	NA
2017/11/11 21:41:00	AWS2	1.80	98	3.34	66	M	M	M	NA	NA	983.3	NA	NA		M	NA	NA	NA	NA
2017/11/11 21:42:00	AWS2	1.62	96	3.24	69	M	M	M	NA	NA	982.8	NA	NA		M	NA	NA	NA	NA
2017/11/11 21:43:00	AWS2	1.97	95	3.24	69	M	M	M	NA	NA	982.9	NA	NA		M	NA	NA	NA	NA
2017/11/11 21:44:00	AWS2	2.30	93	3.24	69	M	M	M	NA	NA	982.8	NA	NA		M	NA	NA	NA	NA
2017/11/11 21:45:00	AWS2	2.28	89	2.93	71	M	M	M	NA	NA	982.3	NA	NA		M	NA	NA	NA	NA
2017/11/11 21:46:00	AWS2	2.36	83	2.83	98	M	M	M	NA	NA	982.5	NA	NA		M	NA	NA	NA	NA
2017/11/11 21:47:00	AWS2	2.57	68	3.55	60	M	M	M	NA	NA	982.1	NA	NA		M	NA	NA	NA	NA
2017/11/11 21:48:00	AWS2	2.36	54	3.55	60	M	M	M	NA	NA	982.4	NA	NA		M	NA	NA	NA	NA
2017/11/11 21:49:00	AWS2	1.80	44	3.55	60	M	M	M	NA	NA	982.3	NA	NA		M	NA	NA	NA	NA
2017/11/11 21:50:00	AWS2	1.99	32	3.55	60	M	M	M	NA	NA	981.7	NA	NA		M	NA	NA	NA	NA
2017/11/11 21:51:00	AWS2	2.72	23	3.55	60	M	M	M	NA	NA	982.4	NA	NA		M	NA	NA	NA	NA
2017/11/11 21:52:00	AWS2	3.04	21	3.55	60	M	M	M	NA	NA	981.8	NA	NA		M	NA	NA	NA	NA
2017/11/11 21:53:00	AWS2	3.33	25	4.32	15	M	M	M	NA	NA	981.2	NA	NA		M	NA	NA	NA	NA
2017/11/11 21:54:00	AWS2	3.65	25	4.32	15	M	M	M	NA	NA	981.0	NA	NA		M	NA	NA	NA	NA
2017/11/11 21:55:00	AWS2	3.41	23	4.32	15	M	M	M	NA	NA	981.0	NA	NA		M	NA	NA	NA	NA
2017/11/11 21:56:00	AWS2	2.62	31	4.32	15	M	M	M	NA	NA	981.4	NA	NA		M	NA	NA	NA	NA
2017/11/11 21:57:00	AWS2	2.04	42	4.32	15	M	M	M	NA	NA	981.5	NA	NA		M	NA	NA	NA	NA
2017/11/11 21:58:00	AWS2	1.79	41	4.32	15	M	M	M	NA	NA	981.7	NA	NA		M	NA	NA	NA	NA
2017/11/11 21:59:00	AWS2	1.77	25	4.32	15	M	M	M	NA	NA	982.1	NA	NA		M	NA	NA	NA	NA
2017/11/11 22:00:00	AWS2	1.81	5	4.32	15	M	M	M	NA	NA	980.7	NA	NA		M	NA	NA	NA	NA
2017/11/11 22:01:00	AWS2	1.67	9	4.32	15	M	M	M	NA	NA	981.7	NA	NA		M	NA	NA	NA	NA
2017/11/11 22:02:00	AWS2	1.93	32	4.32	15	M	M	M	NA	NA	981.3	NA	NA		M	NA	NA	NA	NA
2017/11/11 22:03:00	AWS2	2.02	40	4.01	22	M	M	M	NA	NA	980.4	NA	NA		M	NA	NA	NA	NA
2017/11/11 22:04:00	AWS2	2.11	47	3.70	12	M	M	M	NA	NA	982.0	NA	NA		M	NA	NA	NA	NA
2017/11/11 22:05:00	AWS2	2.37	57	2.88	28	M	M	M	NA	NA	981.9	NA	NA		M	NA	NA	NA	NA
2017/11/11 22:06:00	AWS2	2.53	46	3.55	17	M	M	M	NA	NA	981.8	NA	NA		M	NA	NA	NA	NA
2017/11/11 22:07:00	AWS2	2.80	31	3.55	17	M	M	M	NA	NA	981.6	NA	NA		M	NA	NA	NA	NA
2017/11/11 22:08:00	AWS2	3.45	19	5.35	1	M	M	M	NA	NA	981.4	NA	NA		M	NA	NA	NA	NA
2017/11/11 22:09:00	AWS2	4.13	5	5.35	1	M	M	M	NA	NA	980.9	NA	NA		M	NA	NA	NA	NA
2017/11/11 22:10:00	AWS2	4.46	360	5.71	354	M	M	M	NA	NA	981.1	NA	NA		M	NA	NA	NA	NA
2017/11/11 22:11:00	AWS2	4.50	3	5.71	354	M	M	M	NA	NA	980.6	NA	NA		M	NA	NA	NA	NA
2017/11/11 22:12:00	AWS2	4.84	6	6.02	19	M	M	M	NA	NA	980.9	NA	NA		M	NA	NA	NA	NA
2017/11/11 22:13:00	AWS2	5.58	9	7.46	15	M	M	M	NA	NA	981.4	NA	NA		M	NA	NA	NA	NA
2017/11/11 22:14:00	AWS2	6.00	4	7.46	15	M	M	M	NA	NA	981.7	NA	NA		M	NA	NA	NA	NA
2017/11/11 22:15:00	AWS2	5.94	360	7.46	15	M	M	M	NA	NA	980.8	NA	NA		M	NA	NA	NA	NA
2017/11/11 22:16:01	AWS2	5.80	5	7.46	15	M	M	M	NA	NA	981.7	NA	NA		M	NA	NA	NA	NA
2017/11/11 22:17:01	AWS2	6.14	2	7.61	6	M	M	M	NA	NA	982.0	NA	NA		M	NA	NA	NA	NA
2017/11/11 22:18:01	AWS2	6.15	0	7.61	6	M	M	M	NA	NA	981.1	NA	NA		M	NA	NA	NA	NA
2017/11/11 22:19:01	AWS2	6.40	3	7.61	6	M	M	M	NA	NA	981.0	NA	NA		M	NA	NA	NA	NA
2017/11/11 22:20:01	AWS2	6.42	3	7.61	6	M	M	M	NA	NA	981.0	NA	NA		M	NA	NA	NA	NA
2017/11/11 22:21:01	AWS2	6.33	5	7.61	6	M	M	M	NA	NA	981.5	NA	NA		M	NA	NA	NA	NA
2017/11/11 22:22:01	AWS2	6.66	7	7.67	1	M	M	M	NA	NA	981.2	NA	NA		M	NA	NA	NA	NA
2017/11/11 22:23:01	AWS2	6.80	5	7.77	3	M	M	M	NA	NA	980.9	NA	NA		M	NA	NA	NA	NA
2017/11/11 22:24:01	AWS2	7.04	4	8.18	7	M	M	M	NA	NA	981.9	NA	NA		M	NA	NA	NA	NA
2017/11/11 22:25:01	AWS2	6.96	5	8.18	7	M	M	M	NA	NA	981.1	NA	NA		M	NA	NA	NA	NA
2017/11/11 22:26:01	AWS2	6.53	4	8.18	7	M	M	M	NA	NA	981.0	NA	NA		M	NA	NA	NA	NA
2017/11/11 22:27:01	AWS2	6.48	3	8.18	7	M	M	M	NA	NA	981.4	NA	NA		M	NA	NA	NA	NA
2017/11/11 22:28:01	AWS2	6.78	4	8.18	7	M	M	M	NA	NA	981.4	NA	NA		M	NA	NA	NA	NA
2017/11/11 22:29:01	AWS2	6.54	6	8.18	7	M	M	M	NA	NA	982.0	NA	NA		M	NA	NA	NA	NA
2017/11/11 22:30:01	AWS2	6.11	2	8.18	7	M	M	M	NA	NA	981.7	NA	NA		M	NA	NA	NA	NA
2017/11/11 22:31:01	AWS2	6.30	357	8.18	7	M	M	M	NA	NA	981.3	NA	NA		M	NA	NA	NA	NA
2017/11/11 22:32:01	AWS2	7.00	1	8.18	7	M	M	M	NA	NA	980.7	NA	NA		M	NA	NA	NA	NA
2017/11/11 22:33:01	AWS2	7.40	3	8.23	1	M	M	M	NA	NA	981.5	NA	NA		M	NA	NA	NA	NA
2017/11/11 22:34:01	AWS2	7.64	0	8.59	2	M	M	M	NA	NA	980.9	NA	NA		M	NA	NA	NA	NA
2017/11/11 22:35:01	AWS2	7.70	2	8.59	2	M	M	M	NA	NA	981.0	NA	NA		M	NA	NA	NA	NA
2017/11/11 22:36:01	AWS2	7.31	3	8.59	2	M	M	M	NA	NA	981.6	NA	NA		M	NA	NA	NA	NA
2017/11/11 22:37:01	AWS2	7.06	3	8.59	2	M	M	M	NA	NA	980.2	NA	NA		M	NA	NA	NA	NA
2017/11/11 22:38:01	AWS2	6.62	4	8.59	2	M	M	M	NA	NA	981.5	NA	NA		M	NA	NA	NA	NA
2017/11/11 22:39:01	AWS2	6.68	5	8.59	2	M	M	M	NA	NA	981.2	NA	NA		M	NA	NA	NA	NA
2017/11/11 22:40:01	AWS2	7.32	6	8.59	2	M	M	M	NA	NA	980.8	NA	NA		M	NA	NA	NA	NA
2017/11/11 22:41:01	AWS2	7.16	7	8.59	2	M	M	M	NA	NA	981.0	NA	NA		M	NA	NA	NA	NA
2017/11/11 22:42:01	AWS2	7.01	7	8.59	2	M	M	M	NA	NA	981.0	NA	NA		M	NA	NA	NA	NA
2017/11/11 22:43:01	AWS2	7.39	6	8.59	2	M	M	M	NA	NA	981.3	NA	NA		M	NA	NA	NA	NA
2017/11/11 22:44:01	AWS2	7.24	5	8.18	6	M	M	M	NA	NA	981.2	NA	NA		M	NA	NA	NA	NA
2017/11/11 22:45:01	AWS2	6.93	4	8.18	6	M	M	M	NA	NA	982.9	NA	NA		M	NA	NA	NA	NA
2017/11/11 22:46:01	AWS2	7.13	5	8.18	6	M	M	M	NA	NA	982.3	NA	NA		M	NA	NA	NA	NA
2017/11/11 22:47:01	AWS2	7.27	5	8.18	6	M	M	M	NA	NA	983.0	NA	NA		M	NA	NA	NA	NA
2017/11/11 22:48:01	AWS2	7.21	4	8.18	6	M	M	M	NA	NA	982.5	NA	NA		M	NA	NA	NA	NA
2017/11/11 22:49:01	AWS2	6.83	4	8.18	6	M	M	M	NA	NA	982.0	NA	NA		M	NA	NA	NA	NA
2017/11/11 22:50:01	AWS2	6.40	6	8.18	6	M	M	M	NA	NA	982.4	NA	NA		M	NA	NA	NA	NA
2017/11/11 22:51:01	AWS2	6.52	8	8.18	6	M	M	M	NA	NA	982.8	NA	NA		M	NA	NA	NA	NA
2017/11/11 22:52:01	AWS2	6.73	5	7.97	8	M	M	M	NA	NA	982.2	NA	NA		M	NA	NA	NA	NA
2017/11/11 22:53:01	AWS2	7.31	0	8.39	2	M	M	M	NA	NA	983.4	NA	NA		M	NA	NA	NA	NA
2017/11/11 22:54:01	AWS2	7.98	360	8.54	355	M	M	M	NA	NA	981.6	NA	NA		M	NA	NA	NA	NA
2017/11/11 22:55:01	AWS2	7.75	0	8.54	355	M	M	M	NA	NA	982.4	NA	NA		M	NA	NA	NA	NA
2017/11/11 22:56:01	AWS2	7.16	359	8.54	355	M	M	M	NA	NA	982.8	NA	NA		M	NA	NA	NA	NA
2017/11/11 22:57:01	AWS2	6.92	360	8.54	355	M	M	M	NA	NA	982.8	NA	NA		M	NA	NA	NA	NA
2017/11/11 22:58:01	AWS2	6.91	356	8.54	355	M	M	M	NA	NA	982.2	NA	NA		M	NA	NA	NA	NA
2017/11/11 22:59:01	AWS2	6.97	360	8.54	355	M	M	M	NA	NA	982.1	NA	NA		M	NA	NA	NA	NA
2017/11/11 23:00:01	AWS2	6.91	3	8.54	355	M	M	M	NA	NA	982.5	NA	NA		M	NA	NA	NA	NA
2017/11/11 23:01:01	AWS2	6.57	359	8.54	355	M	M	M	NA	NA	983.7	NA	NA		M	NA	NA	NA	NA
2017/11/11 23:02:01	AWS2	6.71	359	8.54	355	M	M	M	NA	NA	982.4	NA	NA		M	NA	NA	NA	NA
2017/11/11 23:03:01	AWS2	6.73	356	8.54	355	M	M	M	NA	NA	983.1	NA	NA		M	NA	NA	NA	NA
2017/11/11 23:04:01	AWS2	6.19	356	8.54	355	M	M	M	NA	NA	982.4	NA	NA		M	NA	NA	NA	NA
2017/11/11 23:05:01	AWS2	6.40	0	7.82	2	M	M	M	NA	NA	982.5	NA	NA		M	NA	NA	NA	NA
2017/11/11 23:06:01	AWS2	7.10	1	7.97	9	M	M	M	NA	NA	982.3	NA	NA		M	NA	NA	NA	NA
2017/11/11 23:07:01	AWS2	6.99	357	8.44	354	M	M	M	NA	NA	982.4	NA	NA		M	NA	NA	NA	NA
2017/11/11 23:08:01	AWS2	7.04	357	8.44	354	M	M	M	NA	NA	982.6	NA	NA		M	NA	NA	NA	NA
2017/11/11 23:09:01	AWS2	7.16	355	8.44	354	M	M	M	NA	NA	982.7	NA	NA		M	NA	NA	NA	NA
2017/11/11 23:10:01	AWS2	6.56	350	8.44	354	M	M	M	NA	NA	982.4	NA	NA		M	NA	NA	NA	NA
2017/11/11 23:11:01	AWS2	6.58	350	8.44	354	M	M	M	NA	NA	981.6	NA	NA		M	NA	NA	NA	NA
2017/11/11 23:12:01	AWS2	7.08	353	8.44	354	M	M	M	NA	NA	982.9	NA	NA		M	NA	NA	NA	NA
2017/11/11 23:13:01	AWS2	6.94	359	8.44	354	M	M	M	NA	NA	982.2	NA	NA		M	NA	NA	NA	NA
2017/11/11 23:14:01	AWS2	6.87	5	8.44	354	M	M	M	NA	NA	981.6	NA	NA		M	NA	NA	NA	NA
2017/11/11 23:15:01	AWS2	7.04	360	8.44	354	M	M	M	NA	NA	982.1	NA	NA		M	NA	NA	NA	NA
2017/11/11 23:16:01	AWS2	7.07	354	8.44	354	M	M	M	NA	NA	982.1	NA	NA		M	NA	NA	NA	NA
2017/11/11 23:17:01	AWS2	7.39	358	8.59	10	M	M	M	NA	NA	981.8	NA	NA		M	NA	NA	NA	NA
2017/11/11 23:18:01	AWS2	7.72	359	8.64	354	M	M	M	NA	NA	982.2	NA	NA		M	NA	NA	NA	NA
2017/11/11 23:19:01	AWS2	7.74	352	8.64	354	M	M	M	NA	NA	982.5	NA	NA		M	NA	NA	NA	NA
2017/11/11 23:20:01	AWS2	7.40	353	8.64	354	M	M	M	NA	NA	982.2	NA	NA		M	NA	NA	NA	NA
2017/11/11 23:21:01	AWS2	7.38	358	8.64	354	M	M	M	NA	NA	981.9	NA	NA		M	NA	NA	NA	NA
2017/11/11 23:22:01	AWS2	7.39	355	8.64	354	M	M	M	NA	NA	982.5	NA	NA		M	NA	NA	NA	NA
2017/11/11 23:23:01	AWS2	7.05	355	8.64	354	M	M	M	NA	NA	982.7	NA	NA		M	NA	NA	NA	NA
2017/11/11 23:24:01	AWS2	6.52	357	8.64	354	M	M	M	NA	NA	982.7	NA	NA		M	NA	NA	NA	NA
2017/11/11 23:25:01	AWS2	5.90	353	8.64	354	M	M	M	NA	NA	982.9	NA	NA		M	NA	NA	NA	NA
2017/11/11 23:26:01	AWS2	5.62	353	8.64	354	M	M	M	NA	NA	982.2	NA	NA		M	NA	NA	NA	NA
2017/11/11 23:27:01	AWS2	6.13	352	8.64	354	M	M	M	NA	NA	982.4	NA	NA		M	NA	NA	NA	NA
2017/11/11 23:28:01	AWS2	6.74	355	8.23	2	M	M	M	NA	NA	981.8	NA	NA		M	NA	NA	NA	NA
2017/11/11 23:29:01	AWS2	7.40	357	8.75	276	M	M	M	NA	NA	981.9	NA	NA		M	NA	NA	NA	NA
2017/11/11 23:30:01	AWS2	7.95	354	8.75	192	M	M	M	NA	NA	982.3	NA	NA		M	NA	NA	NA	NA
2017/11/11 23:31:01	AWS2	8.00	357	8.75	192	M	M	M	NA	NA	982.2	NA	NA		M	NA	NA	NA	NA
2017/11/11 23:32:01	AWS2	7.86	354	8.75	192	M	M	M	NA	NA	982.4	NA	NA		M	NA	NA	NA	NA
2017/11/11 23:33:01	AWS2	7.57	348	8.75	192	M	M	M	NA	NA	981.8	NA	NA		M	NA	NA	NA	NA
2017/11/11 23:34:01	AWS2	7.12	344	8.75	192	M	M	M	NA	NA	982.1	NA	NA		M	NA	NA	NA	NA
2017/11/11 23:35:01	AWS2	6.79	349	8.75	192	M	M	M	NA	NA	981.8	NA	NA		M	NA	NA	NA	NA
2017/11/11 23:36:01	AWS2	7.16	355	8.75	192	M	M	M	NA	NA	981.0	NA	NA		M	NA	NA	NA	NA
2017/11/11 23:37:01	AWS2	7.12	359	8.75	192	M	M	M	NA	NA	982.4	NA	NA		M	NA	NA	NA	NA
2017/11/11 23:38:01	AWS2	6.57	359	8.75	192	M	M	M	NA	NA	982.0	NA	NA		M	NA	NA	NA	NA
2017/11/11 23:39:01	AWS2	6.58	356	8.75	192	M	M	M	NA	NA	982.4	NA	NA		M	NA	NA	NA	NA
2017/11/11 23:40:01	AWS2	6.62	359	8.64	3	M	M	M	NA	NA	981.8	NA	NA		M	NA	NA	NA	NA
2017/11/11 23:41:01	AWS2	6.82	0	8.49	360	M	M	M	NA	NA	981.6	NA	NA		M	NA	NA	NA	NA
2017/11/11 23:42:01	AWS2	7.37	358	8.08	355	M	M	M	NA	NA	981.9	NA	NA		M	NA	NA	NA	NA
2017/11/11 23:43:01	AWS2	7.38	358	8.03	354	M	M	M	NA	NA	982.0	NA	NA		M	NA	NA	NA	NA
2017/11/11 23:44:01	AWS2	7.38	359	8.39	349	M	M	M	NA	NA	981.7	NA	NA		M	NA	NA	NA	NA
2017/11/11 23:45:01	AWS2	7.44	360	8.39	349	M	M	M	NA	NA	982.5	NA	NA		M	NA	NA	NA	NA
2017/11/11 23:46:01	AWS2	7.36	360	8.39	349	M	M	M	NA	NA	982.0	NA	NA		M	NA	NA	NA	NA
2017/11/11 23:47:01	AWS2	7.64	357	8.90	354	M	M	M	NA	NA	981.1	NA	NA		M	NA	NA	NA	NA
2017/11/11 23:48:01	AWS2	7.72	352	8.90	354	M	M	M	NA	NA	982.1	NA	NA		M	NA	NA	NA	NA
2017/11/11 23:49:01	AWS2	7.29	348	8.90	354	M	M	M	NA	NA	982.5	NA	NA		M	NA	NA	NA	NA
2017/11/11 23:50:01	AWS2	6.78	351	8.90	354	M	M	M	NA	NA	981.9	NA	NA		M	NA	NA	NA	NA
2017/11/11 23:51:01	AWS2	6.62	354	8.90	354	M	M	M	NA	NA	982.3	NA	NA		M	NA	NA	NA	NA
2017/11/11 23:52:01	AWS2	6.46	358	8.90	354	M	M	M	NA	NA	981.0	NA	NA		M	NA	NA	NA	NA
2017/11/11 23:53:01	AWS2	6.74	359	8.90	354	M	M	M	NA	NA	981.9	NA	NA		M	NA	NA	NA	NA
2017/11/11 23:54:01	AWS2	7.22	356	8.90	354	M	M	M	NA	NA	981.5	NA	NA		M	NA	NA	NA	NA
2017/11/11 23:55:01	AWS2	7.20	358	8.90	354	M	M	M	NA	NA	982.6	NA	NA		M	NA	NA	NA	NA
2017/11/11 23:56:01	AWS2	7.46	357	8.90	354	M	M	M	NA	NA	982.0	NA	NA		M	NA	NA	NA	NA
2017/11/11 23:57:01	AWS2	7.49	358	8.18	354	M	M	M	NA	NA	982.1	NA	NA		M	NA	NA	NA	NA
2017/11/11 23:58:01	AWS2	7.19	357	8.18	354	M	M	M	NA	NA	981.9	NA	NA		M	NA	NA	NA	NA
2017/11/11 23:59:01	AWS2	7.58	354	8.54	352	M	M	M	NA	NA	982.4	NA	NA		M	NA	NA	NA	NA